GFSMW_850_thetae_000.txt.gz
Theta_e
322 322 321 321 322 323 324 325 329 333 332 333 331 329 331 330 328 325 311 309 310 310 309 309 309 308 307 304 302 301 301 299 298 299 300 299 298 301 304 298 298 297 298
321 321 321 321 322 323 325 325 330 332 332 332 331 331 329 325 318 309 310 310 310 310 310 311 310 309 306 303 301 300 299 298 296 296 297 297 297 300 296 298 295 298 296
322 321 321 323 324 326 328 329 331 331 333 333 331 329 324 313 309 310 311 310 310 311 311 311 309 307 303 301 299 298 297 297 296 294 294 295 297 294 296 294 296 294 294
321 321 323 326 326 328 330 331 332 333 331 330 328 324 318 310 310 311 310 310 311 311 311 310 308 305 301 299 297 296 296 296 295 294 293 293 293 294 294 293 292 293 292
321 322 324 326 327 328 329 330 329 329 327 322 321 315 310 310 311 310 310 310 311 311 310 308 306 303 300 298 296 296 295 294 293 293 293 293 292 291 291 291 292 291 291
320 322 325 327 328 328 328 329 328 325 322 317 313 311 311 311 311 310 310 310 310 309 308 306 304 301 298 297 296 294 293 292 292 292 292 291 290 290 290 290 290 290 290
320 322 323 324 327 327 327 324 323 319 316 314 311 310 311 311 310 310 310 310 309 307 306 305 303 299 297 295 293 292 292 292 292 292 291 290 290 289 289 289 288 289 289
319 321 322 321 319 320 319 318 317 317 316 315 311 310 311 311 310 310 309 308 307 306 305 304 301 298 296 293 291 291 292 292 292 291 290 289 289 288 288 288 287 287 288
319 319 319 319 318 317 317 317 317 316 314 312 311 311 311 310 310 309 309 308 307 306 305 303 300 296 293 291 291 291 292 291 291 290 289 289 288 288 287 287 286 287 289
317 318 318 318 317 316 315 314 313 312 312 311 311 311 310 309 309 309 308 306 305 305 303 301 297 293 291 291 291 292 291 290 290 289 288 288 288 287 287 286 285 286 287
317 318 318 316 315 313 312 312 311 311 311 310 310 310 309 309 308 307 306 305 305 303 301 298 294 291 291 292 291 290 290 289 289 288 288 288 287 286 285 286 287 288 288
317 318 318 316 314 313 312 312 311 311 310 309 309 309 308 308 307 306 305 305 304 301 298 293 291 291 292 291 290 289 289 289 288 288 288 287 287 286 285 286 287 287 288
317 318 317 315 314 313 313 312 311 310 309 308 307 307 307 306 305 304 304 304 302 297 293 291 291 292 291 290 290 289 288 288 288 287 287 287 286 285 285 286 287 287 287
317 317 317 316 315 314 313 312 311 309 308 307 306 305 305 304 303 304 303 301 298 293 291 291 292 291 290 290 289 288 288 287 287 287 286 286 285 285 285 286 287 286 285
316 316 317 317 316 315 313 312 310 309 307 306 304 304 303 303 303 303 301 298 293 291 291 292 292 291 290 289 288 287 287 287 286 286 286 285 285 285 286 286 286 286 286
316 316 317 317 316 315 313 311 310 308 306 305 303 302 302 303 302 300 298 294 291 290 292 291 291 290 289 288 287 286 287 286 286 285 286 285 285 285 285 285 285 286 287
316 316 317 317 316 314 313 311 309 307 305 303 301 301 302 301 299 297 294 291 290 291 291 291 290 289 288 287 286 286 286 286 285 285 285 285 284 284 284 284 285 285 285
315 316 316 316 314 313 310 308 306 305 303 301 300 301 300 298 297 294 290 289 290 291 291 290 289 288 287 285 285 285 285 284 284 284 284 284 284 283 284 285 285 286 284
316 317 316 315 313 310 308 306 304 303 301 300 301 300 298 297 294 290 289 289 290 290 290 289 288 286 285 284 283 285 284 284 283 283 284 284 283 284 285 286 285 283 283
315 315 314 313 310 307 306 305 303 301 300 300 299 298 297 295 290 289 288 289 289 289 289 288 286 285 284 283 283 284 284 284 284 284 284 284 284 285 285 284 283 282 282
313 312 311 309 307 305 304 302 301 300 300 299 298 296 294 290 289 287 288 288 289 289 288 287 285 284 283 283 283 284 285 284 285 285 284 283 284 284 283 282 281 282 283
309 308 307 306 304 303 302 301 300 299 299 298 296 294 290 288 287 286 287 288 288 288 286 285 284 283 282 283 283 284 285 285 285 284 283 284 283 282 281 280 281 282 281
304 303 303 302 301 300 299 300 299 299 298 296 294 290 288 287 286 286 287 288 288 286 284 283 282 282 282 282 283 284 285 284 284 284 284 283 281 280 280 280 280 280 279
301 300 300 300 299 298 298 298 299 298 295 294 290 288 286 285 286 287 287 287 285 284 283 282 282 282 282 282 283 284 283 284 284 283 282 281 280 279 279 280 280 279 279
300 299 299 299 298 298 298 298 297 295 293 290 288 286 285 286 287 287 286 285 284 282 282 282 282 282 282 282 283 283 284 284 283 282 281 279 279 279 279 280 279 279 279
299 298 298 298 297 297 297 296 294 292 290 288 286 286 286 287 287 286 286 284 282 282 281 281 281 282 282 282 282 283 283 282 281 280 278 278 278 278 278 279 279 279 279

GFSMW_850_thetae_003.txt.gz
Theta_e
324 322 322 322 323 326 330 333 335 334 334 336 333 332 330 330 329 328 327 321 309 310 310 310 310 310 308 304 302 300 300 299 299 299 300 299 299 298 301 301 298 298 297
322 321 321 321 321 322 324 328 333 333 336 335 332 330 329 328 327 324 312 309 310 310 311 311 311 309 305 302 300 298 298 297 296 296 296 296 297 299 302 297 298 296 296
322 321 321 321 321 321 322 323 326 334 336 334 332 328 328 326 320 310 310 310 310 312 312 311 310 307 303 300 298 297 296 295 295 293 293 294 294 293 295 294 294 294 294
322 321 320 320 321 322 323 325 328 335 335 333 331 329 328 324 312 310 310 310 311 312 311 310 308 306 302 300 298 296 296 294 293 293 293 292 292 291 292 292 293 292 292
323 321 321 321 322 324 325 327 333 334 333 332 332 330 327 316 311 310 310 311 312 311 310 308 307 305 302 299 297 296 294 293 292 292 292 292 291 290 290 289 290 291 291
321 320 320 322 324 326 328 331 332 333 332 330 329 327 319 311 311 311 310 311 311 310 308 307 306 304 300 298 296 294 292 292 292 292 291 290 289 289 288 288 288 288 288
319 320 321 323 325 326 329 330 331 330 329 324 322 318 311 311 311 310 311 310 310 309 307 306 304 302 299 296 293 292 291 292 292 291 291 290 289 288 288 287 287 287 287
318 319 321 323 325 327 329 329 329 329 324 320 315 311 310 311 310 310 310 310 308 307 306 305 303 300 296 293 292 291 291 292 291 290 290 289 289 288 288 287 286 286 286
317 319 322 324 326 327 327 327 327 325 320 315 313 310 310 311 310 309 309 308 307 305 305 304 301 297 294 292 291 291 292 291 290 290 290 289 288 288 287 287 286 285 286
316 318 322 324 326 326 325 324 322 319 316 315 313 310 310 310 308 308 308 307 305 304 304 302 299 295 292 291 291 292 291 291 291 290 289 288 288 287 287 286 285 285 287
316 318 321 321 322 321 320 319 318 317 316 315 311 310 309 308 308 308 307 305 304 304 303 300 296 293 291 292 292 291 291 290 289 289 288 288 287 286 286 285 285 285 286
315 318 320 319 318 317 316 316 315 314 312 311 310 309 308 307 307 307 305 304 303 302 300 296 293 291 292 292 291 290 290 289 289 288 287 287 286 285 285 285 285 285 286
315 317 318 317 316 315 314 313 312 311 310 309 308 307 307 306 306 305 303 303 302 300 296 293 292 292 292 291 291 290 289 288 288 287 286 286 285 285 285 285 285 286 286
316 317 316 316 315 313 312 311 310 309 308 307 307 306 305 305 304 303 303 302 300 297 293 291 292 291 291 291 290 289 288 288 287 286 285 285 285 285 285 285 286 286 285
316 317 317 315 314 312 312 311 310 309 308 307 305 304 304 303 302 302 301 299 297 294 291 291 291 291 291 290 289 288 287 287 286 285 285 285 285 285 285 285 286 285 285
315 316 317 316 314 313 312 311 310 309 307 305 304 303 302 301 301 301 299 297 294 291 291 291 291 291 290 290 288 286 286 286 284 284 284 283 283 283 284 284 284 285 286
315 317 317 316 315 313 312 311 310 308 306 304 302 301 301 301 300 299 297 294 290 290 290 291 290 290 290 288 286 285 286 284 284 283 283 283 283 283 283 284 285 286 285
315 315 316 316 315 313 312 310 308 307 305 303 301 300 300 300 299 297 293 290 289 289 290 290 290 289 287 286 284 285 284 284 284 283 283 284 284 283 284 286 285 284 283
315 315 316 316 315 313 311 309 307 305 303 300 299 300 300 299 296 292 290 289 288 288 289 289 289 287 286 284 283 284 284 284 284 284 284 284 284 283 286 285 283 282 282
314 315 315 314 313 311 309 307 305 302 300 299 300 300 298 295 293 290 288 287 287 288 288 288 287 285 284 283 283 284 284 284 284 285 284 283 284 285 285 284 282 282 281
314 313 313 313 311 308 306 304 302 299 299 300 299 297 295 293 290 289 287 286 287 288 288 287 285 284 283 283 282 284 285 284 285 284 284 283 283 284 283 282 281 281 283
311 311 310 308 306 305 303 302 300 299 299 298 297 295 292 290 288 287 286 287 287 288 286 285 284 283 283 282 282 284 284 285 284 284 283 283 283 282 281 281 281 282 281
308 307 308 305 302 301 301 301 299 299 298 297 295 292 290 288 286 285 286 288 287 285 284 283 282 282 282 282 282 283 284 284 284 283 283 282 281 280 280 280 280 280 280
305 304 303 302 301 299 298 298 299 298 296 294 293 290 288 286 285 286 287 286 284 283 282 282 282 281 281 282 282 283 283 284 283 282 282 281 280 279 280 280 280 280 279
301 300 300 299 298 297 297 297 297 296 294 293 290 288 286 286 287 287 285 284 283 282 281 281 281 281 281 282 283 283 284 283 282 282 280 279 279 279 280 280 280 280 280
299 298 298 298 297 297 297 296 295 293 292 290 287 286 286 287 287 285 285 283 282 282 281 281 280 281 281 282 282 283 282 282 281 280 279 278 278 278 279 279 280 280 280

GFSMW_850_thetae_006.txt.gz
Theta_e
324 324 324 324 323 323 323 324 327 335 336 337 336 335 334 333 332 331 330 327 323 309 310 310 311 310 308 305 302 301 301 300 300 300 300 299 299 299 298 299 302 298 298
323 324 324 323 322 323 323 325 330 336 336 336 336 332 331 330 329 329 325 318 309 310 311 312 311 309 307 305 302 300 300 298 297 295 296 296 297 298 298 297 298 297 296
323 323 324 323 322 323 322 324 331 337 336 337 335 331 328 328 327 324 319 309 310 310 312 311 310 309 307 305 301 299 298 297 295 293 293 293 293 292 294 295 295 294 294
321 323 323 322 321 321 322 323 328 335 336 333 334 332 327 328 325 319 310 310 310 312 311 311 310 309 307 305 301 299 297 294 293 293 293 292 291 290 291 292 293 292 292
320 322 323 323 321 321 322 322 323 329 332 332 332 328 326 326 323 311 309 310 311 311 311 310 308 308 306 304 301 297 294 293 292 292 292 292 291 290 289 289 291 292 292
321 322 323 322 320 321 322 324 325 329 330 332 329 327 325 325 318 310 310 310 311 310 310 308 307 306 305 302 299 295 293 292 292 292 291 290 289 289 288 287 288 288 289
320 320 321 321 320 321 323 326 326 330 331 331 330 328 327 326 314 310 310 310 310 309 308 306 306 305 303 300 296 293 292 292 292 292 291 291 290 289 288 288 288 287 287
318 319 320 320 320 322 325 328 331 331 330 331 329 327 325 317 310 310 309 308 308 307 306 306 305 303 301 297 294 292 292 292 292 291 290 290 289 289 288 287 286 286 286
317 318 319 319 321 323 326 329 331 331 330 327 323 321 314 309 310 309 307 307 306 305 305 305 304 302 299 296 293 292 292 292 291 291 290 290 289 288 288 287 286 285 285
316 317 318 319 323 325 328 330 330 329 327 321 319 313 309 309 309 308 306 306 305 305 304 304 302 299 296 293 292 292 292 291 291 291 290 290 288 288 287 286 285 285 285
316 317 318 320 324 326 328 329 329 328 323 318 313 311 310 309 308 306 306 305 305 304 304 303 300 297 293 292 292 292 292 292 292 291 290 289 287 286 286 285 285 285 285
315 316 317 322 325 326 327 327 326 323 321 314 313 311 309 308 306 306 305 304 303 303 303 301 298 294 292 292 292 292 292 292 291 290 288 287 286 285 285 285 285 285 285
314 315 317 322 324 323 323 322 320 318 316 314 312 310 308 307 306 305 304 303 303 303 302 298 294 292 292 292 292 292 291 290 289 288 286 285 285 285 284 285 285 285 285
314 314 317 321 321 320 319 317 316 315 314 311 309 308 306 305 305 304 303 303 302 301 298 294 292 292 292 292 291 291 290 289 287 286 285 284 284 283 284 284 285 285 284
313 315 316 317 316 315 313 312 312 310 310 308 307 305 305 304 303 302 302 302 300 298 294 292 291 291 291 291 290 289 288 287 286 285 284 284 283 283 284 285 284 284 285
313 315 315 315 314 314 312 311 309 308 307 306 305 304 303 302 301 301 300 299 297 294 291 290 290 290 290 290 289 287 286 285 285 284 284 283 283 283 284 283 284 286 286
314 315 315 315 314 312 311 309 309 308 306 305 304 302 301 300 300 300 299 296 294 291 290 289 289 289 290 289 287 285 285 285 284 284 284 284 284 283 283 284 285 285 284
314 315 316 314 312 311 310 310 309 308 306 303 301 300 299 299 299 298 296 294 291 290 289 288 288 289 289 287 285 284 284 284 284 284 284 284 283 283 284 285 285 284 283
315 316 315 315 313 311 311 310 309 306 303 301 300 299 299 298 297 295 294 292 290 288 287 288 289 289 286 285 284 283 284 284 284 284 284 283 283 283 285 285 284 283 282
314 315 314 314 313 311 311 309 306 303 301 299 298 298 298 297 295 294 292 290 288 286 287 289 288 285 284 284 283 283 284 284 284 285 284 283 283 284 284 284 282 282 281
313 313 313 314 312 311 308 306 304 300 299 298 298 298 297 295 294 292 289 287 286 287 288 287 286 285 283 282 282 283 284 284 285 284 283 283 283 284 283 282 281 281 282
312 312 312 310 309 307 306 303 301 299 298 298 297 297 296 294 291 289 287 286 288 288 287 285 285 284 283 282 281 283 284 284 284 284 283 283 283 282 281 280 281 281 281
310 309 310 307 304 303 303 302 299 298 298 297 296 295 293 291 289 287 287 288 288 286 284 283 283 282 282 281 282 282 283 283 284 283 283 282 281 280 280 280 280 280 281
308 307 307 304 301 299 299 300 299 297 297 296 295 293 291 289 287 287 288 287 285 284 283 282 281 281 281 281 282 282 283 283 282 282 282 281 280 279 280 281 281 281 280
305 305 304 302 299 297 297 297 297 297 296 295 293 291 288 287 288 288 287 285 283 282 281 281 280 281 281 281 282 282 283 282 282 281 280 279 279 279 280 281 281 281 281
301 300 299 298 297 296 297 297 296 295 294 292 290 288 287 288 288 287 285 283 282 282 281 280 280 280 280 281 281 282 282 281 280 280 279 279 278 279 280 280 281 281 281

GFSMW_850_thetae_009.txt.gz
Theta_e
321 322 323 324 323 324 323 323 323 325 326 334 337 336 334 334 332 330 330 328 326 325 309 309 311 311 309 307 305 302 301 301 301 301 300 299 299 298 299 298 298 297 298
318 320 321 322 324 324 323 323 324 326 328 332 336 334 333 333 332 330 328 327 323 311 310 311 312 311 310 308 306 304 302 300 299 297 297 297 297 298 298 297 296 296 296
315 318 319 322 323 324 323 324 326 328 332 332 336 333 333 332 330 328 326 320 313 309 310 312 311 310 309 308 307 305 302 299 297 296 295 294 294 293 296 296 296 296 295
314 316 318 319 323 323 322 325 328 330 331 334 335 333 331 330 328 326 323 319 309 310 312 311 310 309 309 308 306 304 301 298 296 295 294 293 292 291 292 292 293 293 294
314 314 315 318 322 323 322 324 328 331 333 335 334 333 330 329 325 323 322 309 309 310 311 310 309 308 308 307 305 302 299 296 294 293 293 293 292 291 290 290 292 292 293
317 317 318 318 321 321 321 323 324 330 335 331 331 332 329 326 324 322 310 309 309 310 310 309 308 307 307 306 304 301 297 295 293 293 292 291 291 290 289 288 289 289 289
315 317 319 319 321 321 321 322 323 325 332 330 330 330 327 324 323 319 309 309 309 310 309 308 307 306 306 305 302 299 295 293 293 292 292 292 291 291 290 289 288 288 288
313 317 318 320 321 321 320 321 322 324 331 330 331 327 325 323 322 314 309 309 309 309 308 306 306 306 305 303 300 296 294 293 292 292 292 292 291 290 289 288 287 287 288
313 314 317 319 320 320 320 322 324 326 329 330 329 327 325 324 317 308 308 308 308 308 307 305 305 305 303 301 298 294 293 293 292 292 292 291 290 290 288 287 287 286 286
312 313 315 318 319 320 321 324 326 326 328 329 327 326 325 319 309 308 308 307 307 306 305 304 304 303 301 298 295 293 293 293 292 292 291 291 289 288 287 286 286 285 285
312 314 315 317 318 320 323 326 327 328 327 326 327 324 317 309 308 308 307 306 306 305 304 303 303 301 299 295 293 293 293 292 292 291 291 289 288 287 286 285 285 285 285
313 313 315 317 318 323 326 329 328 328 327 326 320 315 309 308 308 307 305 305 304 303 303 303 301 299 296 293 292 292 292 292 291 291 289 288 286 285 285 284 284 284 284
313 313 315 317 320 325 328 329 328 327 325 319 314 309 309 308 307 306 305 304 303 302 302 301 298 296 294 292 292 291 291 291 290 288 287 286 285 284 284 284 284 285 285
312 313 314 317 322 326 327 328 326 324 320 314 311 310 308 307 305 304 303 302 302 302 300 298 296 294 292 291 290 290 290 290 288 287 285 284 284 284 284 284 285 285 285
311 311 312 317 322 324 325 324 322 318 315 312 310 308 306 304 304 303 301 301 301 300 298 296 294 292 290 290 290 290 288 287 286 285 284 284 284 284 284 285 285 285 285
311 310 313 317 319 320 319 318 316 313 312 309 307 305 304 303 302 301 300 300 299 298 296 294 291 289 289 289 290 288 286 285 285 284 284 284 284 284 284 284 284 285 286
312 311 313 316 317 317 316 314 312 309 308 306 305 303 302 301 300 300 299 298 297 296 293 291 289 288 289 290 288 286 285 284 284 284 284 284 284 283 283 284 284 286 284
312 312 313 313 312 311 310 310 308 306 304 304 303 301 300 299 299 299 298 297 296 293 290 288 287 289 289 287 286 284 284 283 284 284 284 284 283 283 284 285 285 284 283
313 315 313 312 311 310 308 308 306 305 303 301 300 299 299 299 298 298 297 295 292 290 288 287 289 289 287 285 284 283 283 283 284 284 284 284 284 284 285 285 284 283 282
315 314 313 311 310 308 308 307 304 302 301 300 299 298 298 298 298 297 294 292 290 287 287 289 288 286 284 284 283 282 283 284 284 284 284 283 283 284 284 283 283 282 281
313 313 312 310 309 308 307 305 303 301 300 298 298 298 298 298 297 294 292 289 287 288 289 287 285 284 283 283 282 282 284 284 284 284 284 283 283 283 283 282 281 281 282
310 311 311 309 307 306 305 303 301 299 298 298 298 298 298 296 294 292 288 287 288 288 287 285 285 284 283 282 282 282 283 284 284 283 283 282 283 282 281 280 280 281 281
309 308 309 306 303 302 304 303 300 298 298 298 298 297 296 293 290 287 287 288 288 286 284 284 284 283 283 282 281 282 282 283 283 282 282 282 281 280 280 281 281 281 281
306 306 306 303 301 301 301 302 299 298 298 298 297 295 292 289 287 288 289 287 285 283 283 283 282 281 281 281 282 282 282 283 282 282 281 280 280 280 281 281 282 281 281
304 304 305 303 300 299 299 298 298 298 297 296 294 292 288 287 288 288 287 285 283 282 282 281 280 280 280 281 282 282 282 282 282 281 280 280 280 280 281 281 282 281 282
303 303 302 301 298 298 298 297 297 295 294 293 290 288 287 288 288 287 285 283 283 282 281 280 280 280 280 281 281 282 281 281 280 280 279 279 279 280 281 281 281 282 282

GFSMW_850_thetae_012.txt.gz
Theta_e
321 321 322 323 323 324 324 324 323 323 325 330 332 335 336 335 334 332 330 330 327 326 325 315 309 311 310 310 309 308 306 303 301 300 300 299 298 298 301 298 297 297 297
318 320 321 322 322 323 324 324 324 323 325 325 331 331 334 335 333 332 331 329 326 324 321 309 311 312 311 311 310 308 306 303 300 298 298 300 300 299 297 297 296 296 296
316 318 319 320 321 321 323 324 324 324 325 328 333 334 334 333 333 332 330 326 323 319 309 310 312 312 311 310 310 309 306 302 299 297 296 298 299 296 297 297 296 295 296
314 314 317 318 319 320 321 323 323 324 327 330 331 333 332 333 332 331 328 325 317 310 309 311 311 311 311 310 309 308 305 302 297 295 295 294 293 295 296 296 295 294 293
314 315 315 316 318 318 319 322 323 326 327 329 332 335 333 332 331 329 326 320 313 309 310 311 311 310 310 309 308 307 304 300 297 295 294 293 293 293 293 294 295 294 293
314 314 317 316 317 319 318 322 324 328 330 331 334 335 332 331 330 326 322 315 312 309 310 310 309 309 308 308 307 305 302 299 296 294 293 293 292 293 292 293 293 293 293
314 314 316 317 318 318 318 321 324 327 330 333 334 334 333 331 329 324 319 319 310 309 310 309 308 307 307 306 305 303 300 296 294 293 293 293 292 292 291 291 292 292 291
315 313 315 317 319 319 319 321 324 326 329 332 334 335 332 328 326 323 321 314 309 309 309 308 306 306 306 305 303 301 298 295 294 293 293 293 292 291 290 290 290 290 291
315 315 315 316 319 320 319 321 323 325 329 331 333 333 329 325 324 322 316 309 308 308 308 307 305 305 304 303 302 299 296 294 293 293 292 292 291 291 289 289 289 289 289
314 315 314 316 319 321 320 322 322 323 328 328 330 330 325 325 322 320 312 308 307 307 306 305 304 303 303 302 300 297 295 293 293 292 292 291 290 289 288 288 288 288 288
314 315 314 316 319 321 321 321 320 321 326 329 329 327 324 323 321 314 307 307 306 305 304 303 303 302 301 300 297 295 293 293 292 291 291 290 289 287 287 287 287 287 287
314 314 314 317 320 320 320 320 320 324 327 330 328 326 325 322 314 307 306 305 304 304 303 302 302 301 299 297 295 293 292 291 291 291 290 288 287 286 286 286 286 286 286
314 313 313 315 317 319 319 320 324 327 327 327 326 322 318 314 307 306 305 304 303 302 301 301 301 299 297 295 292 291 290 290 291 289 288 287 286 285 285 285 286 286 286
314 313 313 315 316 318 315 324 326 327 327 324 320 320 314 307 306 305 304 303 301 301 301 300 299 297 295 292 290 289 290 290 289 288 286 286 285 285 285 286 286 286 286
315 312 312 313 313 311 320 326 326 324 323 319 316 311 307 307 305 303 302 301 300 300 299 298 297 294 291 290 289 290 289 288 288 287 286 286 285 284 285 286 286 286 285
314 311 310 310 308 317 323 324 323 320 315 313 310 308 307 305 303 301 301 300 300 299 298 296 294 291 289 288 290 290 287 287 287 286 286 286 286 285 285 285 285 285 286
313 310 308 306 312 318 322 321 317 313 309 309 307 306 304 302 301 300 300 299 298 297 296 293 291 288 288 290 289 287 285 286 286 285 286 286 285 285 285 284 285 285 285
311 309 306 307 311 314 315 315 311 308 308 306 305 303 301 300 299 299 298 298 297 295 292 290 288 289 290 289 286 285 285 285 286 285 285 285 285 285 285 285 285 285 284
310 308 311 312 313 313 313 311 309 307 305 303 302 300 300 299 298 298 298 297 294 291 289 288 290 290 287 286 285 284 284 285 285 285 285 285 285 284 285 285 284 284 284
311 312 311 311 311 309 309 308 305 303 302 301 300 299 298 298 298 298 296 293 291 288 288 290 289 287 285 285 284 284 284 285 285 285 285 285 284 284 284 284 284 283 283
311 310 309 308 308 306 305 304 302 301 300 299 299 298 297 297 297 295 293 290 288 289 289 288 286 285 285 284 283 282 284 284 285 285 285 284 284 284 283 283 282 282 282
309 309 309 307 305 304 303 302 301 300 299 298 298 298 297 296 294 292 289 288 289 289 287 285 285 285 284 283 282 282 283 284 284 284 284 283 283 282 282 281 281 281 281
305 306 308 305 302 301 303 304 300 299 298 297 297 297 295 293 291 288 289 289 288 286 285 285 285 284 283 282 282 283 283 284 284 283 283 283 282 281 280 281 281 281 281
304 305 305 304 302 300 300 301 299 297 297 297 296 294 292 290 288 289 289 288 286 284 284 284 283 282 282 282 282 283 283 283 283 283 282 282 280 280 280 281 280 280 280
304 304 304 302 300 299 299 298 297 297 296 295 293 292 289 288 289 289 288 286 284 284 283 282 281 282 282 282 282 282 283 283 282 281 281 280 280 280 280 280 280 280 280
303 302 302 301 299 298 298 296 295 295 295 294 291 288 288 288 289 288 286 284 283 283 282 281 280 280 280 281 281 282 282 281 281 280 280 280 280 279 279 279 281 281 282

GFSMW_850_thetae_015.txt.gz
Theta_e
320 322 322 322 321 323 324 325 324 327 328 334 337 336 337 336 335 335 332 330 329 328 326 325 323 310 312 311 311 311 310 308 306 302 301 302 301 301 304 303 299 298 297
318 319 320 322 323 323 324 324 326 328 331 334 332 335 336 334 334 334 332 330 329 327 325 324 310 311 312 312 312 311 309 308 306 302 301 302 302 301 300 300 298 297 296
316 317 318 320 321 322 323 324 326 330 333 332 334 336 334 332 334 334 332 330 330 326 323 316 310 312 312 312 311 311 309 307 305 301 299 300 301 299 299 298 298 297 297
314 314 315 317 319 321 323 324 327 331 334 334 331 329 328 332 334 333 331 331 328 324 318 310 311 312 311 311 311 310 309 307 303 299 298 296 295 296 297 298 298 297 296
315 315 315 315 316 319 322 323 328 331 333 332 332 329 328 330 333 332 331 329 324 320 312 310 311 311 311 310 310 309 308 306 303 299 297 295 295 295 295 295 296 296 295
314 315 315 315 316 317 320 321 328 331 331 332 331 327 326 329 332 331 330 327 323 312 309 310 311 310 310 309 309 308 307 305 301 298 296 295 294 294 294 294 294 294 294
314 314 315 316 317 317 319 322 328 330 331 330 326 326 326 331 331 331 330 327 320 310 309 309 310 309 309 308 307 307 306 303 299 296 295 294 294 293 293 292 292 292 292
316 317 317 315 317 319 319 324 329 329 329 327 326 328 327 330 331 330 328 326 317 312 309 309 309 308 308 307 306 305 304 301 297 295 294 294 294 293 292 292 291 291 291
315 316 317 316 316 319 320 324 328 330 327 325 327 325 329 330 330 328 325 316 310 311 308 308 308 307 306 305 305 303 301 298 295 294 293 293 292 292 291 291 290 290 290
314 315 316 317 317 320 321 324 327 328 325 323 327 330 331 330 328 326 316 310 312 308 308 307 306 305 305 304 303 301 299 296 293 293 292 292 292 291 290 289 289 289 289
314 315 316 316 317 320 323 324 326 325 323 323 328 330 329 325 325 318 314 314 309 307 307 306 304 304 304 303 301 298 296 294 292 291 291 291 291 290 288 288 287 287 287
313 315 315 317 318 322 323 324 325 324 320 317 327 328 328 324 321 313 312 310 306 306 305 304 303 303 302 301 299 296 293 292 291 291 291 291 289 288 287 287 287 287 287
311 313 315 317 320 322 323 323 322 318 314 320 326 325 323 321 314 310 311 306 305 304 303 303 302 302 301 299 296 293 291 290 290 291 290 289 288 287 287 287 287 287 287
311 315 315 316 319 320 322 320 317 313 314 322 323 324 320 314 309 307 306 304 303 303 302 302 302 301 299 297 293 291 290 290 291 290 289 288 287 287 286 286 286 287 286
314 315 314 316 318 319 317 313 312 311 318 321 320 315 314 308 305 304 303 303 302 301 301 301 300 300 298 294 291 289 290 290 289 288 288 288 287 286 286 287 286 286 285
313 314 314 315 316 311 307 306 309 312 314 318 315 303 305 304 303 304 303 302 301 301 300 300 299 297 293 291 289 291 289 287 287 287 287 287 286 286 286 287 286 286 286
312 314 312 312 307 306 308 305 308 314 313 314 306 305 304 304 303 303 302 301 300 299 299 298 296 293 290 290 290 289 286 286 286 286 286 286 286 286 286 285 285 285 285
313 311 310 306 304 304 305 307 307 305 307 304 303 301 305 304 303 301 300 299 298 298 297 295 292 289 291 290 287 286 286 285 286 286 286 286 286 286 286 285 285 285 284
311 307 302 302 303 305 308 309 307 305 303 304 300 306 305 301 300 299 298 298 298 297 294 291 290 291 288 287 286 286 285 285 286 286 286 286 286 285 285 285 285 284 283
305 301 300 301 305 306 306 307 307 306 304 304 300 300 300 299 298 298 298 298 295 292 290 291 290 288 286 286 286 284 283 285 285 285 285 285 285 285 285 285 284 283 282
304 304 303 304 301 301 302 300 297 296 299 301 300 299 298 298 298 298 296 294 291 290 291 289 287 286 286 285 284 283 282 284 284 284 284 284 285 284 285 284 283 282 283
300 299 298 297 296 298 302 302 301 299 299 298 298 298 298 298 297 295 293 290 290 290 289 287 286 285 285 284 283 283 284 284 284 284 284 284 284 284 283 282 282 282 283
301 300 301 299 298 300 302 303 299 298 299 299 299 298 297 296 294 292 290 290 290 289 287 285 285 284 284 283 283 283 284 284 284 283 284 283 283 283 281 281 282 282 281
299 300 300 300 300 300 300 302 300 299 299 299 298 297 295 293 290 290 290 290 288 286 285 284 284 283 283 283 282 282 282 283 283 283 282 282 282 281 281 281 281 281 281
298 300 302 302 301 299 300 299 299 298 299 298 296 294 291 289 290 290 289 287 286 284 284 283 283 281 281 281 281 282 282 282 282 282 281 281 281 281 280 281 281 281 281
300 302 301 301 299 299 299 298 298 297 297 296 293 290 289 289 289 288 287 286 285 284 283 283 281 281 280 280 280 281 282 282 282 281 280 280 280 280 280 280 281 282 282

GFSMW_850_thetae_018.txt.gz
Theta_e
320 320 322 322 321 321 322 325 325 325 329 337 337 334 336 336 335 334 334 333 331 329 328 327 326 325 310 312 312 312 312 311 310 306 303 303 302 301 301 303 303 299 298
318 318 319 320 322 322 321 323 325 325 325 332 336 333 334 336 335 334 334 334 330 329 328 326 325 318 311 312 312 312 312 312 310 307 303 302 301 301 301 300 299 299 298
316 316 317 318 320 321 322 322 323 324 325 325 335 337 336 336 334 334 334 333 330 329 328 326 324 311 312 312 312 312 311 311 310 307 303 300 301 301 299 299 298 298 297
315 315 315 316 318 319 321 323 324 324 325 327 334 332 331 333 333 333 333 331 329 329 327 325 319 310 312 312 312 311 311 310 309 307 302 299 298 297 297 298 298 297 297
315 315 315 314 315 316 319 320 322 324 326 330 333 332 332 332 332 332 330 329 329 328 324 323 314 311 312 312 311 311 310 309 308 306 302 298 297 296 296 296 296 296 296
314 314 314 315 315 315 315 320 321 323 329 332 335 333 330 331 331 330 328 328 328 325 321 319 311 311 311 311 310 309 309 308 307 304 301 298 296 295 295 294 295 294 295
313 313 316 316 316 316 316 315 321 323 327 332 335 333 329 327 327 329 329 328 326 322 321 318 310 310 311 310 309 308 308 307 305 303 299 296 295 294 294 293 293 293 293
312 316 316 316 316 316 315 317 319 324 328 332 333 332 329 328 326 329 330 328 327 323 318 314 309 310 310 309 308 307 307 306 304 301 298 296 295 294 293 292 292 291 291
313 315 315 316 316 317 317 318 322 323 325 331 333 330 328 326 326 327 328 327 325 320 316 311 308 309 309 308 307 306 306 304 302 299 296 294 293 292 292 291 291 290 289
312 314 314 315 314 316 316 319 322 322 326 330 329 327 326 326 326 327 326 324 323 319 312 310 307 308 307 306 305 305 304 302 299 296 294 293 292 292 291 290 290 288 288
313 314 314 315 314 316 317 319 321 322 326 328 326 325 325 325 326 323 322 323 321 312 310 308 307 306 306 305 305 304 303 300 297 294 292 291 291 291 291 289 288 287 287
311 312 312 314 314 317 318 321 321 325 327 325 324 324 325 324 320 320 320 317 312 309 307 305 305 305 305 304 304 302 300 297 294 292 291 291 291 290 289 288 287 287 287
311 311 312 314 314 319 320 322 324 325 325 323 322 323 321 319 316 315 313 309 308 305 304 304 304 304 303 303 301 300 296 293 291 291 291 291 290 289 288 287 287 286 286
312 311 314 315 316 319 320 322 322 323 323 321 320 318 313 314 314 312 307 309 305 304 303 303 303 303 302 302 300 296 293 291 291 291 290 289 288 288 287 287 287 287 286
312 313 314 314 316 319 321 316 321 317 317 317 313 311 311 308 309 306 306 304 302 303 302 302 302 302 302 300 296 292 291 291 291 289 287 288 288 287 287 287 287 287 287
312 312 313 315 317 319 317 315 314 315 313 310 306 306 304 301 304 302 302 301 302 301 302 302 303 302 301 296 292 291 291 290 288 287 287 287 286 286 287 287 287 287 287
311 312 313 314 315 312 312 312 310 306 303 303 302 301 300 302 298 302 303 300 302 303 302 301 301 299 297 292 291 290 288 287 287 286 286 286 286 286 286 285 286 285 285
311 312 312 310 310 309 309 307 303 301 301 302 300 301 307 303 299 300 300 302 301 300 301 302 300 295 291 292 290 288 287 287 286 285 286 286 286 285 286 286 286 285 285
310 309 308 308 305 303 303 301 300 301 301 302 305 304 298 299 302 303 301 300 300 301 302 298 292 291 290 289 288 287 286 285 284 284 285 285 285 285 286 286 285 285 284
306 305 303 301 300 298 299 301 304 307 307 304 301 306 304 299 298 300 300 301 300 299 295 291 291 290 288 287 286 286 285 283 283 284 284 284 284 285 286 285 285 284 283
299 300 299 299 299 300 303 305 305 309 309 306 300 301 299 298 299 299 299 299 296 292 291 290 288 287 286 286 285 284 283 284 284 284 284 284 284 285 285 285 284 283 283
301 301 302 302 302 305 303 296 298 301 299 297 295 297 297 298 299 299 297 293 291 291 290 288 286 285 285 285 284 284 284 284 284 284 283 283 284 284 283 283 282 283 283
296 296 295 295 296 300 298 298 297 295 295 296 296 297 299 300 297 293 291 291 290 289 288 286 286 285 284 283 283 282 282 282 283 283 283 283 283 282 282 281 282 282 281
296 296 297 296 296 296 296 295 295 296 298 300 300 299 296 293 290 290 291 290 289 287 286 285 285 284 283 282 281 281 281 281 282 282 282 282 281 281 281 281 281 281 282
297 298 299 298 296 296 296 297 297 298 299 298 296 293 291 290 290 290 290 288 287 286 285 284 284 282 281 281 281 281 282 282 283 283 282 281 280 280 280 281 282 282 283
297 298 298 299 297 297 297 296 297 297 297 296 294 291 290 290 290 290 289 287 286 285 284 283 282 281 281 281 281 281 282 282 282 281 280 280 280 280 280 281 282 283 283

GFSMW_850_thetae_021.txt.gz
Theta_e
320 321 320 320 321 320 321 322 326 330 334 333 334 336 335 338 336 335 334 334 332 330 331 328 326 325 325 314 312 312 313 312 311 309 305 303 302 302 302 302 302 302 299
318 319 319 319 319 321 320 321 321 326 332 334 331 329 334 335 335 335 334 333 332 331 331 328 327 326 325 311 312 313 313 312 312 310 306 303 302 302 302 301 300 300 299
316 316 317 317 318 319 320 321 321 321 329 332 329 328 333 332 335 335 333 332 332 332 330 328 326 325 321 311 313 313 313 312 312 311 308 303 301 301 299 299 299 298 298
315 315 315 315 316 316 317 319 321 322 325 327 328 328 329 331 334 333 333 332 332 332 329 328 326 323 316 312 313 313 312 312 311 310 309 305 302 299 299 298 298 298 297
315 315 314 314 314 314 316 317 319 320 324 324 325 326 327 328 330 332 332 332 332 331 329 326 325 318 311 312 313 312 312 311 311 310 308 305 301 299 297 297 298 297 297
314 313 314 314 315 315 315 315 316 320 321 324 325 325 327 327 330 332 332 332 330 328 328 326 324 315 311 312 312 312 311 310 310 309 307 304 300 297 296 295 295 295 295
312 312 313 313 314 315 315 315 315 315 319 321 324 326 327 327 328 331 331 331 329 328 326 323 323 313 311 311 311 311 310 309 309 308 306 303 298 296 295 294 293 293 294
312 311 313 315 315 315 315 315 315 315 315 321 324 327 328 330 331 330 331 329 328 327 324 324 318 311 310 310 309 309 309 308 308 306 304 300 296 295 294 293 292 292 292
311 312 315 315 315 314 314 313 316 316 316 318 326 328 329 330 329 331 330 327 326 325 322 320 313 309 309 309 308 308 307 307 306 305 302 298 295 293 292 292 291 291 289
310 314 314 314 314 313 312 312 315 317 317 319 326 327 327 328 329 329 326 325 325 324 318 314 310 308 308 307 307 307 306 306 305 303 299 295 293 292 291 292 291 290 288
311 313 314 313 312 310 310 311 316 316 319 321 325 326 327 327 329 326 324 324 323 319 313 312 312 307 307 305 306 305 305 304 303 299 295 292 291 292 292 291 290 288 287
311 311 311 311 310 310 310 313 317 320 320 321 324 324 325 326 325 324 322 322 321 312 311 309 306 305 306 304 305 304 304 302 299 294 292 291 292 291 290 289 288 288 287
310 311 312 312 311 311 311 312 319 320 320 321 323 324 325 324 322 322 320 316 315 312 311 304 304 304 303 304 303 303 302 298 295 292 291 292 291 290 289 288 288 287 287
311 311 313 314 315 314 313 315 320 321 321 322 323 324 322 320 322 317 314 314 310 309 304 304 304 303 303 303 303 302 299 294 292 292 291 289 288 288 288 287 287 287 287
311 310 312 313 314 315 315 317 318 319 320 322 320 321 317 313 309 309 307 305 306 306 305 302 302 302 302 302 303 298 294 292 292 290 288 287 287 287 287 287 287 287 287
311 311 311 311 314 316 316 315 312 310 314 316 316 312 309 305 304 303 302 305 300 301 301 300 302 301 302 302 296 293 292 292 290 289 288 287 287 286 286 286 286 287 286
311 311 311 311 312 312 313 308 311 308 307 310 309 306 303 302 302 303 300 298 299 298 299 301 300 301 300 296 293 292 291 289 288 288 286 286 286 286 285 285 286 286 286
310 310 309 309 308 308 307 306 309 303 307 306 304 303 302 301 301 301 302 300 304 300 301 300 299 297 293 292 292 291 289 288 287 286 285 285 285 285 285 286 286 286 285
304 306 307 308 306 304 303 304 302 302 301 298 298 299 302 304 306 306 304 300 303 302 298 296 292 291 292 291 290 289 288 287 286 284 284 284 284 284 285 286 286 285 285
302 303 303 302 303 301 301 301 301 301 302 304 304 306 307 307 305 301 301 297 295 296 294 290 291 291 289 288 288 288 287 285 284 284 284 283 284 284 285 286 285 284 284
301 300 300 301 302 301 301 303 303 304 305 306 304 303 301 301 300 296 295 296 296 291 290 291 290 289 288 287 286 285 284 284 284 283 283 283 283 284 285 284 284 283 283
301 301 300 300 301 305 307 307 304 305 306 305 303 301 295 294 294 295 295 292 291 291 291 290 288 287 286 285 284 284 284 284 283 282 282 283 283 283 283 283 282 283 283
302 302 303 303 302 304 305 306 304 304 303 298 296 294 294 294 295 292 291 291 291 291 289 287 287 286 284 283 282 282 281 281 281 282 283 283 282 281 281 281 281 281 282
301 303 304 305 303 303 301 303 299 295 294 294 295 295 294 292 290 291 292 291 290 288 287 286 285 284 283 282 281 281 281 281 282 283 283 283 281 280 280 281 282 282 282
295 296 297 296 295 295 296 296 296 296 297 298 297 295 293 291 291 291 290 289 287 286 286 285 284 282 282 282 281 281 282 282 283 283 282 281 280 280 280 281 282 283 283
296 296 296 296 295 295 296 296 296 297 298 296 293 291 290 290 290 289 288 286 286 285 284 283 282 282 281 281 281 281 282 283 282 281 280 280 280 280 280 281 283 283 283

GFSMW_850_thetae_024.txt.gz
Theta_e
318 320 321 320 320 320 320 320 321 323 332 333 331 332 335 335 333 336 334 333 332 332 329 329 329 329 326 325 321 311 312 312 312 310 305 304 303 302 302 302 302 302 301
317 318 318 319 320 320 320 320 320 320 322 330 331 332 330 333 330 333 334 334 332 332 331 329 330 328 325 325 318 311 313 313 312 311 307 304 303 302 302 301 302 301 300
314 315 317 318 318 319 319 319 320 320 320 325 331 332 331 331 332 331 333 333 333 332 332 330 330 328 325 324 316 312 313 313 312 312 310 306 303 303 301 300 299 299 298
313 313 314 315 316 316 316 317 318 318 320 321 325 330 331 330 330 330 332 332 332 331 331 330 330 328 325 323 313 312 313 313 312 312 311 310 308 303 300 299 299 298 298
315 314 314 315 315 315 314 314 315 316 318 321 323 326 332 331 328 327 329 329 330 331 330 330 331 327 325 318 312 312 313 312 312 311 311 310 308 305 301 300 298 298 297
314 314 315 314 314 314 314 314 314 314 315 318 321 323 329 330 329 329 328 330 330 330 331 331 331 327 324 318 311 312 312 312 311 311 310 309 307 303 300 298 297 297 297
312 313 312 313 314 314 315 315 315 315 315 314 318 322 325 327 328 328 327 327 329 329 330 330 330 325 322 313 311 311 311 311 310 309 309 307 305 302 298 296 295 294 294
310 310 311 312 312 312 313 313 314 314 314 315 315 318 323 325 327 326 326 326 328 328 329 329 327 321 319 310 310 310 310 309 309 308 308 306 303 299 296 295 293 292 292
311 311 310 311 314 315 315 314 313 313 314 314 315 316 319 324 325 325 326 327 327 328 329 326 325 316 312 309 309 309 308 308 307 307 306 304 301 297 295 293 292 291 290
311 311 311 314 314 314 314 313 312 312 312 314 315 316 318 323 326 326 327 327 328 328 328 324 321 316 309 306 307 309 307 307 305 306 305 302 297 294 293 292 292 291 290
312 312 311 311 313 313 311 311 310 310 310 313 316 317 319 325 326 327 326 327 327 328 325 323 318 310 307 309 307 306 304 306 303 304 302 298 295 293 292 292 291 290 289
314 313 311 311 310 312 311 310 310 309 310 314 317 319 320 322 325 326 326 327 327 326 322 320 313 308 307 306 309 306 303 304 302 302 299 295 293 292 292 291 289 288 288
312 312 311 311 313 314 314 313 311 310 312 316 319 322 321 323 324 325 326 325 324 322 317 314 309 306 306 305 304 301 302 302 301 298 295 293 292 291 290 288 288 288 287
311 312 311 310 311 312 314 313 312 311 314 319 318 320 321 323 323 324 324 322 320 317 310 306 304 305 303 299 299 301 300 301 299 295 293 292 290 288 288 288 287 287 287
311 311 311 310 310 311 312 313 313 314 317 317 317 320 321 320 321 320 317 316 309 305 303 306 304 300 300 300 298 300 300 297 294 293 291 289 288 287 287 286 287 287 287
311 311 310 311 311 311 312 314 313 312 312 313 314 315 315 314 316 312 309 307 304 303 304 298 298 300 297 299 300 298 293 293 292 290 289 288 287 286 286 286 286 286 287
308 309 311 310 310 310 311 311 310 308 308 311 307 307 311 309 303 304 302 302 301 299 300 300 299 297 297 298 300 292 292 291 289 288 288 287 286 285 285 285 285 285 286
306 305 305 306 307 308 308 307 305 302 303 304 303 303 304 301 301 301 300 301 301 301 301 298 299 300 301 296 292 291 289 288 288 287 286 285 284 284 284 285 285 285 285
303 304 303 305 305 305 307 304 303 301 300 301 299 298 300 302 302 302 302 303 303 302 300 299 300 296 291 291 290 289 288 287 286 286 285 284 283 283 285 285 285 285 285
301 302 302 302 301 301 301 301 299 299 299 299 299 302 304 304 303 303 303 302 300 300 295 293 291 291 290 288 287 288 287 286 285 284 283 283 282 283 285 285 285 284 283
299 299 299 299 298 298 298 299 299 299 299 300 301 302 303 302 301 300 300 298 296 294 292 290 290 289 287 286 286 285 285 284 284 283 282 282 282 284 284 284 283 283 283
299 299 302 300 300 300 302 301 301 300 301 302 302 303 302 301 299 296 293 293 293 290 290 289 288 287 286 286 285 284 283 282 282 282 282 282 283 283 282 282 281 282 282
303 302 302 302 303 303 305 305 302 301 303 303 300 297 295 295 296 294 292 291 291 290 289 287 286 285 286 285 284 283 281 281 281 282 283 283 283 282 281 280 281 281 282
305 305 304 304 304 303 304 305 303 299 297 298 297 295 296 295 292 290 290 290 289 287 286 286 286 285 284 283 282 282 282 282 282 283 283 283 281 280 280 281 281 282 283
303 304 305 304 302 300 297 297 296 296 298 298 296 295 292 290 290 290 290 289 288 287 286 286 285 283 282 282 282 282 282 283 283 283 282 281 280 280 281 281 283 283 283
299 299 300 299 297 296 299 299 297 296 298 296 292 290 290 290 290 289 288 287 287 286 285 283 282 282 282 282 282 281 282 282 282 281 280 280 280 280 280 282 283 283 284

GFSMW_850_thetae_027.txt.gz
Theta_e
318 319 319 319 320 320 319 321 320 321 321 330 334 334 332 333 338 336 334 333 334 332 331 330 328 328 328 328 326 324 315 310 311 309 306 304 303 303 302 302 302 302 302
317 317 319 319 319 319 320 320 320 319 319 320 328 332 333 331 333 333 333 331 333 332 331 331 328 327 327 329 325 324 313 311 312 310 307 304 304 303 302 302 302 302 302
314 315 315 316 318 318 319 319 319 319 319 319 320 331 333 332 331 332 335 332 334 332 331 331 331 329 328 329 325 324 312 312 312 312 309 306 305 304 303 302 301 301 300
313 314 314 313 313 315 317 316 317 317 317 318 319 323 326 330 330 330 328 330 333 331 332 331 330 330 330 330 326 323 313 312 313 312 311 311 309 306 303 301 300 299 299
311 313 314 314 314 314 314 315 315 315 315 315 316 320 322 330 329 330 330 329 329 328 330 331 330 331 329 329 326 323 311 312 313 312 312 311 310 308 306 302 301 299 298
311 311 312 313 314 314 314 314 314 314 314 314 315 316 321 325 328 330 330 328 327 328 328 328 329 330 330 329 327 320 311 312 312 312 311 311 310 309 307 304 301 299 298
311 311 311 310 312 314 314 314 314 314 314 314 313 315 317 322 325 326 330 330 327 327 327 327 329 328 329 329 326 316 311 312 311 311 310 310 309 308 306 303 299 297 297
311 311 311 311 311 311 314 313 312 312 314 314 314 314 315 316 321 323 326 328 329 326 326 326 327 328 328 327 326 312 310 310 310 310 309 308 307 306 305 301 297 295 294
312 313 313 313 312 311 313 314 314 314 313 313 312 313 314 314 316 321 324 326 327 328 326 325 326 327 325 325 322 310 309 309 309 308 307 307 307 304 301 299 296 293 292
313 315 314 314 313 311 314 314 313 312 312 312 311 311 312 314 315 316 323 325 326 326 327 325 326 325 323 320 316 308 307 307 306 308 306 307 306 300 297 295 294 293 292
315 314 314 314 313 312 311 312 312 310 310 311 310 311 312 314 315 316 317 326 327 327 326 326 326 323 322 316 309 307 305 306 307 304 303 304 303 298 294 293 293 292 291
314 314 313 312 311 312 312 310 312 312 311 310 310 310 314 316 318 319 320 325 326 326 326 325 324 320 311 308 307 303 308 306 304 306 305 300 299 295 292 293 292 290 289
312 312 312 311 311 311 311 312 313 313 312 310 310 311 313 317 319 320 323 325 325 324 324 323 317 309 307 306 303 307 305 306 305 303 299 296 295 293 292 291 289 288 288
311 311 312 310 311 311 311 311 311 311 311 311 311 312 317 319 320 321 322 321 321 319 317 314 312 307 305 304 305 304 304 301 299 298 298 294 292 291 289 288 288 287 287
306 308 310 311 310 310 310 310 310 311 311 312 314 316 318 318 318 318 319 315 315 314 313 310 304 304 303 302 302 301 298 299 299 294 293 290 289 288 288 287 287 287 287
304 307 308 310 310 310 310 311 311 313 312 311 312 312 312 313 314 315 316 311 308 306 305 302 302 302 302 302 302 300 298 296 292 294 290 288 287 287 286 286 286 286 286
301 302 304 306 307 308 308 309 310 309 308 308 308 307 308 309 308 307 307 304 304 303 302 302 303 301 299 301 298 296 296 297 290 289 288 287 287 286 285 284 284 284 284
302 301 301 302 304 305 305 303 304 304 302 303 306 304 302 302 301 300 300 301 301 302 302 302 301 301 301 300 299 298 292 288 287 287 287 286 285 284 284 284 285 285 285
301 301 300 301 302 302 301 300 299 300 299 300 300 300 300 300 301 302 301 302 302 303 302 302 300 298 298 297 295 288 287 287 287 286 285 284 283 283 283 285 285 285 285
300 300 300 300 300 300 299 299 298 297 298 297 299 300 299 299 299 301 300 300 301 300 299 298 299 295 291 288 287 287 287 287 286 285 284 283 282 282 285 285 285 284 283
299 299 299 299 298 298 298 299 298 297 297 298 299 299 299 300 300 300 299 301 300 300 299 295 291 289 288 288 286 285 285 285 284 283 282 282 282 283 284 284 283 282 283
302 301 301 301 300 300 300 300 300 299 300 300 300 299 299 299 299 300 300 298 295 292 290 289 289 288 287 286 286 285 283 282 282 282 282 282 284 283 283 282 281 281 282
305 304 304 303 302 302 302 303 301 300 300 300 300 299 297 295 294 296 294 291 290 290 289 288 287 287 286 285 284 282 281 282 282 283 283 283 283 282 281 281 281 281 281
306 305 305 304 303 302 302 303 302 301 299 296 294 294 294 293 291 290 290 290 289 288 287 286 285 285 284 282 282 282 283 283 283 283 283 283 282 280 280 280 280 282 282
306 305 305 305 304 302 300 297 295 295 296 296 295 293 292 290 290 290 289 288 287 286 286 285 284 283 283 283 283 283 283 283 283 283 282 281 280 280 280 281 282 283 283
306 305 303 301 297 296 297 297 295 295 297 296 293 291 291 290 290 289 289 288 287 287 286 285 284 283 283 282 282 281 282 282 281 281 280 280 280 280 280 281 283 283 284

GFSMW_850_thetae_030.txt.gz
Theta_e
318 318 318 318 318 318 319 318 319 320 321 321 322 329 335 334 334 332 335 335 334 332 332 332 331 328 324 325 327 326 324 323 311 309 307 306 304 303 303 302 302 302 302
316 316 316 316 316 318 318 319 319 319 319 320 321 322 326 332 331 331 330 331 334 333 332 330 330 328 327 326 326 326 325 323 311 310 308 305 305 304 303 303 303 302 302
311 312 312 312 313 314 316 317 319 319 319 319 319 320 323 329 334 333 332 329 332 333 333 332 330 329 327 327 327 327 326 323 313 311 309 307 307 306 304 303 303 303 302
308 309 310 312 313 313 313 314 316 317 317 317 318 318 319 320 324 326 329 330 329 330 332 332 330 329 329 328 328 328 327 324 315 311 311 310 309 306 306 305 304 303 302
310 311 311 311 311 313 313 313 314 315 316 316 316 316 317 318 322 325 329 329 330 329 327 330 330 330 330 329 330 329 328 324 314 312 312 312 311 310 309 307 307 304 302
310 311 311 311 311 311 313 313 313 314 314 314 314 315 315 316 318 324 328 328 330 329 329 327 328 328 329 330 329 329 328 325 316 311 312 312 312 311 310 309 308 305 302
312 312 313 313 312 311 311 313 313 314 313 313 313 313 314 314 316 319 321 323 329 329 329 328 327 327 327 328 329 328 325 324 315 310 311 311 311 311 310 309 307 305 302
313 314 315 314 315 314 312 311 312 314 314 314 314 314 314 314 314 318 324 322 324 325 328 329 327 326 326 327 328 327 324 320 313 312 308 309 309 309 309 308 305 301 299
313 314 315 315 314 314 314 312 313 314 314 312 312 313 313 313 313 314 315 318 323 324 326 327 329 327 326 327 327 326 323 318 314 312 309 307 307 307 307 307 308 299 295
313 314 314 314 313 312 312 313 311 312 313 311 311 311 311 312 311 313 314 315 319 323 323 326 327 328 326 326 326 322 320 313 312 308 309 306 307 305 303 302 301 296 294
314 314 312 312 312 311 311 311 311 310 312 311 310 310 310 310 310 312 314 316 319 323 326 325 326 327 326 323 321 319 314 308 305 304 307 306 304 304 304 297 296 294 293
312 312 311 311 311 311 311 311 311 313 313 312 311 310 310 309 310 314 315 317 321 323 325 325 325 324 323 320 317 312 308 305 303 305 306 306 301 304 303 301 294 292 291
310 310 311 311 311 310 310 310 311 311 311 310 310 310 310 310 311 314 318 319 321 322 322 321 321 321 320 318 311 307 305 301 304 304 304 303 296 296 296 293 292 290 289
308 307 309 309 310 310 310 310 310 310 311 310 310 310 311 313 314 317 318 317 319 319 317 318 318 318 314 308 305 302 302 304 304 304 302 297 295 296 295 291 290 288 288
306 304 304 306 308 308 309 310 310 310 310 310 310 311 311 314 315 316 316 317 318 318 315 315 313 308 305 302 303 304 303 302 302 301 298 293 293 295 292 289 288 287 287
303 303 303 303 305 305 305 305 306 307 308 309 308 309 311 311 313 313 313 313 314 313 311 306 305 303 303 303 302 303 302 302 300 300 296 297 291 288 288 287 286 285 285
302 302 302 302 303 303 303 303 304 303 303 304 306 307 308 309 310 309 308 306 306 304 304 303 302 301 302 302 302 302 302 301 299 299 294 287 288 287 286 285 284 284 284
301 301 302 301 300 301 301 301 301 300 300 300 301 302 303 304 304 303 303 302 301 299 300 300 301 302 301 300 300 299 299 300 293 286 287 287 287 286 284 283 284 285 285
300 301 300 299 299 299 299 300 299 298 298 297 298 299 299 301 300 300 301 301 300 300 300 299 299 299 299 298 298 299 292 287 287 287 287 286 285 283 283 284 285 285 285
302 302 300 299 298 298 298 298 298 297 298 297 297 298 299 299 299 298 299 299 299 298 298 298 298 298 298 294 288 288 287 287 287 286 285 283 282 282 284 285 285 284 283
305 305 304 302 300 298 298 298 298 298 298 298 298 298 299 299 299 299 299 298 299 299 299 299 296 290 289 289 287 287 286 286 285 283 282 282 282 283 285 284 283 282 282
307 307 307 305 302 300 300 300 300 298 299 300 299 299 299 298 298 298 297 297 295 291 290 290 289 288 287 286 286 285 284 283 282 282 283 283 283 284 283 282 281 281 281
307 307 307 306 305 303 302 302 301 300 300 300 300 299 297 296 295 294 291 290 289 289 289 288 287 286 285 285 284 283 282 282 282 282 283 283 283 282 281 280 280 280 281
306 306 307 306 305 303 302 302 301 301 300 298 295 295 294 291 290 290 289 289 289 288 287 286 286 285 285 284 283 283 283 283 283 283 282 282 281 280 280 280 280 281 282
306 305 305 306 304 302 300 298 296 295 296 296 294 292 290 290 290 290 289 288 287 287 286 286 285 284 283 283 283 283 282 282 282 282 281 280 280 280 280 281 281 283 283
305 305 304 303 300 297 297 296 295 294 295 294 291 290 290 290 289 288 288 287 287 286 285 284 283 282 282 282 282 281 281 281 280 280 280 280 280 280 281 282 283 284 284

GFSMW_850_thetae_033.txt.gz
Theta_e
316 316 316 316 316 317 318 318 318 318 322 324 326 324 323 327 331 331 332 332 333 334 333 327 320 323 328 327 322 326 326 325 323 316 308 307 306 304 303 303 303 302 302
311 311 311 312 314 315 315 316 317 318 318 320 321 321 322 322 324 330 330 331 330 330 333 331 326 328 330 327 323 325 325 325 323 315 308 306 306 305 303 303 303 303 303
308 310 310 311 312 312 313 314 316 317 319 319 318 319 319 321 322 324 329 330 329 328 329 330 330 330 330 327 326 326 325 325 325 320 310 308 308 307 305 304 303 303 303
311 311 312 311 311 312 313 313 313 316 317 318 318 318 318 320 320 321 322 325 330 330 329 329 331 329 329 328 327 326 326 326 326 321 313 310 310 308 307 306 304 303 304
311 313 313 312 312 311 312 312 312 313 314 315 316 317 318 318 318 319 321 322 325 331 331 329 328 330 329 328 328 327 327 327 327 324 320 311 310 310 309 310 308 306 305
313 314 314 314 313 312 311 311 313 312 313 314 314 315 316 316 316 316 317 318 320 327 330 330 328 329 328 328 328 328 328 328 328 325 321 313 311 311 310 309 310 309 306
313 314 315 315 314 314 313 312 311 312 313 313 313 313 313 314 317 316 316 319 319 321 322 327 328 328 328 327 327 328 328 328 327 326 319 311 311 311 310 310 310 309 306
313 314 314 314 313 313 314 314 313 311 311 313 313 313 312 312 313 313 314 315 318 322 324 323 325 328 328 328 326 327 328 327 326 324 317 311 310 310 311 311 308 307 305
313 314 314 313 313 313 312 312 312 313 312 313 313 313 313 313 314 314 314 315 318 320 322 325 324 325 326 327 327 326 327 326 324 322 317 309 308 311 311 308 307 304 303
312 313 313 312 312 312 311 311 311 311 312 311 312 311 311 311 312 312 312 313 314 316 320 325 326 325 326 327 328 327 326 323 320 317 313 309 309 310 307 306 306 302 300
313 311 311 311 311 311 310 310 311 311 311 312 312 312 311 310 310 310 310 311 312 314 319 322 325 326 326 326 326 325 324 321 316 312 308 309 308 306 303 303 304 299 295
311 310 310 309 310 310 310 310 309 310 311 311 310 310 310 310 309 310 310 313 315 315 318 321 322 323 324 324 322 322 321 321 310 307 306 305 303 304 305 302 301 298 295
309 309 309 308 308 310 309 309 310 310 310 310 311 310 310 310 311 311 311 314 316 317 318 320 321 320 320 320 319 318 315 310 306 306 304 303 304 304 302 303 294 294 292
307 305 305 305 307 308 308 309 309 310 310 309 310 310 310 310 310 311 310 313 316 316 317 318 319 319 317 316 315 313 307 304 303 303 303 304 303 302 298 299 299 298 292
305 304 304 304 306 306 306 307 308 308 308 309 309 310 311 310 311 310 311 312 313 313 313 315 316 316 312 309 306 302 301 302 302 302 302 300 300 300 299 300 293 289 288
303 303 302 302 303 304 304 305 305 306 306 307 308 308 309 310 310 310 310 311 311 311 309 309 308 309 305 302 299 301 301 302 303 302 301 300 300 299 295 288 287 286 286
301 301 300 300 301 301 301 301 302 302 302 302 303 304 305 306 306 306 306 307 306 305 303 303 301 300 300 300 300 301 302 301 300 299 298 299 293 287 286 286 286 285 284
301 300 299 299 299 299 299 299 298 300 300 299 300 301 301 303 302 301 301 301 301 302 302 301 299 299 299 299 300 300 299 299 298 299 295 287 286 286 286 285 284 284 284
302 300 300 299 299 298 297 297 297 299 298 298 299 299 299 299 299 299 299 299 299 299 299 299 299 299 298 297 299 299 299 300 292 288 286 286 285 284 284 283 284 285 285
305 303 303 301 300 298 298 298 298 298 297 298 298 298 299 299 299 298 298 297 297 298 298 297 297 297 298 298 297 291 287 287 287 286 285 284 284 284 283 285 285 285 284
305 304 303 304 302 300 299 299 300 298 298 298 298 298 298 298 298 298 298 297 298 297 297 298 297 296 292 288 287 287 288 286 285 284 283 283 283 283 285 284 284 282 282
306 306 305 305 304 303 302 302 301 300 299 299 298 298 298 298 298 298 297 297 296 294 291 289 289 288 287 286 286 285 284 283 283 283 283 283 283 284 283 282 281 281 281
307 306 305 305 304 303 303 302 301 300 300 299 298 298 296 295 292 291 290 290 290 289 289 288 287 286 286 285 284 283 282 282 283 283 283 283 282 281 281 280 280 280 281
307 307 306 305 304 303 301 300 299 298 296 296 295 293 291 290 290 290 290 289 288 287 286 286 286 285 284 283 283 283 283 283 283 282 282 281 281 280 280 280 280 281 282
307 306 306 306 304 301 301 299 297 296 296 294 292 291 290 290 290 289 288 287 287 286 286 285 284 283 283 283 283 282 282 282 282 281 281 280 280 280 280 281 282 283 284
307 306 306 304 301 299 298 298 297 295 294 292 291 290 290 290 289 288 287 287 286 285 284 283 283 282 282 282 281 281 281 281 281 280 280 280 280 280 281 283 284 284 284

GFSMW_850_thetae_036.txt.gz
Theta_e
316 314 315 316 316 317 317 317 317 317 318 330 329 330 335 332 331 329 333 333 332 333 334 333 331 325 321 322 322 325 324 325 325 322 319 313 307 306 304 304 303 303 303
312 310 311 312 313 315 316 316 317 317 318 318 326 324 330 333 333 327 326 331 331 330 331 332 333 331 324 321 322 327 325 324 325 323 312 308 307 306 305 304 303 303 303
312 312 313 312 311 312 312 314 315 316 317 317 318 325 327 325 325 324 323 324 328 330 331 329 331 331 330 324 325 329 326 323 325 325 319 310 311 307 306 305 304 303 303
312 313 314 313 312 311 312 312 313 313 314 316 316 324 329 325 320 321 321 321 322 329 331 329 331 330 329 329 328 329 327 324 325 324 324 321 312 309 307 306 305 304 304
312 313 314 314 313 313 312 311 312 313 312 313 315 321 328 328 328 328 322 319 319 322 327 328 328 329 329 329 328 329 327 326 326 325 325 322 316 310 309 308 308 306 305
312 313 315 314 314 314 314 313 312 312 312 312 312 314 322 327 328 329 329 326 323 319 320 324 326 327 329 329 327 328 328 327 326 326 325 325 323 316 309 308 308 309 307
312 314 315 314 314 314 314 314 314 313 311 313 312 312 313 317 327 328 328 327 324 318 318 319 322 325 327 328 328 328 328 327 327 326 326 325 322 319 313 310 309 308 307
313 314 314 314 313 313 313 313 313 313 313 312 312 313 313 312 312 317 323 326 327 325 316 320 324 325 326 326 327 327 327 327 327 327 326 325 322 316 310 310 309 307 306
313 314 313 312 312 312 311 311 311 311 311 312 311 312 312 312 312 313 314 313 318 321 321 318 323 327 327 327 327 326 326 327 327 327 327 325 321 314 310 308 307 307 306
314 313 311 310 311 311 311 310 310 310 311 311 312 311 312 312 311 311 312 313 314 317 317 318 318 322 326 326 325 326 326 326 326 326 326 320 313 311 308 306 308 309 310
313 310 308 308 309 310 310 310 310 310 310 311 311 311 311 311 311 310 310 311 312 312 314 316 318 320 321 323 324 324 324 323 323 322 321 315 318 308 305 307 308 309 305
310 308 306 307 308 309 310 309 309 309 310 310 311 311 310 310 310 310 310 311 312 313 314 315 320 321 322 323 322 322 322 322 322 320 317 313 308 305 305 304 304 304 304
308 307 305 304 305 307 308 308 309 309 310 310 310 310 311 310 310 310 312 313 314 315 315 316 319 318 318 319 320 319 317 317 317 316 311 305 303 303 303 304 304 302 301
307 305 304 304 304 306 306 307 307 307 308 309 309 309 310 310 311 310 310 310 311 311 313 314 315 316 315 315 316 317 315 312 311 308 304 304 302 303 303 302 300 300 299
305 304 303 302 302 302 303 305 306 306 306 306 307 308 308 309 310 310 310 310 310 310 310 313 314 314 312 310 311 310 310 308 305 302 301 301 302 302 301 300 300 299 297
304 302 301 300 299 300 301 301 301 302 302 303 305 306 307 307 307 309 309 310 311 311 311 313 310 308 306 304 302 301 302 300 300 301 302 302 301 300 299 298 299 296 289
302 301 300 298 298 298 299 298 299 300 301 301 302 303 304 305 307 307 307 307 308 308 306 304 303 303 302 300 298 298 299 301 301 301 300 300 299 298 298 292 287 286 285
302 301 299 298 298 297 298 298 300 300 300 300 301 301 302 303 303 303 303 303 303 301 300 299 298 298 298 298 299 299 300 300 299 299 298 297 295 291 287 286 285 284 284
305 303 301 299 299 299 298 298 299 299 299 299 299 300 300 300 300 300 300 299 299 298 298 297 297 298 296 298 298 297 297 297 298 294 288 287 287 286 284 283 284 284 285
305 304 302 301 300 300 299 299 299 297 297 298 298 298 298 299 299 299 299 298 298 297 297 297 296 296 297 295 297 297 293 289 287 287 286 285 284 283 283 285 286 285 285
305 303 303 303 302 302 301 300 299 298 297 298 298 298 298 298 297 297 297 297 297 297 297 296 296 295 293 290 287 287 286 286 285 284 284 283 283 283 284 284 284 284 283
306 304 304 303 303 302 302 301 301 300 299 299 299 299 298 298 297 297 297 297 296 294 291 289 288 287 287 286 286 286 285 283 283 283 284 284 284 283 283 283 282 281 281
307 306 305 303 303 302 301 301 299 299 299 298 298 297 294 292 291 290 290 290 289 289 288 287 287 286 285 285 284 283 283 284 284 283 283 283 282 281 281 281 281 281 281
307 307 305 305 303 301 300 300 299 297 296 294 293 291 291 291 290 290 289 289 288 287 287 286 286 285 284 284 283 283 283 283 282 283 282 281 281 280 281 281 281 281 282
307 307 306 306 304 302 301 299 297 296 295 293 291 291 291 290 290 289 288 288 287 287 286 285 284 283 283 283 283 282 283 283 282 281 281 280 280 280 280 281 281 283 284
307 307 306 305 303 301 300 298 297 296 294 292 291 291 290 290 289 288 287 287 286 286 285 283 283 282 282 282 281 281 281 281 281 280 280 280 280 281 281 282 283 284 284

GFSMW_850_thetae_039.txt.gz
Theta_e
317 318 316 316 316 316 317 318 319 320 321 325 332 336 330 323 328 332 332 340 338 336 335 334 332 331 331 329 328 324 322 322 320 318 319 317 319 313 309 308 307 306 305
316 315 313 314 313 314 315 316 317 318 318 318 322 330 329 322 322 326 332 331 332 334 336 334 333 332 331 330 329 325 322 322 324 322 320 315 314 318 311 307 307 306 305
314 314 315 315 315 314 312 313 314 315 317 317 318 320 330 334 332 326 327 329 334 333 336 334 334 333 331 331 330 327 323 322 324 324 322 317 315 314 312 308 307 306 305
314 315 316 316 316 314 312 312 312 312 313 314 316 318 323 330 333 333 332 330 328 328 333 333 334 333 332 331 330 329 326 322 324 325 323 321 316 312 310 309 307 306 305
314 315 316 316 317 315 313 312 312 311 312 312 312 313 316 322 329 331 331 330 331 325 323 331 335 332 331 330 329 328 328 325 323 328 324 323 321 318 313 311 310 307 306
315 316 317 317 317 316 314 314 314 313 312 312 312 312 313 321 326 329 329 329 330 331 329 326 331 334 330 329 328 328 328 327 324 328 325 324 324 323 317 312 311 310 309
315 316 317 317 316 315 314 314 314 314 314 313 313 314 313 314 321 325 328 329 330 330 329 327 331 334 332 332 329 327 327 328 325 327 327 325 325 325 324 317 311 309 307
315 316 316 315 315 314 314 314 314 314 314 314 313 313 314 315 315 314 319 326 328 328 328 327 324 326 329 328 328 328 326 326 326 326 327 326 326 324 325 325 314 307 306
315 316 315 313 313 313 313 313 313 313 313 313 313 314 314 315 315 314 316 319 322 324 326 326 327 322 323 327 325 326 325 325 325 325 324 323 323 323 324 320 312 307 306
316 315 313 312 312 312 312 312 311 311 311 311 312 312 313 314 314 312 312 315 317 316 322 323 325 324 325 326 326 325 324 324 323 322 322 322 321 320 315 310 306 306 305
315 313 311 310 311 310 310 309 309 309 309 309 310 311 312 313 313 311 311 311 310 310 312 317 322 322 322 323 321 321 322 321 320 320 319 319 319 317 312 308 312 315 314
313 311 309 308 308 307 307 307 307 307 308 309 309 310 311 313 314 311 310 311 312 312 313 314 314 315 318 318 318 317 317 317 316 316 315 316 314 314 311 310 307 303 303
312 310 308 307 306 306 307 306 305 305 308 309 309 309 309 310 311 310 310 310 312 312 312 313 314 315 315 315 317 316 316 314 313 313 312 313 311 308 307 305 301 302 303
310 308 307 306 305 303 303 302 302 302 306 306 307 307 307 309 309 310 310 310 310 310 311 311 311 312 312 313 314 315 313 312 309 307 307 306 306 304 302 302 303 304 303
309 307 305 305 303 301 300 302 302 301 302 302 304 305 306 308 308 309 309 309 310 309 309 310 310 311 311 311 309 311 309 307 305 303 302 300 300 302 302 303 303 302 301
307 305 304 302 300 298 300 301 301 300 300 301 302 303 304 306 307 307 307 307 307 308 307 306 306 307 307 308 305 306 303 302 302 301 301 301 300 302 300 300 299 299 298
306 304 302 300 298 298 298 297 298 300 300 301 301 303 304 304 306 307 306 306 305 303 304 304 303 306 305 302 300 298 298 299 299 299 299 299 299 298 297 297 297 297 291
305 303 301 298 297 298 297 298 300 300 299 300 300 302 304 303 303 302 303 302 302 303 301 301 301 301 298 298 298 298 298 298 298 297 297 296 297 298 292 291 288 287 285
304 304 300 300 301 300 298 297 299 299 299 301 301 302 301 301 300 300 300 300 300 300 300 299 299 298 298 297 297 297 297 297 296 297 297 290 287 287 287 286 285 285 285
306 302 301 303 302 300 299 298 298 298 299 299 299 299 299 299 299 299 299 298 298 298 298 298 297 297 297 297 297 298 295 290 288 287 286 285 285 284 283 283 286 287 286
305 303 303 303 302 301 300 299 299 300 300 299 299 299 299 299 298 298 297 298 298 297 297 296 295 294 292 289 288 287 286 286 285 284 284 284 284 284 283 284 285 285 284
305 304 304 303 303 302 302 301 301 300 300 299 299 299 299 298 297 297 296 295 292 290 289 289 288 288 287 287 286 286 285 284 284 284 284 284 284 283 283 283 282 282 282
305 305 305 304 303 302 302 300 301 300 299 298 296 294 293 291 290 290 290 289 289 288 288 287 287 286 286 285 284 284 284 284 284 284 283 283 282 282 282 282 282 281 281
305 305 305 304 303 302 301 300 298 297 295 293 292 291 290 290 290 290 289 288 288 287 287 287 286 285 285 284 284 284 283 283 283 283 283 282 282 281 281 281 281 281 282
306 305 306 305 304 303 301 300 298 296 294 292 291 291 291 290 290 289 289 289 288 288 287 286 285 284 284 284 283 283 282 282 282 282 281 281 281 281 281 281 281 282 283
307 306 306 305 305 303 301 299 298 296 294 292 291 291 291 290 289 289 288 288 288 287 286 285 284 284 283 283 282 282 281 281 281 281 280 280 280 280 280 281 282 283 284

GFSMW_850_thetae_042.txt.gz
Theta_e
317 317 317 318 318 318 318 319 320 320 321 321 330 336 336 331 331 327 331 332 337 337 335 333 333 331 331 332 330 330 330 326 321 318 316 313 316 317 317 315 312 310 308
316 316 316 315 316 315 315 316 317 318 319 320 320 325 330 333 330 327 325 325 330 335 336 333 331 331 332 332 332 330 329 327 322 319 316 313 315 319 319 316 313 311 309
315 314 314 315 315 314 313 313 315 316 317 318 319 319 321 322 333 331 324 320 322 329 330 335 334 330 331 331 331 331 330 329 324 321 319 317 318 319 319 318 316 311 309
314 315 316 316 316 315 312 311 312 312 312 314 316 317 318 318 321 331 331 329 327 324 325 331 334 336 332 330 330 330 330 329 327 321 320 320 321 318 316 316 313 310 308
315 315 316 316 317 316 314 313 313 312 312 312 312 312 313 315 317 324 329 332 331 329 326 328 330 333 333 333 329 329 329 328 328 327 323 320 321 317 318 317 316 310 309
314 316 316 317 317 316 315 314 314 314 314 314 313 312 312 312 312 317 322 328 330 330 330 329 329 329 330 330 330 331 329 328 327 327 324 322 322 322 317 317 318 316 313
315 316 317 317 316 315 315 314 314 314 314 314 314 313 314 315 313 314 324 326 326 329 329 328 329 328 327 328 328 328 328 326 326 326 326 324 321 323 323 318 316 315 311
315 316 317 315 314 314 314 313 313 313 313 313 313 314 314 314 314 315 314 318 324 326 327 327 326 327 328 326 325 326 326 326 326 324 323 321 322 321 322 319 317 311 309
315 316 315 314 313 313 313 312 312 312 312 311 311 312 313 314 314 314 314 315 316 318 322 325 325 325 325 327 323 323 323 323 324 323 323 321 320 320 319 317 315 314 312
315 316 314 312 311 312 312 311 310 310 310 310 310 310 312 313 314 314 313 313 313 315 316 315 318 323 322 323 322 322 322 322 323 322 320 319 318 318 318 318 315 313 310
316 314 312 310 310 310 310 309 308 309 308 308 309 309 311 312 314 313 311 310 311 311 311 310 312 315 318 319 319 319 320 320 321 321 319 317 317 316 316 315 314 311 307
314 312 310 309 308 308 307 307 307 307 307 308 309 309 310 312 312 312 310 310 310 311 311 312 312 313 314 318 318 316 316 316 317 317 316 315 314 313 312 311 308 306 306
313 311 309 308 307 306 305 305 306 306 307 307 307 307 308 309 309 310 310 310 310 310 310 310 310 311 311 313 313 312 312 314 315 315 314 312 310 309 308 306 305 304 305
311 309 308 307 306 304 302 303 305 305 305 305 306 307 307 308 308 308 309 309 309 310 310 310 310 310 311 311 311 311 311 312 312 313 311 309 308 305 304 303 303 302 302
310 308 306 305 304 302 301 301 303 302 302 301 303 303 305 307 307 308 308 308 308 308 309 308 308 308 308 307 308 310 309 309 308 307 304 303 303 301 300 300 301 301 300
308 306 305 303 301 300 299 299 298 298 299 301 302 302 304 305 306 307 306 306 307 307 306 307 306 305 305 303 304 304 303 303 302 301 301 300 299 299 299 299 299 299 299
307 305 304 304 299 297 298 298 298 300 301 302 302 302 303 303 303 304 304 306 307 305 305 305 304 303 301 299 299 299 300 299 298 298 298 298 297 297 297 297 297 297 296
307 305 305 303 301 301 297 299 300 301 301 301 301 301 301 301 300 302 303 303 303 303 302 300 300 300 299 299 298 298 298 298 298 297 297 296 296 296 296 295 290 288 286
307 306 305 303 303 300 300 298 299 299 299 300 300 300 300 300 300 301 301 301 300 300 299 299 299 299 298 297 297 297 297 296 296 296 296 294 290 287 286 285 284 285 286
307 306 305 305 303 300 299 300 300 299 299 298 298 299 300 299 300 299 299 298 298 298 298 298 298 298 297 296 296 293 289 288 288 287 286 285 284 283 283 284 285 286 287
306 306 306 306 303 300 300 302 301 301 300 300 300 299 299 299 298 298 298 297 297 295 292 290 290 290 289 288 288 287 286 285 285 284 284 284 284 284 284 284 284 284 284
307 306 306 305 303 301 301 302 301 300 300 300 300 299 298 297 295 294 292 291 290 290 289 289 288 288 287 287 286 285 284 284 284 284 284 284 283 283 283 283 282 282 282
307 306 306 306 304 302 302 301 301 300 298 296 294 293 292 292 291 291 290 289 289 288 288 288 288 287 286 285 285 284 284 284 284 284 283 283 283 282 282 282 281 281 281
307 306 306 305 304 302 301 300 298 297 295 293 292 292 291 291 290 290 290 289 289 288 288 288 287 286 285 285 285 284 283 283 283 283 282 282 282 281 281 281 281 281 282
307 307 306 306 305 303 301 300 298 296 294 293 292 292 291 291 291 290 289 289 288 288 287 287 286 285 284 284 284 283 283 282 282 282 282 282 281 281 281 281 281 282 283
307 306 306 306 305 304 302 301 298 296 295 293 292 292 291 291 290 290 289 289 288 287 287 286 285 284 284 283 283 282 282 281 281 281 281 281 281 280 280 281 281 282 284

GFSMW_850_thetae_045.txt.gz
Theta_e
317 317 317 318 318 317 318 321 321 321 322 331 335 336 335 334 332 333 334 333 332 334 336 335 335 334 333 332 331 331 331 329 329 329 325 318 316 315 316 316 315 316 317
316 316 317 317 317 318 317 318 319 319 320 320 320 321 324 328 331 330 330 330 330 331 330 332 336 335 334 333 332 331 331 330 329 329 325 316 316 317 317 317 317 316 315
314 314 314 315 315 316 316 315 315 316 317 318 319 319 320 320 321 324 327 327 328 326 327 329 329 334 334 334 332 331 329 330 330 329 326 315 316 319 319 318 318 317 315
314 315 315 315 315 314 313 312 312 312 313 314 316 317 318 318 319 319 319 321 325 325 326 326 328 328 328 331 333 332 331 329 328 329 327 325 321 320 320 321 320 318 315
314 315 315 315 315 314 314 313 312 312 312 312 312 312 312 314 316 316 317 321 326 328 326 327 325 327 327 328 330 330 332 329 329 328 327 325 322 318 318 319 320 319 316
315 315 315 316 317 316 316 314 314 314 314 314 313 313 312 312 312 312 312 314 319 323 327 327 326 327 328 328 328 327 329 331 329 328 328 326 323 319 316 316 317 318 317
314 316 317 317 316 316 315 314 314 314 314 314 314 314 313 313 314 314 313 312 320 325 327 329 328 328 327 327 327 326 325 326 328 328 327 327 326 322 320 318 316 315 315
315 315 316 316 315 314 314 313 313 313 313 313 313 313 313 314 313 314 314 314 314 319 321 324 324 325 326 325 325 326 325 324 325 325 327 326 325 324 322 319 317 314 312
315 316 316 315 314 313 313 312 312 312 312 311 311 311 311 312 313 313 314 314 314 314 315 319 322 323 322 324 323 322 322 322 321 322 322 321 321 321 321 321 318 316 312
315 315 315 314 312 311 312 311 311 310 310 310 309 309 310 312 312 312 313 313 313 313 313 314 316 316 316 319 321 321 320 320 319 320 319 321 322 321 320 318 318 315 312
315 315 314 312 311 310 310 310 309 309 309 308 308 308 309 311 312 312 312 310 310 310 311 311 311 311 312 316 316 314 317 317 318 318 317 317 317 317 317 316 314 312 310
315 314 312 311 309 309 308 308 308 308 308 308 308 309 309 310 311 310 311 310 310 310 310 310 310 310 310 312 313 315 315 315 313 313 314 315 315 313 313 313 313 311 307
314 313 311 309 308 307 307 307 306 306 306 307 307 308 308 308 309 309 309 309 309 310 310 310 310 310 310 310 311 311 311 311 311 312 312 312 311 310 311 310 310 308 305
313 311 309 308 306 306 305 305 305 304 304 305 305 306 307 307 308 308 308 308 309 309 309 309 309 309 309 309 310 309 309 308 308 309 308 308 309 309 307 305 304 304 303
312 310 308 307 306 304 303 301 300 301 302 302 303 304 305 306 307 307 307 307 307 307 307 307 308 309 308 309 309 308 308 308 307 307 307 307 305 304 302 300 300 300 300
311 309 307 306 304 303 300 299 299 299 300 302 302 302 304 305 306 306 306 306 306 306 306 307 306 306 305 304 304 304 304 303 303 302 302 301 300 299 299 299 297 297 297
310 308 306 305 303 301 301 300 299 299 300 301 301 302 303 304 305 305 305 305 304 303 304 303 303 303 301 300 300 299 300 300 299 299 299 299 298 298 298 298 297 296 295
309 307 306 305 303 302 299 299 300 300 300 301 302 302 302 303 303 302 303 301 301 301 301 301 300 300 300 299 299 298 299 299 298 298 297 297 296 296 296 296 294 291 287
309 307 305 305 304 303 301 300 299 299 301 302 302 302 302 302 301 301 300 299 299 299 299 299 299 299 299 298 298 297 296 295 295 294 291 290 287 287 286 285 285 285 286
308 306 306 304 305 304 303 302 298 298 301 301 302 302 300 300 300 299 299 299 299 299 297 296 294 293 290 289 289 288 288 287 287 286 286 285 285 285 284 284 284 284 285
308 306 305 305 305 303 303 302 301 298 299 301 301 300 299 299 299 299 298 295 292 290 290 290 289 289 288 288 287 286 286 285 285 285 285 285 284 284 283 283 283 283 284
307 306 306 305 305 304 304 303 301 300 300 300 300 299 298 297 295 293 291 291 290 290 289 288 288 287 286 286 285 285 285 285 284 284 284 283 283 283 282 282 282 282 281
308 307 306 306 305 304 303 302 301 301 299 297 295 294 293 292 291 291 291 290 290 289 288 288 287 286 286 286 285 285 284 284 284 283 283 283 282 282 282 281 281 281 281
308 307 307 306 306 304 302 300 299 298 296 294 292 292 292 292 291 291 290 289 289 289 288 288 287 286 285 285 285 284 283 283 283 282 282 282 282 281 281 281 281 281 281
308 307 307 307 307 305 303 300 299 296 295 293 292 292 292 291 291 290 289 289 288 288 288 288 287 285 285 284 284 283 283 282 282 282 282 282 281 281 281 281 281 281 282
308 308 307 307 307 306 304 301 299 297 295 294 292 292 292 291 291 290 289 289 289 288 288 287 286 285 285 284 283 283 282 282 282 282 282 281 281 280 280 280 281 281 282

GFSMW_850_thetae_048.txt.gz
Theta_e
318 317 317 318 318 318 317 322 323 323 322 324 331 335 337 336 335 335 336 336 334 336 335 335 335 335 334 333 333 332 331 331 331 330 329 326 325 326 324 318 317 316 317
316 316 316 317 317 317 317 319 319 319 320 320 323 331 333 331 330 331 334 333 333 333 332 331 331 332 334 333 333 332 332 331 331 331 329 327 326 327 327 322 318 318 316
315 315 316 316 316 317 317 317 317 317 317 317 317 318 319 321 323 323 323 327 329 330 330 330 330 329 330 331 330 332 332 331 330 330 329 325 324 325 325 324 321 319 317
314 314 314 315 315 315 315 315 314 314 314 314 315 316 316 317 318 318 318 319 319 320 321 325 328 327 327 328 329 329 329 331 330 329 329 328 327 323 322 323 322 319 315
314 314 315 315 315 314 313 312 312 311 312 312 312 312 313 313 314 315 316 316 317 317 319 325 326 326 325 322 325 327 328 328 330 331 328 326 326 326 323 321 320 321 319
315 315 315 315 314 314 314 313 313 313 313 313 312 312 312 312 312 312 312 312 312 313 315 318 324 324 326 328 327 326 326 326 327 328 327 329 327 326 324 321 320 320 320
315 315 315 315 315 315 315 315 314 314 314 314 314 314 314 313 313 313 312 312 312 312 313 320 323 324 327 328 327 326 326 326 325 325 325 326 327 327 324 322 322 319 317
314 315 315 316 316 315 314 314 314 313 313 313 313 313 313 312 313 313 313 313 313 313 313 316 322 325 325 327 326 325 324 325 324 321 323 323 323 323 322 321 319 315 317
314 315 316 316 315 314 313 313 313 313 312 311 311 310 310 311 312 312 313 313 313 313 313 314 315 317 320 322 322 320 322 321 321 319 319 320 322 321 321 320 318 316 314
314 315 315 315 315 313 312 312 312 312 311 310 309 309 309 310 311 311 312 312 312 311 312 312 312 313 314 315 316 318 320 321 320 318 318 317 317 319 317 316 316 315 313
315 315 314 314 313 312 311 310 310 310 309 309 308 308 308 309 310 311 311 311 311 309 310 310 310 310 311 311 311 312 313 313 314 314 316 316 316 315 315 314 314 313 313
314 314 314 313 312 310 309 308 308 308 308 308 307 308 308 309 310 310 309 310 310 310 310 309 309 309 309 309 309 310 310 310 313 313 312 313 313 311 312 312 310 310 308
314 314 313 312 310 309 308 307 307 307 307 307 307 307 308 308 308 309 309 309 309 309 309 309 310 310 310 309 309 309 310 310 310 309 308 310 309 310 309 308 307 306 305
313 313 312 310 309 308 307 306 305 305 305 305 305 305 306 307 307 308 308 308 308 309 308 308 308 308 309 309 309 309 309 309 308 306 306 307 307 307 307 307 305 303 302
313 312 311 310 308 307 305 304 303 302 302 303 303 303 304 305 306 307 307 307 307 307 307 307 308 308 308 308 308 307 308 307 306 305 306 305 305 304 303 302 301 300 300
312 311 310 308 307 305 304 302 301 300 299 299 300 301 301 304 305 306 306 306 306 306 307 307 306 305 304 303 303 304 303 303 302 302 301 301 301 300 300 300 300 299 298
312 311 310 308 306 304 303 301 300 300 300 299 300 300 302 304 304 305 305 305 305 305 305 304 303 302 301 300 300 300 300 300 300 299 299 299 298 297 297 297 297 297 296
312 311 310 307 306 305 303 300 300 299 299 299 300 301 302 302 303 304 304 304 303 302 302 301 301 301 301 300 299 299 298 298 298 298 298 298 297 295 294 294 291 290 288
312 310 308 306 305 305 304 301 300 300 300 301 301 301 301 302 302 303 302 301 300 300 300 300 299 297 294 291 290 289 289 288 288 288 288 287 287 286 286 285 285 285 285
310 310 307 306 305 305 303 301 300 300 302 301 300 301 301 301 301 300 299 299 299 297 294 292 290 290 289 289 289 288 287 287 286 286 286 286 285 285 284 284 284 284 284
310 308 306 306 305 304 303 302 302 301 303 302 301 301 300 299 299 299 299 294 291 291 290 290 289 289 288 288 287 286 286 286 285 285 285 284 284 284 284 283 283 283 283
309 307 306 306 305 304 303 303 303 303 303 302 301 299 299 299 298 294 292 291 290 289 289 289 289 288 287 287 286 285 285 285 284 284 284 283 283 283 283 282 282 282 282
308 307 306 306 305 304 303 303 303 302 301 300 299 297 295 293 292 292 291 290 289 289 289 288 288 287 287 286 286 285 284 284 283 283 283 282 282 282 282 281 281 281 281
308 307 306 306 306 305 303 301 301 299 298 296 294 293 292 292 292 291 290 290 289 289 288 288 288 287 286 286 285 285 284 283 283 282 282 282 282 281 281 281 281 281 281
310 307 306 306 306 305 303 301 299 298 296 295 293 293 292 292 291 291 290 290 289 288 288 288 287 286 286 285 285 284 284 283 282 282 282 282 281 281 281 281 281 281 281
311 309 307 307 306 306 305 302 300 298 296 295 293 293 292 292 291 290 290 290 289 288 289 288 287 286 286 286 285 284 283 282 282 282 282 281 281 281 281 281 281 281 281

GFSMW_850_thetae_051.txt.gz
Theta_e
319 319 319 319 319 318 320 321 324 327 335 337 334 338 337 337 337 336 335 335 336 336 337 337 336 336 335 334 334 334 333 333 332 332 331 331 330 328 328 327 326 327 326
317 318 317 317 318 318 317 318 318 324 325 325 324 326 329 331 333 335 336 336 336 336 336 334 332 331 332 332 332 332 333 332 332 331 330 329 328 327 327 327 327 325 326
316 316 316 316 317 317 317 317 318 319 319 319 320 320 322 325 329 329 329 329 331 333 334 332 332 332 331 332 329 330 331 332 331 331 329 328 326 326 325 325 324 323 323
314 315 315 315 316 316 316 316 316 316 316 316 316 316 317 317 318 319 319 320 320 320 321 321 322 323 325 326 327 326 326 328 329 330 330 329 329 326 325 324 324 323 323
315 314 315 315 315 315 315 314 314 313 313 312 312 312 313 313 313 314 314 315 316 316 317 317 317 318 323 324 325 325 322 326 327 327 328 328 327 327 326 322 324 324 324
314 313 314 314 314 314 314 313 313 312 312 312 312 312 313 312 312 312 311 312 312 312 312 312 313 314 317 324 325 326 327 326 325 325 326 327 326 324 323 323 322 321 322
313 314 315 315 314 314 314 314 314 313 313 313 313 313 313 313 313 313 313 313 312 312 312 312 313 315 320 321 322 328 328 326 325 325 325 324 322 322 323 322 321 320 320
314 315 315 315 314 314 314 314 314 314 314 313 313 313 312 312 312 312 312 313 313 313 313 313 313 314 318 322 326 327 327 324 322 322 324 321 319 320 320 318 319 316 316
315 315 315 315 315 315 314 314 314 313 313 313 313 312 311 310 310 310 311 311 312 312 312 313 313 313 314 316 319 322 323 322 321 318 320 319 319 318 316 317 317 317 314
314 315 315 315 315 315 314 314 313 312 312 312 311 310 309 309 309 310 311 311 311 311 310 310 311 311 312 312 313 315 316 317 318 320 320 319 317 318 319 316 314 315 313
313 315 315 315 314 314 313 312 311 311 310 310 310 309 308 308 309 310 310 310 310 310 309 309 310 310 310 310 310 311 311 312 313 313 313 314 313 312 314 315 314 313 311
313 314 315 314 314 313 312 310 309 308 308 308 308 308 307 308 309 309 310 309 309 310 309 309 309 309 309 309 309 309 309 309 310 311 311 310 310 310 309 309 310 309 309
314 314 314 313 313 311 310 309 308 307 307 307 307 307 307 307 307 308 308 309 308 308 308 309 309 309 309 309 309 309 309 309 309 309 308 307 306 307 307 307 307 307 307
314 314 313 313 312 310 309 308 307 306 305 304 305 305 305 306 306 307 307 308 308 308 308 308 308 308 308 308 308 308 308 308 308 307 306 306 306 305 306 306 306 306 304
313 313 313 313 311 310 308 307 305 304 301 302 302 303 303 304 305 306 307 307 307 306 306 306 307 307 307 307 308 307 307 306 305 305 304 304 303 303 302 302 302 301 301
313 313 313 312 310 309 307 305 303 301 301 300 299 300 300 301 304 305 306 306 305 306 306 306 305 305 305 304 303 304 303 303 302 302 301 300 300 299 299 299 299 300 299
313 314 313 311 310 308 306 304 302 300 299 299 299 299 299 300 303 304 304 304 304 305 304 304 304 303 302 301 302 301 301 301 300 300 299 298 298 297 297 297 297 297 297
314 313 312 311 309 307 305 303 302 300 300 299 299 299 299 299 300 302 302 304 304 303 302 302 301 301 300 297 294 292 291 290 290 290 289 289 288 287 287 287 287 286 286
314 313 311 310 308 306 305 304 302 301 300 300 299 300 298 299 299 300 303 302 301 301 301 299 295 292 291 290 290 290 289 289 288 288 287 287 286 286 286 285 285 285 285
312 311 310 309 307 306 305 304 303 302 302 301 302 300 299 299 300 301 300 300 300 297 293 291 290 290 290 289 289 288 288 288 287 287 286 286 285 285 284 284 284 284 284
311 311 310 308 306 305 305 305 303 303 302 302 302 301 301 301 300 299 299 296 292 291 290 290 290 289 289 288 288 288 287 287 286 286 285 285 284 284 284 283 283 283 283
310 309 308 307 306 305 304 304 304 303 302 302 301 301 301 300 299 298 292 291 290 290 290 289 290 289 288 288 287 287 286 286 285 285 284 284 283 283 283 283 282 282 282
309 308 307 306 305 305 304 304 303 302 301 301 301 300 300 298 295 292 291 290 290 290 290 289 289 288 287 287 287 286 286 285 285 284 283 283 283 283 282 282 282 282 282
309 308 306 306 305 305 304 303 302 301 301 300 299 297 295 293 292 292 291 290 290 290 290 289 289 288 287 287 286 286 285 284 284 283 283 283 283 282 282 282 281 281 281
312 310 308 307 306 305 304 302 301 300 299 297 295 294 293 292 292 291 291 290 290 290 289 289 288 287 287 287 286 286 285 284 284 283 283 283 283 282 282 281 281 281 281
312 312 311 311 309 307 305 303 300 299 298 296 294 293 293 292 291 291 291 290 290 290 289 289 288 287 287 287 286 285 284 284 283 283 283 283 282 282 282 282 281 281 281

GFSMW_850_thetae_054.txt.gz
Theta_e
321 320 319 319 319 320 325 326 331 334 336 336 337 338 337 337 337 336 336 336 335 335 335 336 336 336 336 335 334 334 334 333 333 332 331 331 331 329 328 329 328 327 326
320 319 319 318 319 319 318 320 323 326 328 331 335 338 334 334 336 336 336 336 336 335 335 336 336 336 334 333 332 332 332 332 331 331 331 331 328 328 326 325 325 325 325
317 317 317 318 318 318 317 317 318 319 322 328 330 331 329 327 327 331 334 335 336 336 335 335 334 333 334 332 331 330 331 330 328 329 330 329 326 326 326 326 325 326 324
317 315 315 316 316 316 316 316 317 317 318 319 319 318 318 318 318 319 322 325 324 323 323 323 322 324 324 325 325 327 327 326 326 325 326 328 328 327 326 324 324 324 322
317 316 314 315 315 316 316 316 315 315 315 314 314 314 313 313 313 313 314 315 315 316 316 316 316 317 317 317 318 321 325 325 325 327 327 328 326 325 324 322 323 322 322
317 317 315 314 315 315 315 315 314 314 313 313 312 312 312 312 312 312 311 311 311 311 311 311 311 311 312 312 314 319 327 327 326 327 326 325 325 325 324 322 323 321 320
314 315 314 314 314 314 314 314 314 313 313 312 312 313 313 313 313 313 313 313 313 313 313 312 312 312 312 313 316 318 319 324 326 325 325 324 323 322 320 319 319 319 318
311 313 313 314 314 314 314 314 314 313 313 313 313 313 313 312 312 311 311 311 312 312 312 313 313 313 313 313 316 323 323 324 326 324 322 322 320 318 318 319 318 317 315
311 311 313 315 315 314 314 314 314 313 313 313 313 313 312 311 310 310 310 310 311 311 311 311 311 312 312 313 314 316 321 321 322 321 320 320 322 318 317 317 317 314 315
311 314 315 315 315 314 314 314 314 313 312 312 312 311 311 310 309 309 309 310 310 310 310 310 310 310 310 311 312 312 314 315 317 318 318 319 320 318 316 314 314 314 313
313 315 315 315 314 314 314 314 313 312 311 310 310 310 309 309 308 309 309 310 310 309 310 309 309 309 309 310 310 310 311 311 312 313 313 312 312 313 311 310 311 311 310
314 314 314 314 314 314 313 313 312 311 310 309 309 309 308 307 308 308 309 309 309 309 309 309 309 309 309 309 309 309 309 309 309 309 309 309 308 307 307 307 307 308 308
312 314 314 314 313 313 313 312 311 310 309 308 307 307 307 307 307 307 308 308 308 308 308 308 308 308 309 309 309 309 309 308 308 308 307 307 307 306 305 305 305 305 305
312 313 313 314 313 313 312 311 309 308 307 306 305 305 305 305 306 306 307 307 307 307 307 307 308 308 308 308 308 308 307 308 308 307 306 306 306 305 305 305 305 305 304
313 313 314 313 313 312 311 309 308 307 305 303 302 302 303 303 304 304 305 306 306 306 306 306 306 307 306 306 306 306 306 306 305 305 304 303 303 303 303 303 302 302 301
312 313 313 313 312 312 310 308 307 304 303 302 301 300 300 300 301 302 304 305 305 305 305 305 305 305 304 303 303 303 302 302 302 302 301 301 301 300 300 300 299 299 298
312 313 313 313 313 311 309 308 305 304 302 300 300 300 299 299 300 300 301 302 303 303 304 303 303 302 301 301 301 301 299 297 295 294 293 292 292 291 290 289 289 290 289
311 312 312 313 312 311 309 307 304 303 301 300 299 299 299 299 299 299 299 300 302 302 302 301 300 300 299 294 291 290 290 290 289 289 288 288 287 287 287 287 286 286 286
311 312 312 313 311 310 308 305 304 302 300 299 299 299 299 299 299 299 300 301 302 301 300 299 294 291 291 290 289 289 289 289 289 289 288 287 286 286 286 286 285 285 285
310 311 313 312 310 310 306 305 304 303 301 300 299 298 299 299 300 301 302 301 300 300 295 291 290 290 289 289 289 289 289 288 288 287 287 286 286 285 285 285 285 284 284
312 313 312 311 310 307 306 305 304 304 302 301 301 300 299 299 301 301 300 300 296 291 291 290 290 289 289 288 288 288 288 288 287 287 286 286 285 285 284 284 284 284 284
311 310 310 310 308 306 305 304 304 303 302 302 302 301 301 301 300 299 300 293 291 291 290 290 290 289 289 288 287 287 288 288 287 286 286 285 285 284 284 284 283 283 283
310 310 309 308 306 306 305 304 303 303 302 302 302 301 301 300 300 297 293 291 291 290 290 290 289 289 288 287 288 287 287 286 286 286 285 285 284 284 283 283 283 282 282
310 309 309 307 306 305 304 303 302 302 301 301 301 300 299 299 296 292 291 291 290 290 290 290 289 289 288 288 288 288 286 286 285 285 285 284 284 284 283 283 282 282 282
312 312 311 308 307 306 305 303 302 301 300 300 299 299 297 295 292 291 291 291 290 290 289 289 289 289 288 288 288 287 287 286 285 285 284 284 284 283 283 282 282 282 282
312 312 311 311 311 310 308 306 304 301 300 299 297 296 295 293 292 291 291 291 290 290 290 289 289 288 288 287 287 287 286 285 285 284 284 284 283 283 283 283 282 282 282

GFSMW_850_thetae_057.txt.gz
Theta_e
320 321 319 318 319 331 331 329 330 333 335 335 336 336 336 336 336 336 336 336 336 335 335 335 334 335 336 335 335 334 333 332 332 332 330 328 328 327 329 328 326 326 326
320 321 321 321 319 318 321 322 323 326 329 330 331 331 332 334 335 334 335 336 335 335 335 335 334 334 334 335 335 334 333 332 332 331 331 329 325 325 325 326 325 325 325
320 321 320 319 319 318 318 318 319 321 324 327 328 329 331 333 335 331 329 331 333 333 334 335 335 334 334 333 332 334 333 331 331 331 330 327 325 325 326 325 324 324 323
319 319 319 318 317 318 317 318 318 318 320 321 323 327 328 326 324 322 321 321 323 327 330 330 328 326 325 324 324 325 327 329 329 327 326 326 324 325 325 323 323 323 322
318 317 317 317 316 315 316 316 317 317 317 317 317 317 316 315 315 314 314 314 314 315 315 315 315 315 315 316 316 317 318 320 326 328 326 326 326 325 324 322 322 322 322
318 318 318 317 315 314 315 315 315 315 315 314 314 314 313 312 312 312 311 312 312 311 311 311 311 311 311 311 311 311 312 314 322 329 326 325 326 325 324 323 322 320 319
316 316 316 315 315 315 315 314 314 314 314 313 313 312 312 312 312 312 312 312 313 313 313 313 313 312 312 312 312 312 313 316 317 323 326 325 325 325 324 321 319 318 316
311 312 314 315 314 315 314 314 314 314 313 313 313 312 313 313 313 313 313 312 311 311 311 311 311 312 312 313 313 313 314 322 323 325 326 325 323 323 323 321 317 316 315
310 311 311 313 314 314 314 314 314 313 313 313 313 313 313 313 312 312 311 310 310 310 310 310 310 310 310 311 312 313 314 318 325 324 324 323 320 319 318 319 317 315 314
309 310 310 312 314 314 314 314 313 313 313 313 313 313 312 312 311 310 310 309 309 309 309 309 310 309 309 310 311 312 312 314 317 319 319 319 319 317 316 316 314 313 312
309 310 311 314 314 314 314 314 313 313 313 313 312 311 311 311 310 309 309 309 309 309 309 309 309 309 309 309 309 310 310 311 312 313 313 313 313 314 313 310 310 309 310
310 312 314 314 314 314 314 313 313 313 312 311 310 309 309 309 308 308 308 309 309 309 309 309 309 309 309 309 309 309 309 309 309 309 310 309 308 308 308 307 307 306 307
313 314 314 314 314 314 313 313 313 312 311 310 309 308 307 307 307 307 307 308 308 308 308 308 308 308 308 308 309 308 308 308 308 307 307 307 307 307 306 306 305 304 304
313 314 314 314 313 313 313 312 312 311 310 309 307 306 305 305 305 306 306 306 307 307 307 307 307 307 307 307 307 307 307 307 307 307 307 306 306 306 305 305 305 304 304
311 312 313 313 313 313 312 312 311 310 308 307 305 304 303 303 304 304 305 305 306 306 306 306 306 306 306 306 306 306 306 306 306 305 304 304 303 303 303 303 303 302 302
311 311 312 313 313 313 312 311 310 309 307 305 304 302 301 301 301 302 303 303 305 305 305 305 305 304 304 304 304 304 303 303 302 302 301 300 299 299 298 298 298 297 297
310 312 312 313 313 312 312 311 309 308 305 303 302 301 300 300 300 300 300 301 302 302 303 304 303 303 302 302 302 302 298 295 293 292 291 290 290 289 289 288 288 288 288
310 311 312 312 312 311 311 310 309 307 304 303 301 300 299 299 299 300 300 300 300 300 302 302 301 301 300 294 291 291 290 289 289 289 288 288 288 288 288 287 287 286 286
309 309 311 312 312 312 311 309 308 305 303 303 300 300 299 299 299 299 299 299 299 299 300 300 297 291 291 290 289 289 289 288 288 288 288 287 287 287 287 286 286 286 285
309 308 309 311 312 312 310 309 306 305 303 302 300 299 299 299 299 299 299 298 299 300 298 293 290 290 289 289 289 289 289 288 288 287 287 286 286 286 286 285 285 285 285
310 309 310 311 312 310 309 308 305 304 303 301 300 299 298 299 299 298 298 299 299 296 291 290 290 289 289 289 289 289 288 289 288 287 286 286 285 285 284 285 285 285 284
310 310 311 311 310 309 308 306 305 303 302 301 300 299 298 298 298 298 299 298 294 290 290 290 289 289 288 289 288 289 289 288 287 286 286 286 285 284 284 284 284 284 283
309 309 309 309 309 307 306 305 303 303 302 301 300 299 298 299 299 299 298 292 291 290 290 290 289 289 289 288 288 288 288 288 287 286 285 285 285 284 284 283 283 283 283
310 309 309 309 308 306 305 304 304 302 302 301 301 300 300 300 299 299 294 290 290 290 290 290 290 289 289 288 288 288 288 287 286 286 285 285 285 285 284 283 283 283 283
312 312 311 310 308 306 304 303 303 302 302 301 300 300 300 300 299 295 292 291 290 290 290 290 289 289 289 288 288 288 288 287 286 286 285 285 284 284 284 284 283 283 283
311 312 312 311 311 310 308 307 306 305 302 301 300 299 299 298 296 293 292 291 291 291 290 290 289 289 289 289 288 288 288 287 286 286 285 285 284 284 284 284 283 283 283

GFSMW_850_thetae_060.txt.gz
Theta_e
323 322 320 318 324 332 332 333 334 333 335 334 335 335 335 335 336 336 336 336 336 335 335 335 335 335 334 334 335 333 333 333 332 332 331 332 330 327 325 327 327 325 325
323 322 320 320 320 319 325 330 329 331 333 333 335 335 335 335 336 336 336 336 336 336 335 335 334 334 334 333 333 334 334 334 333 333 332 331 327 326 325 325 325 325 324
323 322 320 320 320 320 319 319 324 328 328 329 329 330 330 329 331 332 334 332 331 332 333 333 333 333 335 335 335 334 334 334 333 332 332 329 326 325 325 324 323 324 323
320 319 319 319 319 319 319 319 318 318 323 325 326 328 329 329 327 331 330 329 326 324 323 325 328 332 333 332 329 327 326 329 330 331 329 329 329 327 324 324 323 323 322
319 318 318 318 319 318 317 318 318 318 318 322 323 323 324 322 320 318 317 316 315 314 314 315 315 316 316 316 316 316 316 317 319 321 326 325 328 326 326 325 323 322 321
318 319 318 318 318 318 317 317 317 317 317 318 318 317 316 316 315 314 313 312 312 312 311 311 312 311 311 311 311 311 311 311 312 314 319 326 328 326 324 325 323 323 320
317 317 318 318 318 318 316 316 316 315 316 315 315 314 314 313 313 312 312 312 312 312 312 312 312 312 312 312 312 312 312 312 313 315 317 317 325 325 325 324 321 319 318
311 311 314 315 316 317 316 315 315 315 314 314 314 313 313 312 312 312 312 313 312 312 312 311 311 311 311 312 312 313 313 314 317 321 324 324 323 325 325 322 320 318 316
310 311 312 311 314 315 315 314 314 314 314 313 313 313 312 313 313 313 313 313 312 311 311 310 310 310 310 310 310 312 312 313 320 319 321 321 322 323 322 321 318 317 317
309 310 310 311 311 313 314 314 314 314 314 313 313 313 313 313 313 312 312 312 311 310 310 309 309 309 309 309 310 310 312 313 316 317 318 319 318 319 320 319 317 315 314
310 309 309 309 310 312 313 313 314 314 313 313 313 313 313 312 311 311 310 310 310 309 309 309 309 309 309 309 309 309 310 311 312 314 314 315 314 314 314 314 313 312 310
311 310 310 310 311 313 314 314 313 313 313 313 313 312 311 311 310 309 309 309 309 309 309 309 309 309 309 309 309 309 309 309 309 310 310 311 310 309 309 309 309 307 307
311 311 311 312 313 314 314 314 313 313 313 313 312 311 310 309 308 308 308 308 308 308 308 308 308 308 308 308 309 309 309 308 308 308 308 308 307 307 307 307 307 306 305
312 313 313 314 314 314 314 313 313 313 312 312 311 310 309 307 306 305 306 306 307 307 307 307 308 308 308 307 307 307 308 308 307 307 307 307 307 307 306 306 305 305 305
312 313 314 313 314 314 313 313 313 312 312 311 310 308 306 305 304 304 304 305 305 306 306 307 307 307 307 306 306 306 307 307 307 306 306 305 305 305 304 304 304 304 303
310 311 312 313 313 313 313 313 313 312 311 310 309 306 304 303 302 302 303 302 302 304 305 305 305 305 305 305 305 305 305 304 303 303 302 300 298 296 294 294 295 294 293
311 311 310 311 312 313 313 313 312 311 310 309 306 304 303 301 301 301 301 300 301 302 303 304 304 303 303 303 303 303 302 300 297 294 292 291 290 289 289 289 289 288 288
310 310 311 310 311 312 313 312 311 310 309 307 304 303 302 301 300 300 300 300 301 301 301 302 302 301 301 301 299 294 292 291 290 291 290 289 289 289 288 288 287 287 287
310 309 309 310 310 312 312 311 311 310 308 305 303 302 300 300 300 300 300 300 300 300 299 301 300 299 294 291 290 290 290 290 290 290 289 289 288 288 287 287 286 286 286
309 310 309 307 309 311 311 311 311 309 307 304 303 302 300 300 300 299 299 299 299 298 299 298 294 290 290 290 289 289 289 290 289 288 288 288 287 287 287 286 285 285 285
309 309 308 308 310 311 311 311 310 308 304 303 302 301 300 300 299 299 299 298 298 297 297 294 290 289 289 289 288 289 289 289 287 287 287 287 287 286 286 286 285 285 284
309 309 308 309 310 310 310 310 309 305 303 303 302 301 300 299 299 299 299 298 297 297 293 289 289 289 289 289 288 289 289 288 287 287 287 287 286 286 286 285 285 285 284
309 310 309 309 310 309 309 308 306 304 303 303 303 301 300 299 299 299 298 298 298 294 290 289 289 289 289 289 289 289 289 288 287 287 287 286 286 286 285 285 285 284 284
309 309 309 309 309 308 307 305 304 303 303 302 302 301 300 299 299 298 299 299 294 291 290 290 289 289 289 289 289 288 288 288 288 287 286 286 286 286 285 285 284 284 284
310 311 311 310 309 308 306 304 304 303 302 302 301 301 300 299 300 299 299 296 291 290 290 290 289 289 289 289 288 288 288 288 287 286 286 286 286 285 285 284 284 284 284
311 311 311 311 311 311 309 307 305 304 304 302 301 300 300 300 299 299 298 293 291 290 290 290 290 289 289 289 288 287 287 287 287 287 286 286 286 285 285 284 284 284 284

GFSMW_850_thetae_063.txt.gz
Theta_e
323 324 323 322 320 331 338 338 334 336 337 337 337 338 338 338 338 338 338 336 336 336 335 335 337 336 337 337 336 335 333 334 334 333 332 332 332 332 329 326 327 327 327
323 324 323 322 319 319 330 337 338 335 335 335 335 336 337 338 339 338 337 336 336 336 336 335 335 338 337 336 338 336 336 335 334 333 333 330 329 328 327 327 325 324 325
323 324 322 321 320 320 319 326 335 334 336 334 337 338 338 336 334 335 334 333 334 334 334 334 335 335 338 338 338 337 332 332 331 330 329 328 328 327 326 326 325 322 323
321 322 322 321 320 320 319 319 319 322 326 328 331 331 331 331 333 335 333 326 329 332 331 327 325 323 323 325 328 331 332 334 330 329 329 327 327 326 324 324 324 324 323
321 321 320 319 320 320 320 318 318 319 318 318 324 328 330 332 331 327 327 324 320 318 317 315 314 314 314 314 315 315 315 315 316 319 325 327 324 325 322 324 322 324 323
320 321 320 320 318 319 319 318 317 317 318 318 319 322 325 326 323 319 316 315 314 313 313 312 311 311 311 311 311 311 311 311 311 312 316 321 323 322 323 323 322 322 323
318 319 319 319 318 318 318 318 318 316 316 317 318 318 318 316 315 314 313 313 312 312 312 311 312 312 312 312 312 312 312 313 313 314 317 321 324 323 322 324 324 322 321
314 314 316 318 318 317 317 317 317 317 316 316 316 315 314 314 313 313 313 312 312 312 312 312 312 312 312 312 311 311 312 312 317 318 319 318 321 321 320 321 320 322 320
312 313 313 312 316 317 316 317 316 315 315 315 314 314 313 313 313 312 312 312 313 313 312 312 311 311 310 310 310 310 311 317 313 314 319 319 321 319 321 322 321 321 318
313 312 311 311 312 315 315 315 315 314 314 314 313 313 313 313 312 313 313 313 312 312 311 311 310 310 309 309 309 309 310 311 313 315 316 319 320 319 319 319 319 318 317
313 313 312 312 312 314 314 314 313 313 313 313 313 313 313 313 313 312 312 311 311 311 310 310 309 309 309 309 309 309 309 310 312 315 315 315 314 315 316 316 315 314 312
314 313 313 312 312 312 313 313 312 313 314 314 313 313 313 313 313 312 312 311 310 310 310 309 309 309 308 309 309 309 309 309 310 310 310 311 311 311 310 309 310 310 309
313 314 313 312 312 311 311 312 313 313 313 313 313 313 313 312 312 311 310 309 308 308 308 308 308 308 309 308 308 309 309 309 309 309 309 309 308 308 307 307 308 307 307
312 314 314 313 313 312 311 313 313 313 313 313 312 312 312 311 310 308 307 307 307 307 307 307 307 308 308 308 308 307 308 308 308 308 307 307 307 307 307 307 306 306 305
312 312 315 315 314 313 312 313 313 313 313 312 312 311 310 310 308 306 305 305 305 305 306 306 307 307 307 307 307 307 307 307 307 307 307 306 306 306 305 305 304 304 303
311 312 312 314 314 313 313 313 313 312 312 312 311 311 310 308 306 305 304 304 303 304 304 305 306 306 306 306 306 306 306 306 306 305 304 303 299 296 296 294 295 295 294
312 311 313 313 314 314 312 312 313 313 312 311 311 310 308 305 304 303 302 302 301 301 302 303 304 304 304 304 305 304 304 303 302 300 296 293 291 291 290 291 290 290 289
310 312 311 312 312 313 312 312 312 312 312 311 310 308 306 304 303 302 301 301 301 301 302 302 301 302 302 301 302 302 300 295 293 291 290 290 290 290 290 289 289 289 289
308 309 311 310 312 312 311 311 312 312 312 311 310 308 305 304 302 300 300 300 300 300 300 300 300 300 300 300 296 292 290 290 290 289 289 289 289 289 289 288 288 288 287
307 308 308 309 310 311 310 310 311 312 311 311 309 307 304 303 301 300 300 300 300 299 299 299 299 299 295 290 289 289 289 289 289 289 289 289 289 289 288 287 287 287 286
308 308 308 308 308 309 308 310 311 311 310 309 307 305 304 303 300 300 300 300 300 299 299 299 297 293 289 289 289 289 289 289 289 289 289 289 288 288 287 286 286 286 286
308 309 308 308 307 308 308 308 309 310 309 307 305 304 303 302 300 300 300 299 299 298 297 298 295 290 289 289 289 288 288 289 288 288 289 288 288 287 286 286 286 286 285
309 308 309 308 308 308 308 308 309 309 307 305 304 303 302 301 300 300 300 299 298 297 298 296 291 290 289 289 289 288 288 288 288 288 288 288 287 287 286 286 286 285 285
310 309 308 308 308 308 308 307 307 307 305 304 303 302 302 301 300 300 299 299 298 298 298 293 290 290 290 290 289 289 289 288 288 288 288 288 287 286 286 286 285 285 285
310 311 310 309 309 309 309 308 307 305 304 303 303 303 301 300 300 299 299 299 299 299 295 291 290 290 290 290 289 289 288 287 287 288 288 287 287 287 287 286 285 285 285
308 311 312 310 310 310 310 309 308 307 305 304 302 302 302 301 300 298 299 299 298 296 291 290 290 290 289 289 289 288 288 287 287 287 287 287 287 287 286 285 285 285 285

GFSMW_850_thetae_066.txt.gz
Theta_e
323 324 324 324 328 337 339 339 335 335 337 336 335 337 336 338 336 336 337 337 337 336 335 334 335 336 335 334 334 334 333 333 332 332 332 332 330 331 330 331 330 326 327
322 324 324 324 323 329 337 339 338 334 336 337 337 337 337 337 337 337 338 338 336 336 336 336 335 337 335 334 333 333 332 331 330 330 330 329 327 327 325 328 329 326 325
322 323 324 324 323 325 328 336 339 336 334 335 336 336 336 336 337 337 338 337 337 337 334 333 334 335 336 335 333 332 331 330 329 328 329 329 327 327 326 326 326 325 324
321 322 323 323 322 322 325 325 336 339 335 333 334 333 331 335 335 335 335 334 327 329 331 332 332 329 325 323 322 321 324 327 328 327 328 328 326 326 324 323 323 324 323
320 321 322 322 321 320 320 320 319 325 334 332 329 327 331 334 334 336 335 333 329 328 323 319 317 316 314 313 312 312 313 313 314 314 320 322 322 322 323 322 322 320 322
320 320 321 321 321 319 319 319 319 318 318 322 331 326 326 329 330 331 331 328 321 316 315 314 313 312 312 311 311 311 311 311 312 312 312 317 319 322 321 321 323 322 322
319 319 320 321 320 320 319 318 319 318 318 317 318 321 321 321 322 324 320 316 314 313 313 313 312 312 312 312 312 312 312 312 312 312 315 321 321 318 319 322 320 320 322
315 315 317 319 320 319 319 318 318 318 317 317 317 318 318 318 319 317 314 313 313 312 312 312 312 312 312 312 312 311 311 311 311 313 316 317 320 319 319 319 318 316 320
312 312 313 314 316 318 319 319 318 317 317 317 316 316 317 318 314 314 313 313 312 312 312 312 312 312 312 311 310 310 309 310 311 310 313 313 316 318 318 318 316 321 320
313 313 312 312 312 314 317 317 316 316 315 315 315 315 315 315 314 314 313 312 312 312 312 312 312 311 311 310 309 309 309 309 310 313 314 314 315 316 316 320 317 319 319
313 313 313 312 312 312 315 316 316 315 314 314 314 313 313 314 313 313 312 312 313 312 312 311 311 311 310 309 309 308 309 309 309 312 312 312 313 313 314 315 316 316 315
313 314 313 312 312 312 314 315 315 314 314 313 313 313 313 313 313 312 312 312 312 312 311 310 310 310 309 309 308 308 308 308 309 309 310 311 311 311 311 311 312 313 312
313 312 314 313 312 312 313 313 313 313 313 312 312 313 313 312 312 312 312 312 311 309 309 308 308 309 309 308 308 308 308 308 308 308 309 309 309 309 308 307 308 308 308
312 313 313 314 313 312 311 311 312 312 312 312 312 312 312 312 312 312 311 310 309 307 307 307 307 307 307 307 308 307 307 308 308 308 307 307 307 307 307 306 306 306 306
313 312 312 313 314 313 312 312 312 312 313 312 312 312 312 312 311 311 310 308 306 306 306 306 306 306 307 307 307 307 307 307 307 306 306 306 306 306 306 306 306 305 305
311 312 312 312 314 314 313 312 312 312 312 312 312 312 312 312 311 310 307 306 305 304 304 304 305 305 306 306 306 306 305 305 305 305 305 304 303 301 300 300 298 298 296
309 309 311 312 312 314 314 313 312 312 312 312 312 312 312 311 310 308 306 305 304 301 301 301 302 302 304 305 304 305 304 304 304 303 302 299 294 291 291 291 290 290 290
308 308 309 311 311 312 314 314 313 312 312 311 311 311 310 309 308 306 305 303 301 301 301 300 301 301 302 303 302 303 302 301 300 297 293 290 290 290 290 290 290 290 289
308 308 308 309 310 311 312 313 313 312 311 311 311 310 309 308 307 305 303 301 299 299 300 301 300 300 301 300 300 300 297 293 290 290 290 290 290 290 289 289 288 289 288
309 308 308 308 309 309 311 312 312 311 311 311 310 310 309 308 306 304 303 301 300 300 300 300 299 298 299 298 296 291 289 289 289 289 289 289 289 289 288 288 288 288 288
309 309 308 308 308 309 310 311 311 310 309 309 309 309 308 307 305 303 301 300 300 300 299 299 298 298 297 293 289 289 289 289 290 290 289 289 289 288 287 287 287 287 287
308 309 309 309 308 307 309 310 309 308 308 308 308 308 307 306 304 302 301 300 300 299 299 298 298 297 291 290 289 288 289 289 289 289 289 289 289 288 287 287 287 287 286
305 308 308 308 308 307 306 307 307 307 307 307 307 307 306 304 303 301 300 300 300 299 299 298 298 297 290 289 289 289 288 288 289 289 289 289 288 288 287 287 287 287 286
301 307 308 308 308 308 307 307 307 307 307 306 306 305 304 303 302 302 300 300 299 299 299 298 298 294 290 289 289 289 289 289 288 288 288 288 288 287 287 287 287 287 286
300 305 307 308 308 310 308 307 307 307 306 305 304 304 302 302 301 301 300 299 300 299 298 299 297 292 290 290 289 289 289 289 288 288 288 288 288 288 288 287 287 286 286
300 303 306 307 307 308 309 308 308 308 307 307 305 304 303 304 303 300 300 299 299 297 297 298 295 291 290 290 289 289 289 288 288 287 288 288 288 288 288 287 287 286 286

GFSMW_850_thetae_069.txt.gz
Theta_e
323 324 324 324 328 334 335 337 339 339 338 337 337 336 336 336 335 333 335 336 337 336 335 334 334 334 335 334 333 333 332 331 330 330 329 329 328 327 327 326 326 331 330
322 322 324 324 326 328 332 332 333 334 335 337 336 335 335 334 335 334 336 335 336 336 336 336 335 335 334 334 334 333 330 330 330 328 328 328 327 326 326 325 325 329 329
321 321 323 324 324 326 327 331 331 332 332 335 336 335 335 336 336 337 336 336 337 336 336 336 337 339 337 334 332 332 331 330 329 328 328 329 327 327 326 325 324 327 325
322 321 323 323 324 323 324 331 332 330 332 333 332 334 336 335 333 335 335 337 337 333 333 332 331 333 334 332 328 326 325 327 322 321 323 327 328 327 325 323 322 323 323
322 321 322 322 323 322 322 324 331 332 330 332 332 332 331 332 329 330 334 335 332 330 327 329 333 331 322 316 314 313 312 312 312 313 313 314 316 322 324 322 319 321 320
321 320 321 322 322 321 320 319 320 332 331 330 330 328 328 327 326 330 331 330 329 331 330 321 315 314 313 312 312 311 311 311 312 312 312 312 312 314 319 319 320 318 318
320 320 320 321 321 322 321 320 318 319 322 322 325 327 325 324 326 328 332 331 330 328 317 314 313 313 312 312 311 312 312 312 312 312 312 312 313 317 318 317 318 318 319
314 317 318 320 321 320 320 320 319 319 319 317 318 320 321 322 323 324 327 325 319 315 314 313 313 312 312 312 312 312 312 311 311 310 311 313 317 317 319 318 320 320 319
312 312 312 313 316 319 320 320 319 318 317 317 317 317 318 320 322 319 318 316 315 314 313 313 312 312 312 312 312 312 311 310 309 310 311 310 314 315 315 318 318 319 320
313 312 312 312 312 312 316 318 318 318 317 316 315 316 318 318 319 316 314 317 314 313 312 312 312 312 312 312 311 311 310 309 309 309 309 310 314 314 314 316 315 317 319
313 313 313 312 312 312 311 315 317 317 317 316 315 315 316 316 315 313 313 314 316 313 312 312 312 312 311 311 310 310 309 309 308 308 308 310 312 312 314 315 316 317 317
313 312 312 312 312 312 312 314 315 315 315 315 315 315 314 314 313 313 312 312 312 312 312 312 311 311 310 310 309 309 309 308 308 308 308 308 310 310 310 311 312 311 313
312 312 312 312 312 313 312 313 314 315 314 314 314 313 313 313 312 312 312 312 312 312 312 311 310 309 308 308 308 308 308 308 308 308 308 308 308 308 308 309 309 308 309
313 312 312 312 312 312 313 312 313 314 313 313 313 312 312 312 311 311 312 312 311 311 310 308 307 307 307 307 307 307 307 307 307 307 307 307 307 307 307 307 306 306 306
311 311 311 311 312 312 312 313 311 312 312 312 312 312 312 311 311 311 311 311 310 309 307 306 306 306 306 306 306 306 306 306 306 306 306 306 306 306 306 306 306 306 306
309 308 308 309 310 313 312 314 313 312 311 312 312 311 311 311 311 311 311 310 309 307 305 305 304 304 305 305 306 306 305 305 305 305 305 305 305 305 304 304 303 302 301
309 309 308 308 309 310 312 313 314 313 312 311 311 311 311 311 311 311 310 309 307 305 305 303 301 302 301 301 304 305 303 302 302 303 303 302 300 295 293 291 290 290 290
309 309 308 309 308 309 310 313 313 314 313 312 311 311 311 311 310 310 309 308 305 304 302 301 301 301 301 300 302 302 302 301 301 301 300 297 291 290 289 290 290 290 289
305 309 309 309 308 309 309 311 314 313 313 312 311 311 311 310 310 309 308 306 304 303 300 299 300 301 300 300 300 301 301 300 299 295 291 289 289 290 289 289 289 289 289
301 307 308 309 309 308 309 311 313 313 313 312 311 310 309 309 309 308 306 304 303 301 299 300 300 300 299 299 299 298 296 292 290 289 289 289 289 289 288 288 289 288 288
300 301 307 308 308 308 308 309 311 312 312 311 310 309 308 307 307 306 305 303 302 299 300 300 299 298 299 298 297 291 289 288 289 289 289 289 289 288 288 288 288 287 288
301 300 304 307 308 308 307 308 310 310 310 309 309 308 307 306 306 305 303 302 301 299 300 300 299 299 298 295 290 289 288 288 288 289 289 289 288 288 287 287 287 287 287
299 300 300 305 307 307 307 306 307 307 307 307 307 307 306 306 305 303 302 301 299 299 300 300 299 299 297 292 289 288 287 288 288 288 288 288 288 288 288 288 287 287 287
298 299 300 304 306 307 306 307 307 306 306 306 306 306 305 305 304 302 301 300 299 299 299 300 299 298 297 292 289 289 288 288 288 288 288 288 288 288 288 288 288 287 287
298 300 300 301 306 306 307 306 306 306 306 306 305 304 304 303 302 301 301 300 299 299 299 299 298 298 297 291 289 289 288 288 288 288 288 288 288 289 288 288 288 287 287
299 299 300 301 304 306 306 306 306 306 306 307 306 305 306 304 302 301 301 300 298 298 298 297 297 298 295 290 289 289 289 289 288 288 288 288 288 288 288 288 288 287 287

GFSMW_850_thetae_072.txt.gz
Theta_e
322 324 324 327 330 336 337 338 336 338 338 337 336 336 336 335 335 334 335 336 336 335 335 333 332 332 333 333 333 333 332 331 330 329 328 328 327 327 326 326 326 325 326
321 321 323 324 327 328 332 336 334 336 336 337 337 336 337 337 336 334 335 335 334 335 335 335 334 334 333 334 333 333 332 331 329 328 328 327 327 325 324 325 325 324 326
321 321 321 324 324 328 327 329 330 331 336 337 336 336 336 335 336 335 334 334 334 335 335 335 335 335 334 334 333 332 330 330 329 328 329 328 327 327 326 326 326 325 325
322 321 321 322 324 324 328 327 329 330 331 332 333 335 335 334 334 333 332 334 335 335 335 335 336 336 335 334 333 333 331 327 326 323 327 323 326 326 324 323 323 324 324
322 321 321 321 322 324 325 327 328 329 331 333 332 332 334 333 333 331 330 332 333 330 332 330 332 330 328 328 330 325 318 315 313 312 312 312 313 317 325 322 322 321 319
322 322 321 321 323 323 323 324 327 327 328 330 331 330 330 330 330 331 331 328 328 326 325 325 324 326 325 319 314 313 312 311 311 311 312 312 312 313 313 317 320 320 318
320 320 320 320 322 322 321 321 320 322 323 326 330 330 330 329 328 328 326 325 325 324 323 324 325 320 314 313 313 312 311 311 312 312 312 312 312 312 312 315 316 317 317
318 319 319 320 321 321 321 321 320 320 319 319 323 327 327 327 325 324 324 324 323 322 322 325 317 314 313 313 312 312 312 312 312 311 311 311 311 311 313 316 316 318 317
312 312 314 318 319 319 320 320 320 319 318 318 318 318 322 323 324 324 325 326 325 325 321 316 317 314 313 312 312 312 312 312 311 311 310 309 310 311 311 315 315 316 318
312 312 312 312 312 312 314 316 319 319 319 318 317 316 316 318 321 320 320 320 319 317 315 313 313 312 312 312 312 312 311 311 310 310 309 309 310 310 311 313 313 314 317
313 313 312 312 311 312 312 311 314 318 318 317 317 316 316 316 318 319 318 319 318 315 313 312 312 312 312 312 312 311 311 310 309 309 308 308 309 309 311 312 313 316 314
312 312 312 312 311 311 312 312 311 314 317 316 316 316 315 316 316 316 315 314 313 313 312 312 311 311 312 311 310 309 309 309 309 308 308 308 308 309 309 309 310 311 312
312 312 311 312 312 312 311 312 312 312 314 314 315 315 315 315 314 314 313 313 312 312 311 311 311 311 310 309 309 308 308 308 308 308 308 308 307 307 307 308 308 309 310
311 311 311 310 311 312 312 312 312 312 313 314 314 314 313 313 313 312 312 312 311 311 311 311 310 309 307 307 307 307 307 307 307 307 307 307 307 307 307 307 307 307 307
309 309 308 308 308 310 311 313 313 313 312 313 313 313 312 312 312 312 311 311 311 311 311 310 308 307 306 306 306 306 306 306 306 306 306 306 306 306 306 305 305 305 305
310 309 309 308 309 308 309 311 313 313 312 311 312 312 311 311 311 311 311 311 311 310 309 308 306 306 305 305 305 305 305 305 305 304 304 304 305 305 305 305 304 304 304
304 307 309 309 309 308 308 309 310 313 313 312 311 311 311 311 310 310 310 310 310 309 307 306 305 304 302 301 300 301 304 302 301 301 301 301 303 302 298 296 294 293 292
302 303 304 309 310 309 308 308 309 311 313 313 312 312 311 311 310 310 310 309 308 307 305 305 304 302 300 301 300 299 300 299 300 300 299 301 300 296 291 289 290 290 290
300 301 300 302 308 309 309 308 309 310 312 313 313 312 312 311 310 309 309 308 307 305 304 303 302 299 300 300 300 300 301 298 298 299 299 298 292 289 289 289 289 289 289
301 302 301 300 305 309 309 308 308 309 311 313 313 312 311 310 309 309 308 307 306 304 303 302 299 300 300 300 300 300 299 299 299 298 293 289 289 290 289 289 289 288 288
301 301 302 300 303 308 308 308 307 309 310 312 312 311 311 310 309 307 307 306 305 303 302 299 299 299 300 299 299 298 297 294 290 289 288 289 289 289 289 289 288 288 288
300 300 301 301 301 306 307 308 307 308 310 311 311 310 310 309 307 307 306 306 304 302 300 299 299 299 298 298 298 297 290 288 288 288 289 289 289 289 288 288 287 287 287
297 298 299 300 300 305 306 307 307 306 307 309 309 309 308 307 306 305 305 304 303 301 299 299 299 299 298 298 297 291 289 288 288 288 288 288 288 288 287 287 287 287 287
298 297 298 300 300 303 306 306 306 306 306 306 306 306 305 305 305 304 304 303 302 301 299 299 299 298 298 298 295 289 288 287 287 287 287 287 287 288 288 288 287 287 287
297 298 298 299 300 302 305 306 306 306 306 305 305 305 305 305 304 303 303 302 301 300 299 299 299 299 298 298 296 290 289 288 288 288 288 288 288 288 288 288 288 288 288
295 296 297 298 298 299 302 304 305 305 305 305 304 304 304 305 306 305 303 302 301 300 299 298 298 298 297 296 294 289 289 288 287 288 288 288 288 287 287 287 288 288 288

GFSMW_850_thetae_075.txt.gz
Theta_e
324 326 332 332 334 337 336 337 336 335 335 335 335 335 336 337 336 335 335 335 335 335 335 335 333 330 331 331 331 332 331 331 330 329 329 327 327 326 324 324 323 324 326
322 323 324 325 329 333 334 335 335 336 334 335 334 336 337 335 335 334 334 334 334 334 335 334 335 333 332 333 332 332 331 331 330 329 328 328 325 323 323 322 320 325 325
321 321 321 322 324 328 330 333 334 335 336 336 337 337 335 335 336 336 337 334 334 335 334 333 333 334 334 333 332 332 331 331 329 327 327 327 325 325 323 325 323 325 324
321 321 321 321 321 323 325 328 330 331 330 332 335 335 330 332 332 334 336 334 334 333 332 333 333 333 333 333 332 332 332 331 328 328 328 327 326 327 321 321 323 322 322
321 322 321 321 321 321 322 326 327 329 331 331 332 332 332 331 330 331 331 331 331 332 333 332 331 330 327 326 324 324 327 327 323 314 313 312 312 312 316 317 313 319 317
320 321 320 321 321 321 321 323 328 325 327 329 330 330 331 330 330 330 330 330 330 330 330 328 325 323 322 322 323 322 319 315 312 311 311 311 312 313 313 314 314 314 316
318 320 320 320 321 321 321 322 326 327 327 327 327 328 328 329 330 331 330 328 328 328 327 325 323 322 321 323 319 314 313 312 311 311 311 311 311 312 313 314 313 315 314
318 320 319 319 320 321 321 321 321 321 320 321 323 326 327 327 329 329 329 329 327 325 324 325 324 325 325 320 313 313 313 312 312 311 311 311 311 311 312 313 314 315 317
313 316 317 318 319 320 320 320 320 319 319 319 318 318 320 324 326 327 327 326 324 324 324 322 322 324 318 314 314 313 312 312 312 311 311 310 310 309 310 312 311 314 315
312 312 312 312 312 313 314 315 316 319 319 318 318 317 317 317 320 323 325 325 324 321 320 320 320 319 319 315 312 312 312 311 311 311 310 310 309 309 310 309 310 312 313
312 312 312 312 311 311 311 311 312 311 315 318 318 317 316 316 316 317 322 325 325 320 319 318 317 317 315 312 312 311 311 311 310 310 309 309 308 308 309 309 311 311 312
311 311 311 312 312 311 311 310 311 312 312 315 317 317 316 316 315 316 318 320 319 317 317 316 314 313 312 312 311 311 310 309 309 309 309 308 308 308 308 308 309 309 311
311 311 311 311 311 311 311 311 311 312 312 312 314 315 315 315 315 315 316 316 315 315 313 313 312 311 311 311 311 309 308 308 308 308 307 307 307 307 306 307 307 307 307
309 309 309 309 308 308 310 311 312 312 312 312 313 313 314 314 314 314 314 313 313 312 312 311 311 311 310 310 308 307 307 306 307 306 307 306 306 306 306 305 306 306 305
309 309 309 309 308 308 308 309 311 312 312 312 312 313 313 313 312 312 312 312 311 311 311 311 310 310 309 307 306 306 306 306 305 306 306 306 305 305 306 305 305 305 305
305 305 306 308 309 309 309 308 308 310 312 312 312 312 312 312 311 311 311 311 310 310 310 310 309 309 307 305 305 304 304 304 304 304 303 303 302 303 305 305 305 304 304
302 302 303 303 305 308 310 309 309 308 309 311 312 311 311 311 311 311 310 310 310 310 309 308 308 306 305 304 303 301 299 300 300 301 300 301 300 300 303 301 298 298 300
302 302 302 302 302 303 306 310 309 308 309 309 312 312 311 311 311 311 310 310 309 309 308 307 306 305 304 302 300 300 299 298 299 299 299 298 299 300 298 293 290 289 289
301 301 301 301 302 301 302 307 310 309 308 309 310 312 312 311 311 311 310 309 309 308 307 307 305 304 302 300 299 300 299 299 298 298 298 298 299 296 290 289 289 289 289
301 301 301 301 301 301 301 306 309 309 308 308 310 311 312 311 311 310 309 309 308 308 307 306 304 302 299 299 299 300 300 300 297 298 298 299 294 289 289 289 288 288 288
299 299 300 300 301 301 300 304 308 308 308 308 309 311 311 311 311 309 308 308 307 307 307 305 303 301 299 300 300 299 299 298 298 298 296 290 288 288 289 288 287 287 288
298 298 298 299 299 300 300 303 307 307 307 307 309 310 311 311 310 309 308 307 306 306 306 304 303 301 299 299 299 299 299 296 292 290 288 288 288 288 288 288 287 287 287
297 298 297 298 299 299 301 303 306 306 306 306 307 309 309 309 309 308 307 306 306 305 305 304 303 299 300 299 299 298 298 293 288 288 288 288 288 288 288 287 286 287 287
295 295 296 297 298 298 299 300 303 305 305 305 306 306 306 307 307 306 305 305 304 304 304 303 302 299 299 299 298 298 297 291 288 287 288 288 288 288 288 288 287 287 287
295 294 295 295 297 298 297 298 300 302 304 304 305 305 305 305 305 305 305 304 303 302 302 302 300 299 299 299 299 298 297 290 288 287 287 287 288 288 288 288 288 288 288
292 294 294 294 294 296 297 298 298 300 302 303 304 304 304 304 304 304 303 304 304 303 302 301 300 299 298 298 298 297 297 290 288 288 288 288 288 288 288 288 288 288 288

GFSMW_850_thetae_078.txt.gz
Theta_e
326 330 332 331 333 333 331 332 332 331 331 330 329 329 330 329 331 334 334 335 335 334 333 334 335 334 332 330 330 331 331 330 330 329 328 328 328 324 323 322 320 319 319
321 323 329 330 332 332 332 334 334 333 332 332 332 327 329 329 331 335 336 336 335 334 334 334 334 335 333 331 332 332 331 330 330 329 328 327 323 321 321 322 321 321 322
320 321 321 324 327 332 333 335 334 334 331 333 334 333 333 332 332 334 333 335 334 334 332 333 333 332 333 333 332 331 331 330 329 329 329 327 324 325 323 321 320 322 321
320 321 321 321 321 322 326 330 332 333 333 333 332 334 332 332 331 332 334 333 332 333 333 332 331 331 331 331 330 329 329 329 329 329 330 330 329 328 322 315 317 318 320
320 321 321 321 321 321 321 323 327 330 331 330 330 331 332 332 330 331 332 330 330 331 331 330 329 330 330 328 327 325 325 325 323 320 319 316 312 312 313 313 312 313 315
320 320 321 321 321 321 321 321 323 327 329 328 328 330 329 329 330 329 330 330 330 327 328 329 330 329 326 325 325 325 323 319 318 316 312 312 311 312 313 314 313 313 313
319 319 320 320 321 321 321 320 322 323 328 327 327 327 328 329 329 330 328 330 329 329 327 326 325 327 324 323 324 322 322 322 314 312 312 311 311 311 312 312 313 314 313
317 319 320 319 319 320 321 320 320 322 323 325 324 326 328 327 327 326 328 328 328 329 328 328 326 323 323 324 324 322 317 314 313 312 312 311 311 311 310 311 313 313 313
314 315 316 317 318 319 319 319 319 320 320 320 320 319 319 319 324 325 327 326 327 327 326 324 323 323 322 321 320 321 315 315 312 312 311 311 311 310 310 310 309 314 312
311 311 311 311 311 312 314 315 317 318 319 319 319 319 318 317 317 318 322 324 325 325 325 324 324 323 322 322 320 315 317 312 312 311 311 311 310 309 309 309 310 310 311
311 312 311 311 311 311 311 310 311 311 311 311 314 318 318 318 317 316 316 319 323 324 324 325 325 324 322 317 316 315 313 312 311 311 310 309 309 309 308 308 309 309 310
310 310 311 311 311 311 311 311 310 310 311 311 312 315 317 317 317 316 316 316 321 325 325 323 318 316 316 315 313 312 311 311 311 310 309 308 308 308 308 308 308 308 308
309 309 309 309 309 309 309 310 311 311 311 311 311 312 314 315 315 315 315 316 317 318 318 317 316 314 313 312 311 311 311 311 309 308 307 307 307 307 307 306 306 306 306
309 309 309 309 309 309 309 309 309 310 311 311 312 311 312 313 314 314 314 314 314 314 314 313 312 312 311 311 311 310 309 308 307 306 306 306 306 305 306 305 305 305 304
307 307 307 308 308 309 309 309 309 308 310 311 312 312 312 313 313 313 313 313 313 312 312 311 311 310 310 310 310 309 307 306 306 305 305 305 304 303 303 303 303 303 304
303 303 303 303 304 303 305 307 309 309 308 309 310 312 312 312 312 312 312 311 311 311 310 310 310 310 310 309 308 306 305 304 304 303 302 301 301 301 300 300 302 303 302
302 302 302 302 302 302 302 302 304 308 309 308 309 310 312 311 311 311 311 311 310 310 309 309 309 308 308 307 306 305 304 302 299 299 300 300 300 300 299 300 300 298 300
302 301 301 302 302 302 302 302 301 304 308 309 308 309 311 312 310 310 310 310 310 309 309 309 308 308 306 305 304 304 302 300 299 298 298 298 298 299 299 298 294 290 289
300 301 301 301 301 301 301 301 301 301 306 308 308 308 309 311 311 310 310 310 309 309 308 308 308 307 306 305 304 302 300 300 299 299 299 298 298 298 298 293 289 289 289
300 300 300 300 300 300 300 300 301 301 305 308 308 308 308 310 311 311 310 309 309 308 308 308 307 307 305 304 303 301 300 300 300 299 298 297 296 297 292 289 289 289 289
298 298 299 299 299 299 299 300 300 301 305 306 307 307 308 309 310 310 309 309 308 307 307 307 307 306 304 303 301 300 299 299 300 299 297 297 297 290 288 289 288 288 288
297 297 297 298 298 298 298 299 300 301 304 306 306 306 308 309 310 310 309 309 308 307 306 306 306 306 303 302 300 299 299 299 299 297 295 292 288 288 288 289 288 288 287
295 296 295 296 296 296 297 297 299 300 301 305 305 305 306 308 309 308 308 308 307 307 306 306 305 305 303 301 300 300 299 298 299 293 289 288 288 288 288 288 287 287 287
291 292 293 293 294 294 295 296 298 298 300 303 304 304 305 305 307 307 307 306 306 306 305 305 304 304 302 300 299 300 299 298 298 292 288 287 288 288 288 287 288 288 287
291 290 290 291 291 292 293 294 295 297 297 300 302 304 303 304 304 305 305 305 305 304 303 303 302 302 302 301 300 299 299 298 297 291 288 287 288 288 288 288 288 288 287
290 290 289 290 290 291 291 292 293 293 295 297 299 301 302 302 302 303 304 304 304 303 302 302 302 302 301 299 299 299 298 298 296 291 288 287 287 287 287 288 288 288 288

GFSMW_850_thetae_081.txt.gz
Theta_e
326 324 331 329 330 329 328 328 329 327 329 329 330 332 329 327 327 328 329 331 333 333 334 334 334 334 333 331 329 330 331 331 329 329 327 328 328 324 323 320 318 319 317
320 326 325 330 328 329 331 328 329 329 329 330 329 330 330 328 328 328 329 329 331 333 334 334 333 333 334 333 331 331 331 329 329 329 328 327 325 322 321 322 321 315 318
319 319 320 326 328 329 330 330 331 330 330 330 325 328 327 327 328 328 328 330 332 333 333 333 333 332 332 332 331 331 330 330 328 328 328 325 325 325 324 321 317 315 320
320 319 320 319 327 327 328 327 329 329 331 332 326 328 329 329 327 328 331 332 330 330 332 332 332 332 331 331 330 330 329 328 327 327 327 324 325 325 324 314 312 313 313
320 319 320 320 320 320 321 325 328 330 331 331 331 330 330 328 325 327 326 326 330 330 329 328 329 331 330 330 330 328 327 325 324 325 322 319 319 313 312 313 312 312 313
320 320 319 320 321 321 320 320 322 325 329 329 329 329 329 329 329 330 327 329 325 329 330 329 329 326 328 329 326 324 324 323 324 323 323 318 312 312 312 312 312 312 312
320 319 318 319 320 320 320 320 320 322 323 329 329 327 327 327 328 328 329 328 327 326 329 327 327 326 325 325 324 322 323 321 321 320 319 317 312 312 311 311 312 313 312
320 320 318 318 319 320 320 320 320 320 321 322 327 326 326 328 328 327 327 328 328 328 328 328 328 326 326 326 323 323 323 324 322 316 314 314 312 311 311 311 311 313 312
315 311 313 315 317 317 318 318 319 319 319 319 319 319 320 320 319 321 325 327 327 327 327 328 327 326 325 323 323 324 323 320 318 315 313 312 311 311 311 310 310 311 311
310 311 311 311 311 311 312 312 313 314 316 317 319 319 319 319 318 318 317 319 323 325 325 326 324 324 324 324 324 321 319 317 316 313 312 311 311 311 310 309 309 309 312
310 310 311 311 311 311 311 311 311 310 311 311 311 312 315 318 318 318 317 317 317 322 325 325 324 324 324 323 321 320 316 315 313 312 311 311 311 310 309 309 308 309 309
309 310 310 310 310 310 310 310 311 311 310 310 311 311 311 315 317 317 317 316 316 318 324 325 325 325 325 323 319 315 315 313 312 311 311 310 309 308 308 308 308 308 309
308 309 309 309 309 309 309 309 309 309 310 311 311 311 311 312 314 316 316 316 316 318 322 323 322 319 317 316 315 313 312 311 311 310 309 308 308 307 307 307 307 306 307
306 306 307 307 308 308 309 309 309 308 308 309 311 311 311 312 313 313 314 314 315 316 316 316 316 315 314 313 312 311 310 310 310 309 308 307 307 306 306 304 305 305 305
303 303 303 303 304 305 306 306 307 309 309 308 308 310 311 311 312 313 313 313 313 313 313 313 313 312 312 311 310 310 310 310 309 307 307 306 305 304 303 303 303 303 304
302 302 303 303 304 304 304 304 304 304 305 308 309 308 309 312 311 312 312 312 312 312 312 312 311 311 310 310 310 310 309 307 306 305 304 303 301 301 301 301 300 300 301
301 302 302 302 302 302 302 303 303 303 303 303 306 308 308 309 311 311 311 311 311 311 310 310 310 309 309 309 309 309 307 306 305 303 302 301 301 301 301 300 299 299 301
302 302 301 301 301 301 301 301 301 301 302 301 303 307 308 308 309 311 310 310 310 310 309 309 309 309 308 308 308 307 306 305 303 302 300 300 300 300 300 300 300 297 293
300 300 300 300 300 299 300 300 301 301 301 301 303 306 308 307 308 310 311 310 310 309 309 308 308 308 307 307 307 306 305 303 301 301 300 300 300 300 299 298 298 293 289
299 299 299 299 299 299 299 299 300 300 301 302 303 306 307 307 307 308 310 309 309 309 308 308 308 307 306 306 306 305 304 303 301 300 299 300 299 298 297 298 291 289 289
298 297 297 297 297 297 298 299 299 299 299 301 303 305 306 306 307 308 309 309 308 308 308 307 307 307 306 306 304 304 303 301 301 301 301 298 297 297 298 290 289 289 289
294 294 294 294 295 294 295 295 296 298 298 299 300 304 305 306 307 308 308 308 307 307 307 307 306 306 306 305 303 303 301 300 300 300 300 299 299 296 290 289 288 288 288
292 291 291 291 291 292 292 292 293 295 297 298 299 301 304 304 305 307 307 308 307 306 307 306 306 306 305 304 303 301 300 299 299 298 297 295 292 289 288 289 288 288 288
291 290 290 290 290 290 290 291 291 292 293 296 298 299 301 303 304 304 306 306 306 306 306 306 306 306 304 304 303 301 299 299 299 297 296 290 288 288 288 288 288 288 288
290 290 289 289 289 290 290 290 290 290 291 292 293 296 298 300 302 303 304 305 305 305 305 305 305 304 303 304 302 301 299 299 299 298 297 289 288 288 288 288 288 288 288
289 289 289 289 289 289 289 289 290 290 290 291 292 293 295 297 299 301 302 302 303 303 303 303 303 302 302 301 301 299 299 298 297 297 297 293 288 287 288 288 288 288 288

GFSMW_850_thetae_084.txt.gz
Theta_e
326 327 329 326 330 326 327 327 326 326 326 327 328 329 329 329 330 331 331 332 332 332 332 329 333 334 334 332 329 327 328 329 331 330 328 330 330 329 328 326 322 322 315
323 326 325 326 329 328 326 327 326 327 327 328 330 331 330 329 328 328 329 329 330 331 332 332 333 333 334 334 332 329 330 331 331 329 331 328 328 326 324 326 319 317 312
319 325 323 325 321 327 329 327 327 328 328 328 325 324 326 329 330 329 330 328 329 329 330 331 332 333 333 333 333 332 330 330 329 328 329 328 326 326 325 324 319 313 315
318 319 322 323 321 323 325 325 328 329 329 329 325 327 325 325 327 327 327 328 331 331 331 331 331 330 332 332 332 331 330 330 329 328 327 326 328 325 323 322 317 313 313
320 318 319 320 325 323 323 323 323 326 328 324 328 327 326 328 327 326 325 326 328 327 329 330 329 328 328 330 331 331 329 329 329 326 325 324 320 318 319 318 318 315 316
322 320 317 319 320 321 324 326 327 328 328 329 329 330 329 328 328 328 325 324 324 325 325 326 329 329 328 329 328 327 329 325 324 322 322 322 323 320 313 314 317 317 316
320 316 317 318 319 319 317 318 319 323 328 329 328 328 328 328 327 327 328 327 326 327 325 324 325 328 327 328 328 326 325 323 323 322 323 323 319 313 313 312 312 313 313
320 318 312 320 317 316 317 318 318 320 322 326 327 327 328 327 327 328 328 327 328 328 327 327 328 328 327 325 324 325 323 323 323 321 322 321 313 313 312 311 311 314 314
316 314 310 312 312 312 315 316 317 318 318 319 321 323 322 323 326 327 328 327 327 328 326 327 327 328 327 326 326 326 324 322 322 324 318 314 315 312 311 311 311 311 314
310 313 312 310 310 310 310 311 311 313 313 314 316 318 318 318 318 318 318 319 323 325 326 326 327 327 327 326 324 323 323 324 324 319 315 315 313 312 311 311 311 310 312
309 309 310 309 309 310 310 311 311 311 310 311 311 312 312 315 318 318 317 317 317 318 324 326 326 326 326 325 323 323 324 322 318 315 315 313 312 311 311 310 309 309 309
307 307 307 307 309 309 309 309 309 309 310 310 310 310 311 312 314 316 317 317 316 316 318 324 326 326 324 324 324 324 320 319 316 315 313 311 311 311 310 309 308 308 308
303 303 304 306 307 308 309 309 309 309 308 309 310 311 310 311 311 313 315 316 316 316 317 321 325 325 325 324 324 322 320 316 314 312 312 311 311 310 309 308 308 308 307
303 303 303 304 304 304 304 305 305 307 308 309 308 308 310 311 311 312 312 314 315 315 317 321 323 324 324 323 320 316 315 313 312 311 311 310 309 308 307 307 306 306 304
303 302 304 304 305 305 306 306 306 305 305 305 306 308 308 309 311 312 312 313 314 314 315 316 316 317 316 315 314 313 312 311 310 310 310 309 308 307 306 306 304 303 304
302 303 304 304 305 305 306 306 306 305 304 304 303 304 306 308 308 311 312 312 312 313 313 313 314 313 313 312 311 311 310 310 310 309 308 307 305 304 302 301 301 302 302
303 304 304 304 304 304 303 303 303 303 303 303 302 302 303 306 307 308 311 311 311 311 311 312 312 311 311 310 309 309 309 308 307 306 305 304 302 301 301 301 301 301 300
301 300 300 300 300 301 301 302 302 302 302 302 302 302 302 304 307 307 308 311 310 310 310 310 310 309 309 308 308 308 307 306 305 305 304 303 303 301 300 301 301 300 300
299 299 299 299 299 299 299 300 300 301 301 301 301 302 303 304 306 307 307 308 310 310 310 309 309 308 308 307 307 307 306 305 304 304 302 302 302 301 301 301 300 300 296
298 298 298 297 297 297 297 297 298 298 299 300 301 301 302 304 306 306 307 307 309 309 309 308 308 307 307 307 306 307 306 305 304 303 302 302 301 300 300 299 298 299 293
296 295 295 294 294 294 294 293 293 294 295 298 299 300 300 303 305 306 306 307 307 308 308 308 308 307 307 306 306 307 306 305 303 302 302 302 301 299 298 297 298 292 290
293 292 292 292 291 291 291 291 291 292 292 293 296 298 299 301 304 304 305 307 307 307 307 307 307 307 307 306 306 306 306 304 302 301 301 301 299 298 296 297 291 289 289
292 291 291 291 290 290 290 290 290 290 290 291 291 293 297 299 301 303 304 305 306 307 307 307 307 307 307 306 306 305 305 303 301 300 299 299 298 297 296 294 288 288 288
291 291 290 290 290 289 289 289 289 290 290 290 290 290 291 294 298 301 303 303 304 305 305 306 306 306 306 305 305 305 303 300 300 299 299 298 296 295 293 288 288 288 288
289 289 289 288 288 289 289 289 289 289 289 290 290 290 290 291 293 297 300 301 302 302 304 304 305 305 305 306 306 304 304 302 300 299 299 298 294 290 288 288 289 288 288
288 288 287 287 287 288 288 288 288 289 289 289 289 290 290 290 291 292 295 298 300 300 301 302 302 303 303 303 302 302 301 300 299 298 298 298 297 292 288 288 288 288 288

GFSMW_850_thetae_087.txt.gz
Theta_e
324 324 328 328 328 328 327 328 330 328 326 326 325 332 333 331 330 329 328 329 331 332 332 331 327 331 333 333 331 330 329 328 328 330 331 331 331 330 330 329 328 325 325
323 326 325 327 329 329 328 329 328 327 326 326 325 331 332 332 333 333 332 332 332 331 331 332 330 332 333 333 333 331 329 329 329 331 331 331 330 329 328 326 327 324 322
320 324 325 325 325 325 328 327 329 326 326 327 327 330 328 329 330 331 330 329 329 329 330 330 330 332 332 333 334 333 330 330 331 331 330 329 328 327 326 327 325 322 320
319 320 325 325 321 321 322 328 328 329 327 327 328 328 326 327 329 329 329 329 328 329 329 330 330 330 331 331 331 331 332 331 331 330 328 329 328 327 326 326 322 317 316
319 318 322 324 322 321 322 325 325 327 327 327 328 328 326 327 326 328 327 325 325 323 325 329 331 330 330 329 329 329 328 331 330 329 329 327 325 324 323 323 320 319 318
319 316 318 322 324 320 322 323 323 323 324 325 324 326 325 325 325 327 326 325 325 323 324 327 327 328 328 326 327 327 325 325 327 330 328 326 323 323 322 322 318 317 318
318 315 314 317 321 320 322 324 325 324 325 327 328 326 326 326 322 322 323 324 324 322 322 324 323 324 326 326 326 325 326 327 328 328 323 324 322 323 324 319 314 314 315
312 316 314 316 317 320 317 317 318 320 321 326 327 328 328 327 326 326 326 327 325 325 324 323 323 324 324 325 327 326 327 326 324 324 323 322 322 322 320 313 313 315 315
310 311 312 311 312 314 314 315 316 318 320 321 325 325 326 327 327 327 328 328 328 328 327 327 326 327 327 327 327 325 326 325 323 323 323 322 322 320 314 313 311 311 313
310 312 312 310 309 310 310 311 312 313 314 316 317 318 321 324 325 327 329 328 329 328 326 326 327 327 327 327 327 326 325 325 325 323 321 322 321 314 314 312 311 311 311
307 308 311 312 310 309 308 309 310 310 310 311 312 312 314 316 317 317 317 318 321 323 325 326 326 327 327 327 327 326 326 324 323 322 323 322 316 314 313 311 311 311 310
307 307 305 305 306 306 307 308 308 308 309 309 310 310 311 312 313 315 316 316 316 317 318 323 326 327 326 327 327 326 324 323 322 323 322 317 315 313 311 311 311 310 309
305 305 304 304 304 304 306 307 308 308 308 308 308 308 310 311 311 312 314 315 316 316 316 317 321 325 326 326 325 325 324 323 324 321 319 316 315 312 311 310 310 309 308
305 304 304 304 304 305 306 306 306 306 306 306 306 307 308 308 310 311 311 312 314 315 316 317 320 323 325 325 325 324 324 322 320 319 316 314 312 311 310 309 308 308 307
305 304 304 303 303 305 305 305 305 305 305 305 305 305 305 306 308 309 311 312 312 313 314 316 318 320 323 324 324 324 322 320 317 314 312 311 310 310 309 308 307 307 306
305 304 303 302 302 302 302 302 302 303 303 303 303 303 303 303 304 307 308 311 312 312 313 313 314 315 317 319 319 317 315 314 312 311 310 310 309 308 306 306 305 305 304
304 303 303 302 301 301 302 302 302 302 302 302 302 302 302 302 303 303 306 307 310 311 312 312 312 313 313 313 313 312 311 310 309 309 308 307 307 306 304 304 303 302 301
303 302 302 302 301 300 300 300 300 301 301 301 302 302 302 302 302 303 305 307 307 310 311 311 311 311 311 311 311 310 309 308 308 308 307 306 305 304 303 303 302 301 300
301 300 299 299 299 299 298 298 297 297 297 299 300 300 301 301 302 303 305 306 307 307 309 310 310 310 310 310 309 308 308 308 307 306 305 305 304 303 303 302 301 300 299
299 298 298 297 297 297 295 294 294 294 294 295 295 297 299 299 300 302 304 305 306 306 307 309 309 309 309 309 308 308 307 307 306 305 305 304 303 303 301 300 300 298 299
296 294 294 294 293 293 292 291 292 292 292 292 293 293 294 297 299 300 302 304 305 305 306 307 308 308 308 307 307 307 307 307 306 305 305 303 302 301 299 299 299 298 298
294 293 293 293 293 293 292 291 291 292 291 290 291 291 291 292 294 298 299 302 302 303 304 305 306 308 308 307 307 306 307 306 306 305 304 302 301 300 299 298 297 297 295
293 293 293 293 293 293 292 291 290 290 290 290 290 291 291 291 291 291 296 299 301 302 302 302 304 306 306 307 306 305 305 305 305 305 303 301 300 299 298 297 296 296 290
293 292 292 292 292 291 291 291 291 290 290 289 289 290 290 290 291 291 291 294 298 300 301 301 301 302 304 305 306 305 304 304 304 304 302 300 299 298 297 296 295 293 289
292 291 290 290 290 289 290 290 290 290 289 289 289 289 290 290 290 291 290 290 292 296 298 299 300 301 301 303 304 304 304 304 304 304 300 299 299 298 296 294 295 291 289
290 290 290 289 288 288 288 288 288 289 290 290 290 290 290 289 289 290 290 290 290 291 296 298 298 300 301 300 301 301 303 303 302 301 300 299 299 299 298 294 292 289 289

GFSMW_850_thetae_090.txt.gz
Theta_e
321 323 324 325 327 327 325 324 325 328 329 327 327 322 326 332 329 329 332 332 333 332 331 330 329 328 332 332 329 329 327 328 328 328 328 329 330 330 330 329 329 329 326
321 321 322 324 327 327 327 327 324 324 329 328 326 325 324 330 331 327 329 329 329 332 333 334 332 328 328 331 332 332 330 329 328 328 329 330 330 329 330 329 328 325 324
321 321 325 325 327 326 326 327 328 328 329 328 327 325 325 329 331 328 328 328 330 331 331 331 332 331 330 332 332 333 332 331 329 328 330 331 330 330 329 328 326 326 319
320 321 323 324 326 326 324 323 327 328 328 327 327 326 326 327 329 330 331 331 330 329 328 329 329 329 330 331 331 331 331 331 331 330 329 329 328 328 326 326 326 324 319
319 319 322 324 325 321 321 321 324 327 328 327 327 328 327 327 329 329 328 328 328 327 323 323 324 326 329 329 330 330 328 328 329 327 327 329 329 327 326 325 322 320 319
318 317 320 321 324 322 320 322 323 324 326 325 328 327 327 327 326 327 327 328 326 325 325 325 323 323 323 327 329 326 327 327 326 326 325 329 328 327 325 322 321 321 319
317 316 317 318 320 322 321 321 323 324 324 322 323 325 325 326 326 326 323 323 326 326 325 324 323 322 327 327 328 327 326 325 324 325 326 326 327 324 323 322 322 322 317
315 317 316 317 318 321 320 322 322 322 322 323 324 325 326 324 324 321 322 322 324 325 325 322 323 324 324 323 325 326 325 324 324 326 326 327 323 322 321 322 323 318 314
312 314 316 313 312 314 314 317 318 319 320 321 323 324 323 324 323 324 325 326 325 326 324 323 323 324 323 324 325 325 325 325 323 326 325 325 323 322 322 322 318 313 313
310 310 310 312 310 311 311 312 314 314 315 316 316 320 325 326 325 326 325 326 327 327 327 326 326 326 326 326 326 326 324 325 325 325 324 323 323 322 322 318 314 313 311
309 310 310 310 308 308 308 309 310 310 311 311 312 314 315 317 319 321 323 326 328 326 327 326 326 326 325 326 326 327 326 324 325 325 324 324 323 321 322 315 314 313 311
306 305 307 311 308 306 307 308 308 308 308 309 310 310 310 311 312 314 316 316 317 317 319 321 321 324 325 326 326 326 326 326 325 325 325 324 322 323 318 315 314 312 311
306 305 305 305 305 305 305 304 305 305 305 306 307 308 308 308 310 310 311 312 314 315 316 316 317 320 324 325 325 328 327 327 326 325 323 322 323 320 316 315 313 311 310
304 304 304 304 304 304 305 306 306 306 307 307 306 306 305 306 307 308 309 310 311 312 313 315 316 318 320 324 325 325 326 326 325 323 323 321 319 316 314 312 310 310 309
304 304 304 303 303 304 304 304 304 305 305 304 305 305 305 304 304 305 307 308 310 311 312 313 314 315 317 321 323 322 324 324 323 321 320 316 314 313 312 310 309 309 308
304 304 303 303 303 303 303 303 303 303 303 303 303 304 304 304 303 303 303 305 307 309 311 312 313 313 315 316 319 321 321 320 319 318 316 314 313 311 310 309 309 308 307
304 303 303 303 302 301 301 300 300 300 301 301 301 302 302 302 302 302 303 303 305 307 308 311 311 312 312 314 316 318 317 316 315 314 313 311 310 309 309 308 307 305 304
303 302 301 300 299 299 299 297 297 297 297 297 298 298 299 301 301 302 302 303 304 305 306 308 310 310 311 311 312 312 313 312 312 311 310 309 309 308 308 306 305 303 302
301 301 301 299 298 297 296 295 295 295 294 294 294 294 294 296 297 300 301 302 303 304 305 306 307 309 310 310 310 310 310 310 310 309 308 308 308 306 306 304 303 302 302
300 299 296 296 296 295 295 294 293 293 292 293 292 292 292 292 293 294 297 300 301 303 304 304 306 306 307 309 309 309 308 308 308 308 307 306 306 305 304 303 303 302 301
296 295 294 294 294 293 293 293 293 293 293 292 291 291 291 291 291 291 292 293 298 300 301 302 304 304 305 306 307 308 307 307 307 307 306 306 305 305 303 302 302 301 300
295 294 293 293 293 293 293 292 291 291 291 290 290 290 290 290 291 291 291 291 293 297 299 301 302 302 304 305 306 306 307 307 306 306 306 305 304 303 302 301 300 299 299
294 293 293 292 292 292 291 291 291 291 290 290 289 289 289 289 289 290 290 291 291 293 296 299 301 301 302 303 303 304 305 305 306 306 305 303 303 302 301 301 299 299 298
292 292 292 291 290 290 289 289 289 290 290 289 289 289 289 289 289 289 290 290 290 290 290 294 297 299 300 300 301 301 302 302 303 305 304 303 303 301 301 299 298 298 296
292 291 290 289 289 288 288 288 288 288 289 289 289 289 289 289 289 289 289 289 290 290 290 290 292 295 296 299 299 299 299 300 301 302 301 300 300 299 300 298 297 297 296
290 289 288 288 288 287 287 287 287 287 287 289 289 289 289 289 289 288 288 288 289 288 289 289 290 292 295 296 298 298 298 298 299 299 300 299 298 299 300 299 298 297 296

GFSMW_850_thetae_093.txt.gz
Theta_e
308 309 319 321 323 325 325 325 324 324 324 327 327 327 328 327 326 325 329 330 328 329 328 326 325 326 327 327 328 327 325 324 326 328 327 326 328 330 330 330 329 328 328
309 315 323 320 323 324 325 325 325 327 326 327 326 327 327 326 328 327 328 326 330 329 330 328 329 330 331 332 331 329 328 328 328 328 328 328 328 328 328 330 329 328 329
319 320 320 320 321 323 324 324 325 324 324 324 325 328 326 325 325 327 327 327 324 330 330 329 330 331 329 330 331 331 331 331 330 329 328 330 330 329 329 329 330 328 328
319 319 319 319 323 323 324 325 325 326 325 323 326 328 327 325 324 325 329 326 326 328 328 328 329 332 330 327 329 331 332 331 330 330 329 328 329 328 327 329 327 327 325
319 319 321 322 323 323 323 321 321 325 327 326 327 327 327 326 325 326 329 325 326 326 324 325 328 328 329 329 329 329 329 328 329 330 329 328 326 327 327 325 326 326 322
319 318 319 321 322 322 322 322 324 325 327 327 327 327 327 327 326 326 327 329 327 329 327 326 325 325 325 325 326 328 328 325 327 326 327 327 326 326 326 326 324 323 321
316 316 319 319 319 321 321 321 322 324 324 325 326 325 325 326 326 326 326 327 327 327 325 325 325 324 324 324 325 324 326 327 327 326 325 325 325 325 327 326 323 324 322
313 313 314 315 316 318 320 320 322 322 322 323 323 323 323 325 326 325 324 325 324 324 322 325 325 323 322 323 325 326 326 327 326 325 324 324 325 325 326 327 322 322 323
310 310 312 311 314 315 316 317 318 320 321 321 321 320 320 322 321 321 321 321 323 321 324 324 324 323 323 323 324 323 324 325 326 324 324 325 323 322 322 321 321 321 322
309 308 310 310 311 310 312 315 315 315 319 318 321 321 323 323 322 322 323 324 324 325 325 325 324 323 323 324 324 323 325 323 323 325 323 324 323 323 323 321 320 322 321
309 308 309 309 309 308 309 309 309 310 311 312 312 314 315 318 322 321 323 324 325 326 326 326 326 325 325 324 323 324 325 325 323 323 322 324 324 323 323 322 322 321 317
307 308 309 310 307 306 306 307 306 307 308 308 308 309 310 311 312 313 314 315 316 316 316 318 320 323 325 325 325 325 325 325 325 324 323 324 324 324 323 322 322 317 313
303 303 303 304 304 304 304 305 306 306 306 306 306 306 306 307 308 309 310 310 311 312 313 315 315 316 317 318 321 325 326 326 324 326 325 325 325 324 323 322 321 314 312
304 304 304 304 305 305 305 305 305 305 305 305 306 306 306 306 306 305 306 307 308 310 311 311 312 314 316 317 317 323 324 323 324 324 325 324 325 324 323 321 317 313 312
304 304 304 304 304 304 304 304 303 304 304 305 304 305 305 305 304 304 304 304 304 306 308 310 311 312 313 315 316 319 320 321 322 322 322 322 322 322 321 318 313 312 311
304 304 304 304 304 303 302 302 302 302 302 301 302 302 302 302 303 303 303 303 303 303 304 307 310 311 312 313 314 316 318 319 321 321 321 320 319 320 317 314 312 310 310
304 304 303 302 302 301 301 300 299 299 298 298 298 298 298 298 299 301 302 302 303 303 303 304 306 309 311 311 312 313 315 317 318 319 319 318 317 315 314 312 310 309 308
304 303 302 301 300 298 298 298 296 296 296 296 295 295 295 295 295 295 296 298 301 302 303 303 304 306 307 310 310 311 311 313 314 314 314 314 314 313 311 309 308 307 306
303 301 300 298 297 296 296 296 295 294 293 293 293 293 292 292 293 293 293 293 294 297 300 301 303 304 306 307 309 309 309 310 311 311 311 310 309 309 308 308 307 305 305
301 300 298 297 296 295 294 293 293 293 292 292 292 292 291 291 291 291 291 292 292 292 293 297 300 302 303 304 305 307 308 309 309 309 309 308 308 306 306 307 305 304 304
299 297 296 296 295 295 294 294 293 293 292 291 291 290 290 290 290 290 290 290 291 291 291 292 297 300 301 302 303 305 305 306 307 307 307 307 307 306 305 306 304 303 302
295 294 294 293 293 293 292 292 291 291 291 290 290 289 289 289 289 289 289 290 290 290 290 290 291 297 300 301 302 303 304 304 305 306 306 306 305 305 304 304 302 301 301
294 293 293 292 292 291 290 290 290 289 289 290 289 288 288 288 288 289 289 290 289 289 290 290 289 289 296 298 300 300 301 301 302 304 305 304 303 303 303 303 301 300 300
292 292 292 291 290 289 288 288 287 287 287 287 287 288 288 288 288 289 289 289 289 289 290 290 289 290 289 292 297 299 299 300 300 301 301 302 302 302 301 300 300 299 299
291 291 290 289 288 288 287 287 287 287 286 286 287 287 288 289 289 289 289 289 288 288 289 288 289 289 289 289 291 294 296 298 298 299 300 300 299 299 299 299 299 299 298
290 289 288 287 287 287 287 287 287 287 287 286 286 287 288 288 288 288 288 288 287 288 288 288 288 289 288 289 290 292 295 296 297 297 298 298 298 299 299 299 299 299 298

GFSMW_850_thetae_096.txt.gz
Theta_e
307 307 308 308 311 322 320 323 326 324 324 326 326 326 327 327 327 326 327 325 324 326 327 328 330 329 329 327 326 327 324 321 323 323 322 324 326 328 328 329 329 329 328
307 307 309 309 320 319 323 323 325 324 324 325 326 327 327 327 328 327 327 328 327 328 329 330 328 330 330 330 328 324 323 324 324 324 327 328 327 327 329 330 329 327 328
309 312 312 316 322 321 324 323 324 324 324 324 327 325 327 327 327 327 328 327 329 328 327 327 327 330 329 325 325 328 329 327 326 327 328 328 327 327 327 328 329 330 329
316 315 317 320 321 321 323 323 323 323 324 325 324 324 325 326 326 326 327 327 328 328 327 329 329 326 326 327 328 329 328 327 329 329 328 328 328 329 329 329 329 330 329
315 317 318 320 320 321 323 323 323 323 325 326 326 325 325 322 324 327 326 324 326 327 327 329 328 327 329 327 326 328 326 327 329 328 328 328 328 328 328 328 328 326 324
316 317 318 320 323 321 322 321 322 321 322 325 326 328 326 326 326 327 327 324 324 328 326 325 328 328 327 326 327 328 328 329 327 327 326 327 327 327 327 326 326 326 325
316 316 316 318 319 320 321 322 321 322 323 324 325 326 327 326 327 326 326 325 325 325 326 327 327 324 324 325 326 326 326 326 326 325 325 327 327 327 325 326 326 326 324
312 313 314 315 317 319 320 320 321 322 322 323 323 324 323 323 324 324 327 326 326 327 326 326 326 326 325 324 324 324 324 324 324 324 326 327 327 327 327 326 325 324 322
310 310 311 311 311 314 314 317 319 320 320 321 321 320 323 324 323 323 323 322 324 325 325 323 323 324 325 325 323 324 324 324 325 326 327 326 325 325 325 325 326 324 324
308 308 309 309 307 309 311 312 314 317 318 319 321 322 321 321 323 322 321 321 322 322 321 324 325 325 324 324 323 323 324 324 323 324 325 326 325 324 324 323 324 323 321
307 306 308 307 306 306 307 308 310 311 312 313 316 316 318 320 321 322 323 323 323 324 325 325 326 325 323 322 323 323 324 324 324 325 323 323 324 323 321 321 321 320 320
306 307 307 308 308 308 310 305 305 306 307 307 308 308 309 310 311 312 313 314 314 315 315 316 317 319 323 324 323 324 322 322 323 324 325 323 321 321 323 323 323 322 322
305 306 304 303 303 304 304 305 305 305 305 305 306 305 305 305 305 305 306 307 309 310 311 312 313 315 316 317 320 323 325 325 324 324 324 325 323 322 323 324 323 323 322
303 304 304 303 303 303 303 303 303 303 303 303 303 303 304 304 305 305 305 305 304 305 307 309 310 311 312 314 316 317 320 322 322 323 324 323 325 324 323 324 324 323 321
304 303 304 304 303 302 302 302 302 302 302 302 302 302 301 301 301 302 302 303 304 304 304 304 306 309 311 312 312 314 315 319 319 321 322 322 322 322 323 323 322 322 320
304 304 304 303 302 302 301 301 300 300 300 300 299 298 298 298 298 298 298 299 300 302 302 303 303 304 307 310 311 312 312 314 317 318 318 319 321 321 321 321 322 321 321
304 304 303 302 301 300 300 300 299 298 297 297 296 296 297 296 295 295 295 295 295 295 297 300 302 303 304 306 309 310 311 312 314 315 316 318 319 320 321 321 320 317 314
304 304 302 301 299 298 298 297 297 297 296 295 294 294 293 293 293 294 294 294 294 294 293 294 296 300 302 303 305 308 309 309 311 313 314 315 316 315 317 317 315 315 312
303 301 300 298 297 296 295 295 294 294 293 293 292 292 292 292 292 292 292 292 292 293 292 292 293 292 296 300 301 303 305 307 308 309 311 312 314 312 312 312 312 311 311
301 299 298 296 295 294 294 294 293 292 292 291 291 291 290 290 290 290 290 290 291 291 291 291 291 291 292 297 300 301 302 305 306 307 308 309 309 310 310 310 309 308 307
301 299 298 297 295 294 293 292 292 292 291 291 290 290 289 289 289 289 289 289 289 289 289 290 290 290 290 293 299 300 301 302 303 305 306 306 307 307 307 307 306 306 305
299 297 295 294 293 292 292 292 292 291 290 289 288 288 288 288 288 288 288 288 288 289 289 289 289 289 290 290 292 298 300 300 300 302 303 305 305 305 305 305 305 304 303
295 293 292 292 292 291 290 289 288 287 287 286 286 286 287 287 287 287 288 288 288 288 288 288 288 289 289 289 290 291 296 298 300 300 301 302 303 303 303 303 303 302 301
292 291 291 291 290 288 287 287 287 287 287 287 287 287 286 286 286 287 288 289 288 288 288 288 288 288 288 288 289 290 290 295 297 298 300 300 300 300 301 301 301 301 301
291 290 289 288 287 287 287 287 287 287 287 286 286 286 286 286 286 287 288 288 288 288 288 287 288 288 287 288 288 289 290 291 293 295 297 298 298 299 299 299 299 300 300
288 288 287 287 287 287 287 286 286 286 286 286 286 286 286 286 287 287 288 288 288 288 287 287 287 287 288 288 287 288 289 289 291 294 296 296 297 298 299 298 298 298 298

GFSMW_850_thetae_099.txt.gz
Theta_e
307 307 307 307 307 308 319 322 320 324 325 326 326 326 325 325 325 326 326 326 326 324 327 324 325 327 325 322 325 322 323 325 326 325 324 324 323 324 326 327 328 329 330
306 307 307 307 309 309 318 321 317 322 326 324 323 324 325 326 326 327 327 326 326 326 325 325 327 325 326 328 326 319 323 325 327 325 324 324 323 322 325 327 328 329 329
306 307 308 309 310 313 321 321 323 325 326 324 323 324 325 326 327 327 327 327 327 327 327 326 327 327 327 328 328 325 325 326 326 324 325 326 326 325 325 326 328 329 329
307 309 314 313 318 319 318 323 324 323 323 323 323 324 324 325 325 326 326 327 326 327 327 327 327 327 325 329 328 326 328 328 325 325 326 326 327 327 327 326 326 329 329
314 314 318 320 319 321 322 323 324 324 323 323 324 325 325 324 324 326 325 326 326 326 325 328 327 329 327 328 329 329 329 327 326 328 326 327 328 328 328 328 327 327 327
315 315 317 319 320 320 321 321 322 322 322 322 322 323 325 325 325 325 325 326 326 326 326 325 328 327 326 327 329 328 327 328 328 327 327 327 328 328 328 328 327 325 324
313 315 315 316 318 320 321 321 321 321 321 322 322 324 324 324 326 325 327 326 325 326 326 325 327 328 326 326 326 326 326 325 326 325 326 327 327 326 326 326 325 326 325
311 312 312 314 316 317 317 321 321 321 322 322 322 323 324 325 325 324 324 324 327 327 326 325 325 326 325 326 326 326 326 326 326 326 326 326 326 325 324 324 326 326 325
308 309 310 311 312 314 314 318 318 319 320 321 321 320 321 323 323 323 324 323 323 325 326 326 326 326 326 326 326 324 324 323 323 324 324 324 323 323 323 324 325 327 325
306 307 308 308 308 310 310 312 314 315 315 316 318 319 320 321 322 322 321 321 322 322 322 323 324 324 324 324 325 325 324 323 324 324 324 324 324 323 324 326 327 326 325
306 307 307 307 306 306 309 309 307 311 310 311 311 310 312 315 320 318 320 322 320 321 323 322 321 322 322 324 323 324 323 323 323 324 324 323 324 324 324 323 325 324 324
304 304 305 306 307 308 307 307 307 307 307 307 306 306 306 308 310 307 308 309 310 311 312 314 315 318 321 323 324 323 322 322 323 323 323 324 323 323 323 323 321 321 321
306 304 303 303 304 305 307 306 307 306 304 303 304 304 304 304 304 304 304 304 304 305 306 308 310 311 313 315 318 323 324 324 323 322 322 322 323 324 324 321 322 321 322
302 302 301 301 301 301 300 300 301 302 301 301 301 302 301 302 301 301 302 302 303 304 304 304 304 306 309 311 312 314 316 318 320 323 323 322 324 324 325 324 321 322 323
303 303 303 302 301 300 300 299 299 299 299 299 299 298 297 297 297 297 297 297 297 298 300 301 303 303 304 306 309 311 312 314 315 319 318 321 321 322 322 323 323 323 322
303 303 302 301 301 300 299 299 298 298 297 296 296 296 297 296 295 294 294 295 295 295 295 295 296 299 302 303 305 308 310 311 312 313 315 316 318 319 321 322 321 322 321
303 303 302 301 300 298 298 297 297 296 295 294 294 293 292 292 293 293 293 293 292 292 293 293 293 294 295 298 301 303 305 308 310 310 311 312 314 317 318 319 320 320 321
303 303 301 300 299 298 297 296 296 295 294 293 293 293 293 293 293 292 292 292 292 292 292 291 291 292 292 293 293 296 301 302 305 308 309 311 311 313 315 317 318 319 318
303 302 300 298 296 295 294 294 293 292 291 291 291 291 291 291 290 290 290 290 289 289 289 290 290 290 291 291 291 294 295 298 301 303 306 308 309 311 311 312 313 314 314
301 299 297 296 295 293 293 292 292 291 291 291 290 289 288 288 288 288 288 288 288 288 288 288 289 289 289 289 290 291 298 299 299 301 302 306 307 309 309 309 309 310 312
298 297 296 294 293 292 292 292 292 292 291 290 289 288 288 287 287 286 286 287 287 287 287 288 288 288 288 288 289 290 291 297 297 298 301 302 305 306 307 307 307 308 308
299 298 296 294 293 292 292 291 289 288 287 287 287 287 287 287 287 287 286 286 286 287 288 288 288 288 288 288 288 288 289 291 295 296 298 301 303 304 305 304 305 305 305
297 294 292 292 291 290 289 288 287 287 287 287 287 286 286 286 286 286 286 286 286 287 288 288 288 288 287 287 288 288 288 289 292 295 296 297 300 302 303 304 303 303 303
292 292 292 291 289 288 287 287 287 287 286 286 286 286 286 286 286 286 286 286 286 288 288 288 288 287 287 288 288 287 288 289 289 291 295 296 297 299 301 301 301 301 301
292 291 289 288 287 287 287 287 287 286 286 286 286 285 285 285 285 285 285 286 287 288 287 287 287 286 286 286 288 288 288 287 288 289 290 293 296 297 298 299 299 300 300
289 288 287 287 287 286 286 286 286 285 285 284 284 284 284 284 285 285 285 285 287 287 287 287 287 286 286 287 287 287 287 287 287 288 289 291 293 296 296 297 298 298 299

GFSMW_850_thetae_102.txt.gz
Theta_e
306 306 306 306 307 307 307 308 321 323 325 325 326 325 325 324 324 325 326 325 325 326 327 327 327 327 328 324 324 322 322 323 322 325 322 324 324 323 322 323 324 327 327
305 306 306 306 306 307 307 308 321 321 324 325 325 326 325 325 325 325 325 326 326 326 326 326 325 324 325 324 320 319 319 320 322 325 325 327 325 323 322 322 324 326 327
306 306 305 306 307 307 308 312 320 320 321 326 326 325 324 323 324 325 326 326 326 327 326 326 326 326 326 325 325 322 321 320 321 321 324 325 324 322 321 321 321 323 326
307 307 307 309 311 309 308 315 320 320 321 324 326 324 323 322 323 324 324 325 326 326 327 327 327 325 326 325 326 326 324 326 324 321 325 326 324 325 324 323 322 323 326
312 313 314 315 314 313 317 320 320 322 322 323 324 323 323 323 323 324 324 324 325 324 326 326 327 327 327 327 326 326 326 325 325 322 325 326 326 325 327 327 326 325 324
313 313 314 316 318 317 317 318 319 321 322 323 323 323 324 324 324 323 325 324 324 324 324 325 326 327 326 326 327 326 325 323 326 327 324 327 326 325 327 327 327 327 327
311 313 313 315 316 318 319 319 320 321 321 321 321 322 323 322 323 323 324 325 324 326 325 324 325 326 326 325 328 328 326 324 326 326 327 327 326 327 326 325 326 326 327
309 310 311 312 314 315 317 318 319 321 321 321 321 321 321 322 321 325 324 324 324 325 326 325 326 326 325 325 324 325 324 325 326 326 326 326 326 325 325 326 326 326 325
306 306 309 311 312 313 314 315 317 318 319 319 319 320 320 320 322 322 323 322 323 323 324 324 324 324 326 325 325 326 324 322 324 325 325 325 326 325 326 326 325 324 324
305 305 305 307 308 309 310 311 312 313 313 311 312 314 316 317 317 316 317 321 321 321 322 322 322 322 324 324 324 325 325 325 323 321 323 324 323 322 323 324 323 323 324
305 305 305 305 305 305 305 305 306 307 307 305 304 306 306 308 311 310 307 307 310 311 312 313 318 321 322 321 322 321 321 324 324 324 324 322 320 321 323 324 324 324 325
305 305 306 306 307 307 308 308 306 304 303 305 307 306 305 304 304 308 309 303 304 304 305 307 310 311 313 316 319 321 321 323 321 322 323 323 322 322 324 323 323 323 323
304 303 303 303 303 304 305 306 307 307 306 305 303 301 300 301 300 300 300 299 300 301 302 303 304 305 307 310 312 314 317 320 322 322 322 321 322 321 321 323 323 323 322
302 301 301 301 300 300 299 298 298 298 297 297 297 298 297 297 296 295 296 295 295 296 297 297 298 300 302 303 305 308 310 312 315 318 320 321 322 322 322 322 323 322 323
302 302 301 300 299 299 298 297 297 296 296 296 296 296 295 295 295 295 295 294 294 294 295 295 295 295 295 297 300 302 304 306 309 311 313 315 317 320 320 321 321 322 323
303 302 301 300 299 298 297 297 297 297 296 296 296 295 294 294 293 293 293 293 293 293 293 293 293 293 294 294 294 294 296 300 303 305 308 310 312 315 317 318 319 319 320
303 303 302 300 299 297 296 296 296 295 295 294 294 294 293 293 293 293 292 292 292 292 292 292 292 292 292 292 293 293 293 293 294 298 302 305 309 310 313 314 316 318 318
303 302 301 300 298 297 297 296 295 294 294 293 293 292 292 291 290 290 289 289 289 288 288 289 289 289 290 290 291 291 291 292 293 294 296 300 301 306 308 311 312 314 316
303 302 300 299 298 297 295 294 293 292 291 291 290 288 288 287 287 287 287 287 286 286 287 287 287 287 288 288 288 289 289 290 291 293 294 296 299 301 305 307 309 311 313
303 301 299 298 296 294 292 292 291 290 289 288 287 287 287 287 287 287 287 287 287 287 286 286 286 287 287 287 287 288 288 288 289 288 294 297 299 301 302 305 307 309 310
301 299 297 295 293 292 291 291 289 288 287 287 287 287 287 287 287 287 287 286 286 286 286 286 286 287 287 287 287 287 287 288 288 289 291 293 295 297 300 302 304 307 308
298 297 295 292 291 291 290 289 288 287 287 287 287 287 287 287 286 286 286 286 286 286 286 286 287 287 287 287 287 287 288 288 289 289 290 291 294 295 297 300 302 304 305
297 295 292 292 291 289 288 287 287 287 287 287 286 286 286 286 286 285 285 285 286 285 286 287 288 287 287 287 287 287 287 288 288 288 288 289 291 294 295 297 300 301 301
295 293 292 291 289 288 287 287 287 287 286 286 285 285 285 285 285 285 285 285 285 285 286 287 287 287 287 287 287 286 287 287 287 287 287 288 289 290 294 296 298 299 300
292 292 291 289 288 288 288 287 286 286 285 285 285 285 285 285 285 285 285 284 285 285 286 287 287 287 286 287 287 287 287 287 287 287 287 287 288 289 291 294 296 297 298
292 290 288 287 288 287 286 286 286 285 285 285 284 284 284 284 284 284 285 285 285 285 285 286 286 286 286 286 287 287 287 287 287 286 286 286 287 289 289 292 294 295 296

GFSMW_850_thetae_105.txt.gz
Theta_e
306 306 306 306 305 306 306 306 306 309 319 324 325 328 328 327 326 327 328 327 325 325 325 326 327 327 328 328 328 326 326 328 325 322 321 323 322 320 319 322 321 321 322
306 306 306 306 305 306 306 306 307 310 317 324 324 324 325 325 325 324 324 325 325 325 325 326 327 328 327 328 328 327 324 327 323 323 322 324 320 320 321 323 322 322 322
311 309 306 306 305 305 306 306 307 316 317 323 324 325 325 325 323 323 325 325 325 326 326 326 326 326 325 325 324 324 324 322 322 321 321 322 323 324 322 321 321 320 321
311 311 311 311 308 306 307 306 307 310 316 322 320 322 325 325 323 322 322 324 324 325 326 326 327 326 326 326 326 326 325 324 323 320 319 320 323 324 323 322 320 319 319
310 309 311 314 314 312 311 310 312 312 319 318 319 323 325 324 323 322 323 324 323 324 324 325 324 325 327 326 326 326 326 325 325 325 324 321 321 323 325 325 324 323 323
310 310 312 313 315 314 313 319 320 317 319 321 322 324 325 325 323 323 323 323 324 324 324 324 324 324 324 325 326 326 326 326 326 325 326 325 324 323 324 325 325 324 325
307 308 310 313 315 313 314 315 316 316 318 320 321 323 322 322 322 322 322 324 323 324 323 325 325 324 324 325 325 326 326 326 326 327 326 325 324 325 324 325 325 325 325
305 304 307 311 314 314 316 316 317 318 318 319 320 319 320 319 319 321 322 323 322 323 322 324 326 325 326 326 326 326 325 326 326 327 327 324 322 322 325 325 324 325 325
304 304 305 307 310 312 313 314 313 314 315 316 316 317 318 318 317 317 317 318 318 320 318 321 323 323 324 324 324 326 324 324 326 326 325 321 321 324 325 324 324 324 324
304 304 304 304 305 306 308 307 307 308 307 306 307 307 307 309 313 312 308 308 309 309 309 311 315 319 321 322 322 324 323 324 326 324 324 324 323 324 325 324 324 324 324
304 304 304 304 305 305 304 304 306 305 306 308 308 304 304 305 305 309 311 308 306 306 304 304 306 309 310 314 318 321 321 321 322 321 324 323 321 324 324 324 323 323 321
305 305 305 305 305 305 306 306 306 306 306 306 305 305 304 302 301 302 305 304 306 301 301 302 303 304 305 307 310 311 315 319 321 321 322 321 322 323 321 322 323 322 320
304 304 305 305 305 304 304 305 305 304 303 302 302 302 300 298 298 297 297 298 298 298 297 298 297 298 299 301 303 305 308 310 312 314 317 321 320 321 322 322 323 323 321
302 302 301 300 300 299 298 298 298 299 297 298 297 294 294 295 295 295 295 295 295 295 295 295 295 295 295 295 296 297 298 301 303 306 310 312 316 319 320 321 321 321 321
302 302 301 300 299 298 297 297 296 296 295 294 294 294 294 293 293 293 293 293 293 293 293 293 293 293 294 294 295 295 295 295 296 296 299 302 306 310 313 316 318 320 321
303 302 301 300 299 297 297 296 295 295 294 294 294 293 293 293 292 292 291 291 290 290 290 290 290 290 291 292 292 292 293 294 294 295 296 295 296 300 305 310 313 315 317
303 303 303 301 300 298 297 296 295 294 293 292 292 292 292 291 290 289 289 288 289 288 288 288 288 288 288 288 289 289 290 290 292 292 293 294 295 295 296 300 307 310 313
304 303 302 300 298 296 296 295 293 293 293 293 292 291 289 288 288 288 287 287 287 287 287 287 287 287 287 287 287 287 288 288 288 289 290 291 292 294 295 297 299 302 307
304 303 301 299 297 296 295 293 292 292 292 290 289 288 287 287 287 287 287 287 287 287 287 287 287 286 286 286 287 287 287 287 287 288 288 289 289 291 294 297 299 300 303
303 302 300 298 297 296 295 293 292 292 289 288 287 287 287 287 287 286 286 286 286 286 286 286 286 286 286 286 287 287 287 287 287 287 287 288 288 292 294 295 297 299 300
302 301 299 298 296 294 292 292 290 288 287 287 287 286 286 286 286 286 285 286 286 286 286 286 286 286 286 286 286 287 287 287 288 288 288 288 287 288 291 291 294 296 298
301 299 298 296 293 291 291 289 287 287 287 287 287 286 286 286 286 286 286 286 285 286 286 286 286 286 287 287 287 287 287 287 288 288 287 287 288 288 288 289 290 293 296
300 298 296 293 291 290 288 287 287 287 287 286 286 286 286 286 286 286 286 286 286 285 285 285 285 286 287 287 286 286 286 287 288 287 287 287 287 287 288 288 289 291 294
297 295 292 291 289 288 287 287 286 286 286 286 286 286 286 286 286 286 285 285 285 285 285 285 286 286 286 286 286 286 287 287 287 287 287 287 287 287 287 287 289 291 293
295 292 291 289 287 287 287 286 286 286 286 286 286 286 286 285 285 285 285 285 285 284 285 285 285 286 286 286 286 287 287 287 287 288 287 286 286 285 286 287 288 289 292
292 291 290 287 288 287 286 286 286 286 286 286 286 285 285 285 285 284 285 285 283 283 283 284 286 286 286 286 286 286 287 287 287 287 287 286 284 285 285 286 287 288 291

GFSMW_850_thetae_108.txt.gz
Theta_e
311 311 307 306 306 306 306 306 305 305 305 307 311 322 328 328 328 329 329 328 326 324 326 328 326 325 326 329 329 329 331 329 329 331 329 327 324 322 326 323 320 321 322
311 312 313 310 306 306 306 305 306 306 305 308 310 322 326 326 326 328 327 327 327 327 325 325 325 326 327 331 329 329 329 330 328 327 327 327 324 322 323 323 321 319 319
311 313 312 313 314 310 306 305 306 306 306 308 314 325 327 325 326 325 325 325 325 325 325 325 326 326 327 326 328 328 328 329 327 326 326 326 325 324 322 320 320 320 319
311 311 311 310 312 312 307 306 305 306 306 315 316 325 326 326 325 325 324 324 325 326 326 326 326 326 327 327 327 327 326 325 325 325 323 325 323 323 323 322 324 320 321
309 308 308 310 311 312 313 316 315 313 314 313 318 323 325 324 324 324 323 323 325 324 324 324 324 326 326 325 327 327 326 326 327 326 325 321 321 321 321 323 324 323 322
306 308 308 310 311 311 312 316 316 317 320 314 318 316 319 321 321 322 326 324 324 324 324 324 324 325 326 325 326 325 326 326 326 327 327 326 323 321 320 320 321 324 325
305 307 306 307 308 312 313 313 316 315 315 317 319 320 321 321 321 323 321 322 323 324 324 323 323 324 326 325 325 325 326 326 327 326 326 326 325 325 324 323 322 322 322
304 304 304 305 308 311 313 313 315 315 316 317 317 318 318 319 319 319 320 320 320 321 322 322 322 322 323 324 324 326 324 324 325 325 325 325 325 325 325 324 324 324 325
304 304 304 304 305 308 311 313 313 314 315 316 316 315 316 317 316 316 315 315 314 314 314 317 320 320 321 322 323 323 325 325 326 326 325 326 324 326 326 325 325 325 324
304 303 304 303 303 304 305 306 307 308 309 309 306 305 306 309 311 311 310 309 307 307 308 307 308 309 310 311 316 321 321 322 322 322 324 325 324 325 325 324 323 321 322
304 304 304 304 305 304 304 305 305 305 306 306 305 302 302 300 299 301 304 307 307 304 303 304 304 303 304 306 308 310 312 317 320 321 320 322 321 324 324 323 322 323 324
305 306 305 305 305 305 306 306 306 306 306 306 304 306 306 298 296 296 297 297 297 302 298 298 298 298 299 299 301 304 304 306 310 310 314 317 319 321 321 323 323 322 323
305 305 303 304 303 303 302 301 300 299 300 299 297 298 300 302 301 297 296 296 296 297 297 296 296 296 296 296 297 296 297 298 299 301 304 308 311 314 318 320 320 321 322
306 304 303 301 300 299 298 297 297 297 297 297 297 296 296 296 294 294 294 294 294 294 294 294 294 294 294 294 295 295 295 296 296 296 296 297 300 304 308 311 315 318 319
304 303 303 301 300 299 298 297 297 296 296 295 295 294 293 292 292 292 291 291 290 290 289 289 290 290 290 290 290 290 291 292 293 294 294 295 295 295 296 300 305 310 313
304 303 303 302 300 298 297 297 296 295 294 293 292 292 291 290 289 289 289 288 288 288 288 288 288 289 288 288 288 288 288 289 289 289 290 291 293 294 294 295 295 300 307
304 303 303 302 301 299 297 296 295 294 293 292 291 291 289 288 288 288 288 288 288 288 288 288 288 288 288 288 288 288 287 288 288 288 288 288 289 290 291 292 294 295 297
304 304 304 303 301 299 297 296 295 293 292 292 291 289 288 288 288 288 288 287 287 287 287 287 286 286 287 286 287 287 287 287 287 287 287 288 288 288 292 293 293 294 295
305 304 304 303 301 298 296 295 294 292 292 291 289 288 288 288 287 287 286 286 286 286 286 286 286 286 286 286 287 287 289 290 290 289 289 288 288 289 288 290 292 293 294
304 304 303 302 299 297 296 293 292 291 290 288 288 288 287 287 286 286 286 286 287 287 287 287 287 286 286 286 287 287 288 289 289 289 289 289 289 288 288 289 290 290 291
304 303 302 300 298 296 295 293 292 290 288 288 288 287 286 286 286 286 286 286 286 286 286 286 287 286 287 287 287 287 287 288 289 289 288 288 288 288 288 289 289 289 290
303 302 300 298 298 296 293 292 289 288 288 287 286 286 286 286 286 286 286 286 286 286 286 286 286 286 287 287 287 287 286 287 288 288 288 288 287 288 287 287 288 288 288
302 300 298 297 295 292 291 289 288 288 287 286 286 286 286 286 286 286 286 286 285 285 285 286 286 286 287 287 287 287 287 287 287 288 287 287 288 288 288 287 287 287 288
300 298 296 295 292 291 289 288 287 286 286 286 286 286 286 286 286 285 285 285 285 285 285 286 286 286 286 286 287 287 287 287 288 288 287 287 288 287 287 286 287 287 287
299 297 295 292 291 288 287 287 286 286 286 286 286 286 286 286 286 286 286 285 285 284 285 285 284 285 285 286 286 286 287 287 287 288 287 287 288 287 286 286 286 286 286
298 296 292 291 288 288 287 286 286 286 286 285 285 285 285 285 285 285 285 285 284 284 284 283 283 284 284 285 285 286 286 286 287 287 287 287 287 286 286 285 285 286 286

GFSMW_850_thetae_111.txt.gz
Theta_e
314 313 313 313 314 315 310 309 309 309 309 308 309 315 321 329 332 331 329 326 323 323 324 322 320 321 324 326 326 329 331 331 331 331 330 329 329 331 326 321 324 323 323
313 312 312 313 312 313 315 312 309 309 309 309 308 314 319 324 328 331 330 330 327 324 322 322 321 319 327 325 326 327 331 329 329 330 328 329 328 329 328 327 324 324 323
311 312 311 310 310 310 312 313 314 309 309 309 307 315 309 323 327 329 328 327 328 328 328 327 326 326 326 328 327 326 329 329 330 328 329 327 326 326 327 326 325 324 322
310 310 308 308 309 310 311 313 316 315 311 310 307 315 318 324 326 328 328 328 325 326 328 327 327 327 327 327 328 328 328 328 328 329 328 326 326 325 325 325 325 324 323
308 308 306 309 310 311 311 311 314 313 314 313 315 317 320 324 324 325 327 328 328 328 327 328 326 326 326 327 327 327 327 327 327 327 326 326 326 325 325 324 324 324 324
306 306 306 306 310 311 310 312 312 314 314 312 314 315 318 317 317 322 324 323 324 325 326 327 327 327 326 326 326 326 326 326 326 327 327 326 326 326 325 323 322 322 322
305 305 306 307 308 309 308 310 311 312 313 313 313 313 316 316 314 319 320 320 321 322 323 323 321 323 322 322 323 325 326 325 325 325 324 326 326 325 326 325 323 323 322
305 304 304 306 306 305 309 305 306 309 313 314 314 313 316 318 317 316 317 318 319 320 320 320 321 322 321 321 323 324 323 323 324 325 324 324 325 326 327 326 325 324 323
304 304 304 304 305 303 304 304 304 305 308 308 311 315 314 312 311 313 316 316 314 311 310 311 312 312 318 318 318 321 321 322 323 324 324 325 326 326 325 325 326 325 324
304 304 304 304 305 304 303 303 303 302 303 302 302 304 306 308 309 308 307 307 306 306 306 306 306 304 305 306 307 308 312 315 317 320 320 321 321 322 322 323 324 325 325
305 305 305 305 305 305 305 306 306 304 303 304 304 303 300 298 297 297 298 301 303 307 307 306 303 302 302 306 306 302 304 308 309 309 313 312 315 318 319 321 321 324 324
306 306 306 306 306 306 307 307 307 307 306 305 306 305 305 305 307 305 298 296 296 296 296 296 297 298 298 297 299 306 305 298 297 302 303 301 307 311 310 314 319 320 320
307 307 306 305 304 303 302 299 298 297 297 296 296 297 298 299 298 298 297 296 295 295 294 294 294 295 295 294 295 295 294 294 295 296 296 296 296 297 300 302 310 313 316
308 307 306 304 302 301 298 297 297 297 297 296 295 295 294 294 294 294 294 293 292 291 291 291 290 290 291 290 290 290 291 291 291 292 292 293 294 295 296 296 296 298 301
308 308 306 305 303 301 299 298 297 297 296 295 294 293 293 293 292 291 290 289 289 289 289 289 290 290 289 289 289 289 289 289 289 290 290 290 290 290 291 293 294 294 295
309 307 306 305 303 301 299 299 297 297 296 294 293 293 292 290 289 289 289 289 289 289 289 289 288 288 288 288 288 288 288 288 289 289 289 289 289 289 289 290 292 292 293
309 307 306 305 303 301 299 298 298 297 296 293 292 292 290 289 288 288 288 288 288 288 288 288 288 288 288 287 287 287 287 287 288 288 288 288 289 289 289 290 291 290 292
309 307 306 305 303 301 300 298 297 295 293 292 291 289 288 288 288 288 287 287 287 287 287 287 287 287 287 287 287 287 287 288 289 290 290 289 289 289 291 290 289 289 289
309 307 306 304 302 300 299 297 296 294 292 291 290 288 288 288 288 287 287 287 287 287 287 287 287 287 287 287 287 288 288 289 289 290 290 290 290 290 288 288 288 288 289
306 305 304 303 301 299 299 297 295 293 291 290 288 288 287 287 287 287 286 286 286 286 286 287 287 287 287 288 289 288 288 289 289 289 289 289 289 289 289 288 288 288 288
304 304 303 302 301 299 298 295 293 291 291 288 288 288 287 287 287 287 287 286 286 286 286 287 287 287 288 288 288 288 288 288 288 288 288 289 289 289 288 289 288 288 288
304 304 302 301 301 299 297 295 292 291 288 288 288 287 288 287 287 286 286 286 286 286 286 287 287 287 287 287 288 288 288 288 288 287 288 288 288 288 289 289 289 288 288
302 302 301 300 299 298 296 293 291 289 288 287 287 287 287 286 286 286 286 286 286 286 286 286 286 286 286 286 287 287 288 288 288 287 288 288 288 287 287 288 288 287 287
301 301 300 299 297 296 293 291 288 288 287 287 287 287 286 286 286 286 286 286 286 286 285 285 285 285 285 285 285 286 286 286 287 287 288 288 288 287 288 288 287 286 286
301 300 299 297 296 294 292 288 288 287 287 287 287 286 286 285 285 285 286 285 285 285 285 285 284 284 284 284 285 285 285 286 286 287 287 287 286 287 287 287 286 286 285
301 300 298 296 294 291 288 288 287 287 287 286 286 286 285 285 285 285 285 285 285 285 284 284 284 284 284 284 284 284 284 285 286 286 286 285 286 286 286 285 285 285 285

GFSMW_850_thetae_114.txt.gz
Theta_e
313 312 312 312 311 311 310 311 315 315 311 309 308 308 308 308 317 320 327 329 329 327 328 326 327 328 327 324 325 322 325 328 329 330 330 329 329 331 331 329 328 324 321
311 310 310 310 310 310 310 311 311 314 314 310 309 309 308 310 315 317 325 326 329 326 324 324 323 323 322 321 321 321 324 326 329 330 330 329 328 327 329 328 329 329 327
309 309 309 309 310 310 311 310 312 311 311 313 309 309 308 308 308 312 316 324 328 328 325 323 322 322 322 324 322 324 326 326 326 328 328 328 327 326 327 326 326 326 326
308 308 308 308 309 310 310 311 311 312 313 315 313 310 311 309 309 310 316 320 326 327 328 326 325 326 325 325 326 325 327 326 327 327 329 328 327 327 326 325 325 326 325
306 307 307 307 308 310 310 310 311 311 313 312 313 314 313 313 315 317 321 324 325 326 329 327 328 327 327 327 326 326 327 328 327 327 327 327 328 328 327 326 325 325 324
306 306 306 306 308 309 310 310 311 311 311 314 312 311 312 313 316 314 315 318 319 320 323 325 325 324 325 325 325 324 325 325 326 326 326 327 327 327 326 325 325 325 325
306 305 305 305 307 307 309 309 311 311 309 313 312 312 312 312 314 314 314 315 315 317 322 323 322 322 322 322 321 321 322 322 322 325 325 325 325 325 325 325 325 324 323
305 305 305 304 305 305 307 309 310 310 309 312 312 312 311 310 311 314 316 316 314 317 318 320 320 320 320 320 321 320 321 322 323 322 322 323 323 325 325 323 324 324 324
305 305 305 305 304 304 305 305 304 305 307 309 309 310 310 308 310 311 313 310 303 305 308 312 314 315 315 315 315 317 317 319 318 320 321 320 322 323 323 324 323 324 324
305 305 305 306 304 305 305 304 304 302 301 300 300 298 297 297 300 303 305 304 303 304 304 306 306 304 303 303 304 304 305 308 307 310 311 312 313 317 319 317 319 320 319
306 306 306 306 306 306 306 306 305 303 304 304 304 304 304 305 304 300 297 296 297 298 299 302 306 305 305 304 304 303 306 309 305 301 299 303 300 306 304 311 312 314 316
306 307 307 307 307 307 305 302 301 301 300 298 297 297 298 299 299 297 297 296 297 297 296 295 295 295 295 294 294 295 295 296 297 302 305 301 296 297 302 303 298 307 309
306 307 306 306 304 304 302 300 298 297 298 297 297 296 296 295 294 294 293 293 292 292 291 291 290 290 291 290 291 291 291 291 291 291 292 293 294 294 294 295 297 295 298
308 308 308 307 304 302 301 299 299 298 297 296 295 294 294 293 292 291 290 290 290 290 290 290 290 290 290 289 290 290 290 290 290 290 290 290 291 291 290 290 291 292 294
309 308 308 307 305 303 301 299 298 298 297 296 295 294 293 292 290 289 289 289 290 289 289 289 289 289 289 289 289 289 288 289 289 289 289 289 289 288 289 290 293 294 292
310 309 309 307 305 303 302 300 299 298 297 295 294 293 292 290 289 289 289 289 288 288 288 288 288 288 288 288 288 288 288 288 288 288 288 288 288 289 289 290 290 291 292
311 310 309 306 305 304 302 301 300 298 298 296 294 293 292 289 289 289 288 288 288 288 288 288 288 288 288 288 288 287 287 287 288 288 289 289 290 290 289 290 289 288 288
311 310 309 307 305 304 303 302 300 299 298 295 293 292 289 289 289 288 288 288 288 288 288 288 288 288 288 288 287 287 287 288 288 288 289 290 290 290 290 290 288 287 287
310 310 308 306 305 304 303 302 300 298 297 294 293 290 289 289 288 288 289 289 289 288 288 288 288 287 288 288 288 288 288 288 288 289 289 289 289 289 289 289 288 288 288
309 308 307 306 305 304 303 301 298 297 295 293 291 289 289 288 288 288 288 288 288 288 287 287 287 287 287 288 288 289 288 288 288 288 288 287 288 289 289 289 288 289 288
307 306 306 305 304 302 301 299 297 296 294 292 289 289 288 288 288 287 287 287 287 287 287 287 287 287 287 287 288 288 288 288 288 288 288 287 288 289 289 289 289 288 289
305 305 304 303 302 301 300 298 297 295 292 289 289 288 288 288 287 287 287 287 286 286 286 286 287 286 286 286 286 286 287 288 288 287 287 287 288 288 289 288 288 288 289
304 303 303 302 301 301 299 297 295 293 290 288 288 287 287 287 287 287 287 286 286 286 286 286 286 286 286 286 285 285 286 286 286 286 286 287 288 288 288 287 287 288 288
303 303 302 301 301 300 298 296 293 291 288 288 287 288 287 287 287 287 286 286 286 286 286 285 285 285 286 285 285 285 285 285 285 285 286 286 286 286 286 286 286 286 286
303 302 301 300 299 299 297 295 292 289 288 288 287 287 287 287 286 286 285 285 285 285 285 285 285 284 284 284 285 285 285 285 285 286 286 285 285 285 285 285 286 286 285
302 301 300 299 298 298 296 293 289 288 288 287 287 287 287 287 286 285 285 285 285 285 285 285 284 284 284 284 284 284 284 284 285 285 285 285 285 285 285 286 285 285 285

GFSMW_850_thetae_117.txt.gz
Theta_e
311 310 310 309 310 310 311 311 310 309 310 313 313 309 308 308 307 307 308 314 320 321 327 326 328 329 330 330 330 328 326 324 325 326 326 328 328 329 330 330 330 327 321
310 309 309 309 309 310 311 311 310 310 311 312 312 312 309 308 309 307 305 306 312 320 325 327 328 328 329 329 328 325 324 323 322 322 324 325 328 329 329 329 329 329 328
308 307 307 308 309 310 311 310 310 310 311 312 312 312 314 309 309 310 308 307 307 312 321 324 327 325 327 327 327 323 321 321 323 326 325 328 328 327 327 326 327 327 326
307 306 306 308 309 309 310 310 311 310 310 311 312 312 313 313 313 313 312 313 311 312 318 322 325 325 324 322 322 323 324 325 325 326 326 326 327 326 326 326 326 325 325
306 306 306 308 309 309 309 310 310 311 310 310 312 312 312 312 312 312 313 314 317 318 321 321 321 325 323 323 325 324 325 326 326 326 326 326 326 326 327 327 327 326 326
306 305 305 306 308 308 308 309 310 311 310 310 311 312 312 311 312 311 313 314 315 317 318 318 320 320 324 324 325 324 324 324 324 323 324 325 326 326 325 326 326 326 325
305 305 305 306 307 309 308 309 308 311 310 309 310 311 311 310 310 310 312 313 313 314 315 314 316 316 319 323 322 321 321 321 321 321 321 322 323 324 324 325 324 324 324
305 305 305 306 306 306 308 307 306 307 309 309 308 308 307 308 309 309 306 308 311 314 314 313 315 317 318 319 319 319 319 320 320 320 321 321 321 322 322 322 322 323 323
305 304 305 306 306 306 306 305 303 302 303 300 299 298 298 299 302 302 300 302 307 311 312 300 299 302 309 311 312 312 312 314 315 315 315 317 316 318 318 315 315 314 315
305 305 306 306 307 307 306 307 306 306 305 305 304 304 304 302 300 297 296 296 297 302 303 302 302 301 301 301 302 304 305 305 304 303 302 304 303 309 308 307 307 305 309
306 306 306 306 307 306 307 306 305 304 302 300 299 298 298 297 296 295 295 296 296 296 294 295 295 295 296 300 300 300 302 302 300 301 304 305 304 303 300 299 302 301 300
306 306 307 307 307 307 306 303 301 299 298 298 297 296 295 295 294 294 293 292 291 291 291 291 291 292 292 292 293 293 294 293 292 292 293 293 294 299 301 305 302 294 296
307 307 307 306 306 304 303 301 299 299 299 298 297 297 296 295 294 292 291 290 290 290 290 290 290 291 290 291 291 291 291 291 290 290 290 291 291 291 291 292 294 298 294
308 308 307 308 307 304 303 303 301 300 300 299 299 298 296 295 293 291 290 291 291 291 290 289 289 289 289 289 289 290 289 289 289 289 289 289 290 289 289 290 290 292 292
309 309 308 308 307 306 304 303 301 300 299 299 298 297 295 293 290 290 290 290 290 289 289 289 290 290 289 289 289 289 289 288 288 288 288 288 289 288 289 290 290 290 290
311 310 310 308 308 307 305 304 303 301 298 297 297 296 294 292 289 290 289 288 288 288 288 288 288 288 288 288 288 288 288 288 288 288 289 289 290 290 290 290 289 289 288
311 311 310 310 309 308 306 305 303 301 299 298 296 295 293 290 289 289 288 288 289 288 288 288 288 288 288 288 288 288 288 288 288 288 288 289 290 290 290 290 290 289 288
310 310 311 310 309 307 305 304 302 301 299 297 296 294 292 289 289 288 288 288 288 288 289 288 288 288 288 288 288 289 289 288 288 288 288 289 289 289 289 290 289 288 288
309 309 310 310 309 307 306 304 303 301 299 298 296 293 290 289 288 288 288 288 288 288 288 288 288 288 288 288 288 289 288 288 288 288 288 288 287 287 289 290 289 288 288
307 308 309 308 307 306 305 304 303 301 299 297 295 292 289 289 288 288 288 288 287 288 288 288 287 287 287 287 287 288 288 288 288 287 288 288 287 287 289 289 289 288 288
306 306 307 307 306 305 304 303 302 300 298 296 293 289 289 288 288 288 288 287 287 287 287 287 287 287 286 286 286 286 287 287 288 288 288 287 287 287 288 288 289 289 288
306 305 305 305 305 304 303 302 300 298 297 294 291 289 288 288 288 287 287 287 286 286 287 287 287 286 286 286 286 285 286 286 286 286 285 285 286 287 288 288 289 288 288
305 305 304 304 303 302 301 301 299 298 295 292 289 288 287 287 287 287 287 286 286 286 286 286 286 286 286 286 285 285 285 285 285 285 285 285 286 286 286 286 286 287 287
304 304 304 303 302 301 301 300 298 296 293 290 288 287 288 287 287 287 286 286 286 286 286 286 286 286 285 285 285 285 285 284 284 284 285 285 285 285 285 285 285 285 285
303 304 303 303 302 300 300 299 297 294 291 288 288 287 287 287 287 287 286 286 285 285 285 285 285 285 284 285 285 285 284 284 284 285 284 285 284 284 284 285 284 285 285
303 304 303 302 301 300 299 297 296 292 289 288 287 287 287 287 287 286 286 285 285 285 285 285 284 284 284 284 285 284 284 284 284 284 284 283 283 284 284 285 285 284 284